Darstellungsparameter: Aktuell verwendete Einstellungen:
Skalierung der Graphiken ... ?
xyx+y,   Skalierungsfaktor:      Skalierung: Modus: x, Faktor: 1
Darstellungszeitraum ... ?
Vom - - bis: - -   Zeitraum: 16.05.2019 - 15.05.2020
Min/Max/Avg-Anzeige ... ?
Zeige MMA aktuell
Zeige MMA Monat
Zeige MMA alles
Zeige --A aktuell
Zeige --A Monat
Zeige --A alles
Keine MMA-Anzeige
MMA:
Minimum Maximum Average (ber die Originaldaten)
MMA-Basis: 23.02.2003 - 16.05.2020
Quicknavigation für Darstellung... ?
Tage:      1T, 2T, 3T, 5T -1T -2T -3T -5T +1T +2T +3T +5T
Wochen: 1W, 2W, 3W -1W -2W -3W +1W +2W +3W
Monate: 1M, 3M, 6M -1M -3M -6M +1M +3M +6M
Jahre:    1J, 3J, 5J, 10J -1J -3J -5J -10J +1J +3J +5J +10J
Nutze für die Darstellung ... ?
Originaldaten oder ...
Mittelwerte Minima Maxima auf...
Stundenbasis Tagesbasis Wochenbasis
Monatsbasis Jahresbasis      Datenbasis: Mittelwerte auf Stundenbasis
Darstellen als:
Statistik (Auto) Statistik J:M      Darstellung:
Zur Graphik,    zurück zur Übersicht aller Sensoren.
 
Tabellarische Datenbersicht: ?
 
Sensor: Nr:Datum:Temp:Abs-Feuchte:Windchill:Wind:
Aussen-T/F 1 16-05-2019 00:00:00 7.39167 C 5.29 g/m*3 7.39 C 1.6 km/h
2 16-05-2019 01:00:00 6.64167 C 5.56 g/m*3 6.64 C 0 km/h
3 16-05-2019 02:00:00 5.725 C 5.61 g/m*3 5.73 C 0 km/h
4 16-05-2019 03:00:00 5.58333 C 5.8 g/m*3 5.58 C 0 km/h
5 16-05-2019 04:00:00 5.71667 C 5.95 g/m*3 5.72 C 0 km/h
6 16-05-2019 05:00:00 5.83333 C 6.04 g/m*3 5.83 C 0 km/h
7 16-05-2019 06:00:00 5.95 C 6.18 g/m*3 5.95 C 0.13333 km/h
8 16-05-2019 07:00:00 6.64167 C 6.45 g/m*3 6.64 C 0 km/h
9 16-05-2019 08:00:00 7.98333 C 6.84 g/m*3 7.98 C 0.13333 km/h
10 16-05-2019 09:00:00 9.95 C 6.81 g/m*3 9.95 C 4.15 km/h
11 16-05-2019 10:00:00 11.65833 C 6.56 g/m*3 11.66 C 8.45833 km/h
12 16-05-2019 11:00:00 12.20833 C 6.32 g/m*3 12.21 C 8.33333 km/h
13 16-05-2019 12:00:00 13.13333 C 6.73 g/m*3 13.13 C 8.875 km/h
14 16-05-2019 13:00:00 14.68333 C 7.13 g/m*3 14.68 C 10.76667 km/h
15 16-05-2019 14:00:00 15.4 C 7.34 g/m*3 15.4 C 10.48333 km/h
16 16-05-2019 15:00:00 17.38333 C 7.71 g/m*3 17.38 C 10.08333 km/h
17 16-05-2019 16:00:00 18.23333 C 7.73 g/m*3 18.23 C 8.45 km/h
18 16-05-2019 17:00:00 16.90833 C 7.77 g/m*3 16.91 C 9.69167 km/h
19 16-05-2019 18:00:00 15.44167 C 8.11 g/m*3 15.44 C 11.95 km/h
20 16-05-2019 19:00:00 14.075 C 8.25 g/m*3 14.08 C 4.41667 km/h
21 16-05-2019 20:00:00 12.56667 C 8.08 g/m*3 12.57 C 6.70833 km/h
22 16-05-2019 21:00:00 11.175 C 7.69 g/m*3 11.18 C 8.21667 km/h
23 16-05-2019 22:00:00 10.23333 C 7.8 g/m*3 10.23 C 4.29167 km/h
24 16-05-2019 23:00:00 9.60833 C 7.91 g/m*3 9.61 C 0.66667 km/h
25 17-05-2019 00:00:00 9.08333 C 8.06 g/m*3 9.08 C 0 km/h
Sensor: Nr:Datum:Temp:Abs-Feuchte:Windchill:Wind:
Aussen-T/F 26 17-05-2019 01:00:00 8.79167 C 8.05 g/m*3 8.79 C 0 km/h
27 17-05-2019 02:00:00 8.7 C 8.1 g/m*3 8.7 C 0 km/h
28 17-05-2019 03:00:00 8.63333 C 8.11 g/m*3 8.63 C 0.53333 km/h
29 17-05-2019 04:00:00 8.475 C 8.09 g/m*3 8.48 C 0.13333 km/h
30 17-05-2019 05:00:00 8.36667 C 8.04 g/m*3 8.37 C 0 km/h
31 17-05-2019 06:00:00 8.45 C 8.13 g/m*3 8.45 C 0 km/h
32 17-05-2019 07:00:00 8.71667 C 8.31 g/m*3 8.72 C 0.4 km/h
33 17-05-2019 08:00:00 8.96667 C 8.45 g/m*3 8.97 C 1.73333 km/h
34 17-05-2019 09:00:00 9.29167 C 8.62 g/m*3 9.29 C 1.86667 km/h
35 17-05-2019 10:00:00 9.625 C 8.81 g/m*3 9.63 C 4.825 km/h
36 17-05-2019 11:00:00 10.2 C 9.05 g/m*3 10.2 C 3.86667 km/h
37 17-05-2019 12:00:00 11.175 C 9.49 g/m*3 11.18 C 6.425 km/h
38 17-05-2019 13:00:00 12.825 C 10 g/m*3 12.83 C 8.625 km/h
39 17-05-2019 14:00:00 14.44167 C 10.43 g/m*3 14.44 C 6.58333 km/h
40 17-05-2019 15:00:00 15.54167 C 10.58 g/m*3 15.54 C 7.26667 km/h
41 17-05-2019 16:00:00 16.35 C 10.47 g/m*3 16.35 C 7.65833 km/h
42 17-05-2019 17:00:00 17.35 C 10.47 g/m*3 17.35 C 6.70833 km/h
43 17-05-2019 18:00:00 16.8 C 11.2 g/m*3 16.8 C 2 km/h
44 17-05-2019 19:00:00 16.625 C 11.34 g/m*3 16.63 C 0.26667 km/h
45 17-05-2019 20:00:00 13.975 C 10.28 g/m*3 13.98 C 0.26667 km/h
46 17-05-2019 21:00:00 12.00833 C 9.56 g/m*3 12.01 C 0.26667 km/h
47 17-05-2019 22:00:00 11.96667 C 9.78 g/m*3 11.97 C 0 km/h
48 17-05-2019 23:00:00 12.05833 C 9.99 g/m*3 12.06 C 0.4 km/h
49 18-05-2019 00:00:00 11.6 C 9.77 g/m*3 11.6 C 0 km/h
50 18-05-2019 01:00:00 10.44167 C 9.12 g/m*3 10.44 C 0.4 km/h
Sensor: Nr:Datum:Temp:Abs-Feuchte:Windchill:Wind:
Aussen-T/F 51 18-05-2019 02:00:00 10.58333 C 9.34 g/m*3 10.58 C 0 km/h
52 18-05-2019 03:00:00 10.43333 C 9.26 g/m*3 10.43 C 0 km/h
53 18-05-2019 04:00:00 9.925 C 8.98 g/m*3 9.93 C 0 km/h
54 18-05-2019 05:00:00 9.31667 C 8.64 g/m*3 9.32 C 0 km/h
55 18-05-2019 06:00:00 9.35833 C 8.7 g/m*3 9.36 C 0 km/h
56 18-05-2019 07:00:00 10.23333 C 9.25 g/m*3 10.23 C 0.13333 km/h
57 18-05-2019 08:00:00 11.2 C 9.82 g/m*3 11.2 C 1.6 km/h
58 18-05-2019 09:00:00 12.275 C 10.26 g/m*3 12.28 C 0.66667 km/h
59 18-05-2019 10:00:00 14.16667 C 11.13 g/m*3 14.17 C 1.2 km/h
60 18-05-2019 11:00:00 16.9 C 11.11 g/m*3 16.9 C 4.675 km/h
61 18-05-2019 12:00:00 18.14167 C 11.07 g/m*3 18.14 C 3.86667 km/h
62 18-05-2019 13:00:00 19.01667 C 11.27 g/m*3 19.02 C 4.15833 km/h
63 18-05-2019 14:00:00 20.34167 C 11.02 g/m*3 20.34 C 5.50833 km/h
64 18-05-2019 15:00:00 21.05833 C 10.74 g/m*3 21.06 C 6.30833 km/h
65 18-05-2019 16:00:00 22.41667 C 11.99 g/m*3 22.42 C 8.05833 km/h
66 18-05-2019 17:00:00 21.04167 C 12.96 g/m*3 21.04 C 0.26667 km/h
67 18-05-2019 18:00:00 18.54167 C 12.15 g/m*3 18.54 C 2 km/h
68 18-05-2019 19:00:00 15.85 C 11.74 g/m*3 15.85 C 1.33333 km/h
69 18-05-2019 20:00:00 14.79167 C 11.45 g/m*3 14.79 C 0 km/h
70 18-05-2019 21:00:00 13.71667 C 10.91 g/m*3 13.72 C 0.26667 km/h
71 18-05-2019 22:00:00 12.75 C 10.42 g/m*3 12.75 C 0.26667 km/h
72 18-05-2019 23:00:00 12.53333 C 10.43 g/m*3 12.53 C 0.66667 km/h
73 19-05-2019 00:00:00 12.79167 C 10.64 g/m*3 12.79 C 0 km/h
74 19-05-2019 01:00:00 12.73333 C 10.6 g/m*3 12.73 C 0.4 km/h
75 19-05-2019 02:00:00 12.26667 C 10.29 g/m*3 12.27 C 0 km/h
Sensor: Nr:Datum:Temp:Abs-Feuchte:Windchill:Wind:
Aussen-T/F 76 19-05-2019 03:00:00 11.71667 C 10 g/m*3 11.72 C 0 km/h
77 19-05-2019 04:00:00 11.625 C 9.99 g/m*3 11.63 C 0 km/h
78 19-05-2019 05:00:00 11.38333 C 9.84 g/m*3 11.38 C 0 km/h
79 19-05-2019 06:00:00 11.475 C 9.99 g/m*3 11.48 C 0.13333 km/h
80 19-05-2019 07:00:00 12.13333 C 10.42 g/m*3 12.13 C 0.93333 km/h
81 19-05-2019 08:00:00 12.825 C 10.88 g/m*3 12.83 C 2 km/h
82 19-05-2019 09:00:00 13.73333 C 11.5 g/m*3 13.73 C 2.66667 km/h
83 19-05-2019 10:00:00 15.11667 C 12.25 g/m*3 15.12 C 0.66667 km/h
84 19-05-2019 11:00:00 16.26667 C 12.5 g/m*3 16.27 C 2.66667 km/h
85 19-05-2019 12:00:00 17.99167 C 12.93 g/m*3 17.99 C 7.525 km/h
86 19-05-2019 13:00:00 18.78333 C 12.47 g/m*3 18.78 C 8.88333 km/h
87 19-05-2019 14:00:00 20.225 C 11.78 g/m*3 20.23 C 8.89167 km/h
88 19-05-2019 15:00:00 22.54167 C 12.28 g/m*3 22.54 C 9.55833 km/h
89 19-05-2019 16:00:00 23.4 C 12.28 g/m*3 23.4 C 11.69167 km/h
90 19-05-2019 17:00:00 19.25833 C 10.48 g/m*3 19.26 C 9.525 km/h
91 19-05-2019 18:00:00 19.96667 C 11.24 g/m*3 19.97 C 7.39167 km/h
92 19-05-2019 19:00:00 20.475 C 11.22 g/m*3 20.48 C 3.73333 km/h
93 19-05-2019 20:00:00 18.96667 C 11.15 g/m*3 18.97 C 0.4 km/h
94 19-05-2019 21:00:00 15.7 C 10.82 g/m*3 15.7 C 0.13333 km/h
95 19-05-2019 22:00:00 14.53333 C 10.74 g/m*3 14.53 C 1.06667 km/h
96 19-05-2019 23:00:00 14.65833 C 10.64 g/m*3 14.66 C 2.40833 km/h
97 20-05-2019 00:00:00 14.48333 C 10.64 g/m*3 14.48 C 4.14167 km/h
98 20-05-2019 01:00:00 13.40833 C 10.39 g/m*3 13.41 C 1.06667 km/h
99 20-05-2019 02:00:00 12.46667 C 10.05 g/m*3 12.47 C 0.66667 km/h
100 20-05-2019 03:00:00 12.23333 C 10.07 g/m*3 12.23 C 1.33333 km/h
Sensor: Nr:Datum:Temp:Abs-Feuchte:Windchill:Wind:
Aussen-T/F 101 20-05-2019 04:00:00 12.7 C 10.46 g/m*3 12.7 C 2.4 km/h
102 20-05-2019 05:00:00 13.13333 C 10.63 g/m*3 13.13 C 3.73333 km/h
103 20-05-2019 06:00:00 13.15 C 10.53 g/m*3 13.15 C 7.25 km/h
104 20-05-2019 07:00:00 13.16667 C 10.54 g/m*3 13.17 C 1.33333 km/h
105 20-05-2019 08:00:00 13.475 C 10.72 g/m*3 13.48 C 0.53333 km/h
106 20-05-2019 09:00:00 13.95 C 10.81 g/m*3 13.95 C 4.55833 km/h
107 20-05-2019 10:00:00 14.25833 C 10.92 g/m*3 14.26 C 5.775 km/h
108 20-05-2019 11:00:00 14.125 C 11.17 g/m*3 14.13 C 3.61667 km/h
109 20-05-2019 12:00:00 14.08333 C 11.16 g/m*3 14.08 C 7.93333 km/h
110 20-05-2019 13:00:00 13.85833 C 11 g/m*3 13.86 C 9.125 km/h
111 20-05-2019 14:00:00 14.29167 C 11.23 g/m*3 14.29 C 9.01667 km/h
112 20-05-2019 15:00:00 14.6 C 11.17 g/m*3 14.6 C 7.1 km/h
113 20-05-2019 16:00:00 14.84167 C 11.14 g/m*3 14.84 C 9.55 km/h
114 20-05-2019 17:00:00 14.93333 C 11.11 g/m*3 14.93 C 8.08333 km/h
115 20-05-2019 18:00:00 14.86667 C 10.95 g/m*3 14.87 C 11.95833 km/h
116 20-05-2019 19:00:00 14.65 C 10.88 g/m*3 14.65 C 7.125 km/h
117 20-05-2019 20:00:00 14.5 C 10.85 g/m*3 14.5 C 9.15833 km/h
118 20-05-2019 21:00:00 14.19167 C 10.74 g/m*3 14.19 C 9.81667 km/h
119 20-05-2019 22:00:00 14.1 C 10.68 g/m*3 14.1 C 7.93333 km/h
120 20-05-2019 23:00:00 14.21667 C 10.58 g/m*3 14.22 C 6.575 km/h
121 21-05-2019 00:00:00 14.23333 C 10.6 g/m*3 14.23 C 9.54167 km/h
122 21-05-2019 01:00:00 13.8 C 10.66 g/m*3 13.8 C 9.55 km/h
123 21-05-2019 02:00:00 13.56667 C 10.65 g/m*3 13.57 C 9.14167 km/h
124 21-05-2019 03:00:00 13.275 C 10.55 g/m*3 13.28 C 7.51667 km/h
125 21-05-2019 04:00:00 13.11667 C 10.39 g/m*3 13.12 C 7.65 km/h
Sensor: Nr:Datum:Temp:Abs-Feuchte:Windchill:Wind:
Aussen-T/F 126 21-05-2019 05:00:00 12.71667 C 10.21 g/m*3 12.72 C 10.09167 km/h
127 21-05-2019 06:00:00 12.21667 C 10.13 g/m*3 12.22 C 9.675 km/h
128 21-05-2019 07:00:00 12.23333 C 10.16 g/m*3 12.23 C 9.25833 km/h
129 21-05-2019 08:00:00 12.3 C 10.16 g/m*3 12.3 C 11.15833 km/h
130 21-05-2019 09:00:00 12.3 C 10.16 g/m*3 12.3 C 12.9 km/h
131 21-05-2019 10:00:00 12.23333 C 10.13 g/m*3 12.23 C 11.83333 km/h
132 21-05-2019 11:00:00 12.15 C 10.01 g/m*3 12.15 C 15.44167 km/h
133 21-05-2019 12:00:00 12.11667 C 10.07 g/m*3 12.12 C 11.025 km/h
134 21-05-2019 13:00:00 12.225 C 10.16 g/m*3 12.23 C 5.75833 km/h
135 21-05-2019 14:00:00 12.15 C 10.08 g/m*3 12.15 C 6.44167 km/h
136 21-05-2019 15:00:00 12.15833 C 10.02 g/m*3 12.16 C 9.00833 km/h
137 21-05-2019 16:00:00 12.09167 C 10.07 g/m*3 12.09 C 9.4 km/h
138 21-05-2019 17:00:00 12.18333 C 10.14 g/m*3 12.18 C 7.51667 km/h
139 21-05-2019 18:00:00 12.275 C 10.2 g/m*3 12.28 C 7.125 km/h
140 21-05-2019 19:00:00 12.375 C 10.22 g/m*3 12.38 C 6.98333 km/h
141 21-05-2019 20:00:00 12.21667 C 10.24 g/m*3 12.22 C 3.88333 km/h
142 21-05-2019 21:00:00 12.1 C 10.19 g/m*3 12.1 C 3.46667 km/h
143 21-05-2019 22:00:00 12.04167 C 10.19 g/m*3 12.04 C 3.875 km/h
144 21-05-2019 23:00:00 11.85833 C 10.14 g/m*3 11.86 C 0 km/h
145 22-05-2019 00:00:00 11.8 C 10.1 g/m*3 11.8 C 0 km/h
146 22-05-2019 01:00:00 11.75 C 10.07 g/m*3 11.75 C 1.33333 km/h
147 22-05-2019 02:00:00 11.56667 C 9.96 g/m*3 11.57 C 4.54167 km/h
148 22-05-2019 03:00:00 11.575 C 9.96 g/m*3 11.58 C 2.66667 km/h
149 22-05-2019 04:00:00 11.44167 C 9.8 g/m*3 11.44 C 6.43333 km/h
150 22-05-2019 05:00:00 11.33333 C 9.71 g/m*3 11.33 C 6.025 km/h
Sensor: Nr:Datum:Temp:Abs-Feuchte:Windchill:Wind:
Aussen-T/F 151 22-05-2019 06:00:00 11.05 C 9.44 g/m*3 11.05 C 8.60833 km/h
152 22-05-2019 07:00:00 10.66667 C 9.15 g/m*3 9.44 C 9.94167 km/h
153 22-05-2019 08:00:00 10.33333 C 8.82 g/m*3 9.44 C 7.79167 km/h
154 22-05-2019 09:00:00 10.475 C 8.45 g/m*3 9.52 C 8.2 km/h
155 22-05-2019 10:00:00 10.88333 C 8.29 g/m*3 9.98 C 8.33333 km/h
156 22-05-2019 11:00:00 11.51667 C 8.51 g/m*3 11.52 C 8.88333 km/h
157 22-05-2019 12:00:00 12.85 C 8.61 g/m*3 12.85 C 9.825 km/h
158 22-05-2019 13:00:00 13.65833 C 8.69 g/m*3 13.66 C 8.2 km/h
159 22-05-2019 14:00:00 15.01667 C 8.94 g/m*3 15.02 C 9.41667 km/h
160 22-05-2019 15:00:00 17.08333 C 9.27 g/m*3 17.08 C 9.01667 km/h
161 22-05-2019 16:00:00 18.625 C 9.4 g/m*3 18.63 C 6.7 km/h
162 22-05-2019 17:00:00 18.24167 C 9.15 g/m*3 18.24 C 6.3 km/h
163 22-05-2019 18:00:00 19.46667 C 9.06 g/m*3 19.47 C 7.10833 km/h
164 22-05-2019 19:00:00 19.025 C 9.15 g/m*3 19.02 C 3.625 km/h
165 22-05-2019 20:00:00 17.24167 C 10.41 g/m*3 17.24 C 0 km/h
166 22-05-2019 21:00:00 13.73333 C 9.09 g/m*3 13.73 C 0 km/h
167 22-05-2019 22:00:00 11.64167 C 8.92 g/m*3 11.64 C 0 km/h
168 22-05-2019 23:00:00 10.33333 C 8.61 g/m*3 10.33 C 0 km/h
169 23-05-2019 00:00:00 9.5 C 8.34 g/m*3 9.5 C 0 km/h
170 23-05-2019 01:00:00 8.975 C 8.18 g/m*3 8.98 C 0 km/h
171 23-05-2019 02:00:00 8.54167 C 8.02 g/m*3 8.54 C 0 km/h
172 23-05-2019 03:00:00 8.35833 C 8.02 g/m*3 8.36 C 0 km/h
173 23-05-2019 04:00:00 7.93333 C 7.82 g/m*3 7.93 C 0 km/h
174 23-05-2019 05:00:00 7.71667 C 7.73 g/m*3 7.72 C 0.26667 km/h
175 23-05-2019 06:00:00 7.9 C 7.89 g/m*3 7.9 C 0.26667 km/h
Sensor: Nr:Datum:Temp:Abs-Feuchte:Windchill:Wind:
Aussen-T/F 176 23-05-2019 07:00:00 8.675 C 8.29 g/m*3 8.68 C 0.93333 km/h
177 23-05-2019 08:00:00 9.59167 C 8.77 g/m*3 9.59 C 0.26667 km/h
178 23-05-2019 09:00:00 11.05833 C 9.44 g/m*3 11.06 C 0 km/h
179 23-05-2019 10:00:00 13.75 C 10.38 g/m*3 13.75 C 1.74167 km/h
180 23-05-2019 11:00:00 17.49167 C 9.82 g/m*3 17.49 C 6.85 km/h
181 23-05-2019 12:00:00 18.84167 C 9.34 g/m*3 18.84 C 6.95833 km/h
182 23-05-2019 13:00:00 19.83333 C 9.66 g/m*3 19.83 C 5.35833 km/h
183 23-05-2019 14:00:00 21.25833 C 9.08 g/m*3 21.26 C 7.79167 km/h
184 23-05-2019 15:00:00 22.38333 C 9.14 g/m*3 22.38 C 4.55 km/h
185 23-05-2019 16:00:00 24.39167 C 8.73 g/m*3 24.39 C 7.25833 km/h
186 23-05-2019 17:00:00 24.78333 C 8.55 g/m*3 24.78 C 8.74167 km/h
187 23-05-2019 18:00:00 24.96667 C 8.62 g/m*3 24.97 C 5.34167 km/h
188 23-05-2019 19:00:00 22.80833 C 10.71 g/m*3 22.81 C 2.00833 km/h
189 23-05-2019 20:00:00 19.33333 C 10.77 g/m*3 19.33 C 0 km/h
190 23-05-2019 21:00:00 16.40833 C 10.35 g/m*3 16.41 C 0 km/h
191 23-05-2019 22:00:00 14.68333 C 10.31 g/m*3 14.68 C 0 km/h
192 23-05-2019 23:00:00 13.66667 C 9.9 g/m*3 13.67 C 0 km/h
193 24-05-2019 00:00:00 12.84167 C 9.7 g/m*3 12.84 C 0.93333 km/h
194 24-05-2019 01:00:00 12.36667 C 9.55 g/m*3 12.37 C 0 km/h
195 24-05-2019 02:00:00 11.83333 C 9.41 g/m*3 11.83 C 0 km/h
196 24-05-2019 03:00:00 11.40833 C 9.35 g/m*3 11.41 C 0 km/h
197 24-05-2019 04:00:00 11.25 C 9.35 g/m*3 11.25 C 0 km/h
198 24-05-2019 05:00:00 11.16667 C 9.31 g/m*3 11.17 C 0.13333 km/h
199 24-05-2019 06:00:00 11 C 9.3 g/m*3 11 C 0 km/h
200 24-05-2019 07:00:00 11.71667 C 9.71 g/m*3 11.72 C 0.53333 km/h
Sensor: Nr:Datum:Temp:Abs-Feuchte:Windchill:Wind:
Aussen-T/F 201 24-05-2019 08:00:00 13.29167 C 10.19 g/m*3 13.29 C 0.53333 km/h
202 24-05-2019 09:00:00 15.28333 C 10.47 g/m*3 15.28 C 1.2 km/h
203 24-05-2019 10:00:00 16.80833 C 10.92 g/m*3 16.81 C 0.93333 km/h
204 24-05-2019 11:00:00 18.925 C 11.06 g/m*3 18.93 C 3.2 km/h
205 24-05-2019 12:00:00 20.75833 C 10.36 g/m*3 20.76 C 5.49167 km/h
206 24-05-2019 13:00:00 22.09167 C 9.14 g/m*3 22.09 C 6.3 km/h
207 24-05-2019 14:00:00 22.98333 C 8.88 g/m*3 22.98 C 7.125 km/h
208 24-05-2019 15:00:00 23.45 C 8.54 g/m*3 23.45 C 8.86667 km/h
209 24-05-2019 16:00:00 23.88333 C 8.79 g/m*3 23.88 C 5.34167 km/h
210 24-05-2019 17:00:00 24.26667 C 9.37 g/m*3 24.27 C 4.40833 km/h
211 24-05-2019 18:00:00 24.40833 C 9.15 g/m*3 24.41 C 6.025 km/h
212 24-05-2019 19:00:00 21.04167 C 10.38 g/m*3 21.04 C 5.91667 km/h
213 24-05-2019 20:00:00 19.475 C 10.35 g/m*3 19.48 C 2.68333 km/h
214 24-05-2019 21:00:00 16.96667 C 10.33 g/m*3 16.97 C 0 km/h
215 24-05-2019 22:00:00 15.14167 C 10.29 g/m*3 15.14 C 0 km/h
216 24-05-2019 23:00:00 14.06667 C 10.17 g/m*3 14.07 C 0.53333 km/h
217 25-05-2019 00:00:00 14.75833 C 9.94 g/m*3 14.76 C 1.6 km/h
218 25-05-2019 01:00:00 13.875 C 9.31 g/m*3 13.88 C 0 km/h
219 25-05-2019 02:00:00 13.125 C 8.69 g/m*3 13.13 C 0.53333 km/h
220 25-05-2019 03:00:00 12.16667 C 8.19 g/m*3 12.17 C 0.13333 km/h
221 25-05-2019 04:00:00 10.84167 C 7.48 g/m*3 10.84 C 0 km/h
222 25-05-2019 05:00:00 10.2 C 7.35 g/m*3 10.2 C 0 km/h
223 25-05-2019 06:00:00 9.525 C 7.62 g/m*3 9.53 C 0.13333 km/h
224 25-05-2019 07:00:00 10.675 C 7.88 g/m*3 10.68 C 2.54167 km/h
225 25-05-2019 08:00:00 13.04167 C 8.21 g/m*3 13.04 C 9.15833 km/h
Sensor: Nr:Datum:Temp:Abs-Feuchte:Windchill:Wind:
Aussen-T/F 226 25-05-2019 09:00:00 14.025 C 8.66 g/m*3 14.03 C 5.88333 km/h
227 25-05-2019 10:00:00 15.3 C 8.91 g/m*3 15.3 C 4.68333 km/h
228 25-05-2019 11:00:00 16.25 C 8.78 g/m*3 16.25 C 6.96667 km/h
229 25-05-2019 12:00:00 16.95833 C 9.3 g/m*3 16.96 C 9.68333 km/h
230 25-05-2019 13:00:00 18.45 C 9.49 g/m*3 18.45 C 9.675 km/h
231 25-05-2019 14:00:00 19.35833 C 9.17 g/m*3 19.36 C 11.425 km/h
232 25-05-2019 15:00:00 21.01667 C 9.31 g/m*3 21.02 C 12.76667 km/h
233 25-05-2019 16:00:00 22.06667 C 9.09 g/m*3 22.07 C 13.16667 km/h
234 25-05-2019 17:00:00 21.73333 C 8.79 g/m*3 21.73 C 12.76667 km/h
235 25-05-2019 18:00:00 19.95 C 8.44 g/m*3 19.95 C 7.91667 km/h
236 25-05-2019 19:00:00 18.875 C 8.83 g/m*3 18.88 C 6.15833 km/h
237 25-05-2019 20:00:00 17.98333 C 9.85 g/m*3 17.98 C 1.74167 km/h
238 25-05-2019 21:00:00 16.03333 C 9.75 g/m*3 16.03 C 0.8 km/h
239 25-05-2019 22:00:00 14.81667 C 9.54 g/m*3 14.82 C 0 km/h
240 25-05-2019 23:00:00 13.38333 C 9.26 g/m*3 13.38 C 0.13333 km/h
241 26-05-2019 00:00:00 11.85 C 8.97 g/m*3 11.85 C 0 km/h
242 26-05-2019 01:00:00 10.775 C 8.77 g/m*3 10.78 C 0.4 km/h
243 26-05-2019 02:00:00 10.13333 C 8.62 g/m*3 10.13 C 0.4 km/h
244 26-05-2019 03:00:00 9.44167 C 8.37 g/m*3 9.44 C 0.13333 km/h
245 26-05-2019 04:00:00 8.95 C 8.19 g/m*3 8.95 C 1.60833 km/h
246 26-05-2019 05:00:00 8.825 C 8.23 g/m*3 8.82 C 0.4 km/h
247 26-05-2019 06:00:00 9.36667 C 8.53 g/m*3 9.37 C 2.00833 km/h
248 26-05-2019 07:00:00 9.9 C 8.75 g/m*3 9.9 C 4.425 km/h
249 26-05-2019 08:00:00 11.21667 C 9.45 g/m*3 11.22 C 1.6 km/h
250 26-05-2019 09:00:00 14.3 C 10.38 g/m*3 14.3 C 8.46667 km/h
Sensor: Nr:Datum:Temp:Abs-Feuchte:Windchill:Wind:
Aussen-T/F 251 26-05-2019 10:00:00 16.83333 C 10.43 g/m*3 16.83 C 7.93333 km/h
252 26-05-2019 11:00:00 18.16667 C 9.86 g/m*3 18.17 C 9.95 km/h
253 26-05-2019 12:00:00 18.99167 C 9.91 g/m*3 18.99 C 11.43333 km/h
254 26-05-2019 13:00:00 20.275 C 10.33 g/m*3 20.27 C 12.35833 km/h
255 26-05-2019 14:00:00 21.68333 C 10.07 g/m*3 21.68 C 12.76667 km/h
256 26-05-2019 15:00:00 23.43333 C 10.34 g/m*3 23.43 C 11.56667 km/h
257 26-05-2019 16:00:00 23.725 C 10.39 g/m*3 23.73 C 11.83333 km/h
258 26-05-2019 17:00:00 21.91667 C 10.77 g/m*3 21.92 C 9.56667 km/h
259 26-05-2019 18:00:00 21.45833 C 10.97 g/m*3 21.46 C 6.85 km/h
260 26-05-2019 19:00:00 19.93333 C 11.28 g/m*3 19.93 C 1.6 km/h
261 26-05-2019 20:00:00 18.36667 C 11.34 g/m*3 18.37 C 0.13333 km/h
262 26-05-2019 21:00:00 17.93333 C 10.82 g/m*3 17.93 C 4.55 km/h
263 26-05-2019 22:00:00 17.68333 C 10.86 g/m*3 17.68 C 1.46667 km/h
264 26-05-2019 23:00:00 16.925 C 10.84 g/m*3 16.93 C 1.2 km/h
265 27-05-2019 00:00:00 16.29167 C 10.87 g/m*3 16.29 C 1.2 km/h
266 27-05-2019 01:00:00 15.75 C 10.85 g/m*3 15.75 C 0.13333 km/h
267 27-05-2019 02:00:00 14.7 C 10.48 g/m*3 14.7 C 1.475 km/h
268 27-05-2019 03:00:00 14.1 C 10.25 g/m*3 14.1 C 0.26667 km/h
269 27-05-2019 04:00:00 13.85 C 10.44 g/m*3 13.85 C 1.86667 km/h
270 27-05-2019 05:00:00 14.19167 C 10.98 g/m*3 14.19 C 2.00833 km/h
271 27-05-2019 06:00:00 13.94167 C 11.16 g/m*3 13.94 C 2.95 km/h
272 27-05-2019 07:00:00 14.20833 C 11.48 g/m*3 14.21 C 2.66667 km/h
273 27-05-2019 08:00:00 14.94167 C 11.91 g/m*3 14.94 C 4.00833 km/h
274 27-05-2019 09:00:00 15.61667 C 12.34 g/m*3 15.62 C 1.875 km/h
275 27-05-2019 10:00:00 15.925 C 12.4 g/m*3 15.93 C 4.95 km/h
Sensor: Nr:Datum:Temp:Abs-Feuchte:Windchill:Wind:
Aussen-T/F 276 27-05-2019 11:00:00 15.25 C 11.92 g/m*3 15.25 C 4.7 km/h
277 27-05-2019 12:00:00 15.00833 C 11.95 g/m*3 15.01 C 1.2 km/h
278 27-05-2019 13:00:00 14.39167 C 11.55 g/m*3 14.39 C 2.80833 km/h
279 27-05-2019 14:00:00 14.53333 C 11.76 g/m*3 14.53 C 0.53333 km/h
280 27-05-2019 15:00:00 14.825 C 11.91 g/m*3 14.83 C 0.66667 km/h
281 27-05-2019 16:00:00 15.475 C 12.4 g/m*3 15.48 C 0.4 km/h
282 27-05-2019 17:00:00 16.075 C 12.67 g/m*3 16.08 C 0.66667 km/h
283 27-05-2019 18:00:00 16.275 C 12.89 g/m*3 16.27 C 0 km/h
284 27-05-2019 19:00:00 16.73333 C 13.23 g/m*3 16.73 C 0 km/h
285 27-05-2019 20:00:00 15.78333 C 12.32 g/m*3 15.78 C 0 km/h
286 27-05-2019 21:00:00 14.68333 C 11.71 g/m*3 14.68 C 0 km/h
287 27-05-2019 22:00:00 13.79167 C 11.22 g/m*3 13.79 C 0 km/h
288 27-05-2019 23:00:00 13.4 C 11.04 g/m*3 13.4 C 0 km/h
289 28-05-2019 00:00:00 12.96667 C 10.83 g/m*3 12.97 C 0.26667 km/h
290 28-05-2019 01:00:00 12.45 C 10.52 g/m*3 12.45 C 0 km/h
291 28-05-2019 02:00:00 12.55 C 10.66 g/m*3 12.55 C 0 km/h
292 28-05-2019 03:00:00 12.41667 C 10.56 g/m*3 12.42 C 0 km/h
293 28-05-2019 04:00:00 11.55 C 9.99 g/m*3 11.55 C 0 km/h
294 28-05-2019 05:00:00 11.80833 C 10.21 g/m*3 11.81 C 0 km/h
295 28-05-2019 06:00:00 12.18333 C 10.46 g/m*3 12.18 C 0 km/h
296 28-05-2019 07:00:00 12.51667 C 10.68 g/m*3 12.52 C 0 km/h
297 28-05-2019 08:00:00 12.84167 C 10.89 g/m*3 12.84 C 2 km/h
298 28-05-2019 09:00:00 13.425 C 11.13 g/m*3 13.43 C 5.20833 km/h
299 28-05-2019 10:00:00 14.74167 C 11.04 g/m*3 14.74 C 8.875 km/h
300 28-05-2019 11:00:00 15.65 C 10.78 g/m*3 15.65 C 12.625 km/h
Sensor: Nr:Datum:Temp:Abs-Feuchte:Windchill:Wind:
Aussen-T/F 301 28-05-2019 12:00:00 16.05 C 10.22 g/m*3 16.05 C 13.16667 km/h
302 28-05-2019 13:00:00 17.49167 C 9.9 g/m*3 17.49 C 12.9 km/h
303 28-05-2019 14:00:00 16.04167 C 9.61 g/m*3 16.04 C 15.43333 km/h
304 28-05-2019 15:00:00 13.65833 C 9.96 g/m*3 13.66 C 5.625 km/h
305 28-05-2019 16:00:00 15.80833 C 10.34 g/m*3 15.81 C 7.925 km/h
306 28-05-2019 17:00:00 16.80833 C 9.99 g/m*3 16.81 C 9.01667 km/h
307 28-05-2019 18:00:00 16.78333 C 9.34 g/m*3 16.78 C 12.1 km/h
308 28-05-2019 19:00:00 16.08333 C 9.31 g/m*3 16.08 C 10.89167 km/h
309 28-05-2019 20:00:00 14.10833 C 9.2 g/m*3 14.11 C 3.33333 km/h
310 28-05-2019 21:00:00 13.10833 C 9.32 g/m*3 13.11 C 5.5 km/h
311 28-05-2019 22:00:00 12.15 C 9.41 g/m*3 12.15 C 0.26667 km/h
312 28-05-2019 23:00:00 11.78333 C 9.33 g/m*3 11.78 C 2.675 km/h
313 29-05-2019 00:00:00 11.70833 C 8.98 g/m*3 11.71 C 2.81667 km/h
314 29-05-2019 01:00:00 11.73333 C 9.07 g/m*3 11.73 C 2.13333 km/h
315 29-05-2019 02:00:00 11.875 C 9.07 g/m*3 11.88 C 5.1 km/h
316 29-05-2019 03:00:00 11.675 C 9.09 g/m*3 11.68 C 2.8 km/h
317 29-05-2019 04:00:00 11.44167 C 8.89 g/m*3 11.44 C 4.55 km/h
318 29-05-2019 05:00:00 11.08333 C 8.71 g/m*3 11.08 C 3.06667 km/h
319 29-05-2019 06:00:00 10.875 C 8.6 g/m*3 10.88 C 2.93333 km/h
320 29-05-2019 07:00:00 10.81667 C 8.52 g/m*3 10.82 C 3.875 km/h
321 29-05-2019 08:00:00 11.225 C 8.53 g/m*3 11.23 C 6.14167 km/h
322 29-05-2019 09:00:00 12.225 C 8.68 g/m*3 12.23 C 4.40833 km/h
323 29-05-2019 10:00:00 13.83333 C 8.49 g/m*3 13.83 C 4.95 km/h
324 29-05-2019 11:00:00 15.09167 C 8.22 g/m*3 15.09 C 7.11667 km/h
325 29-05-2019 12:00:00 15.725 C 8.05 g/m*3 15.73 C 7.11667 km/h
Sensor: Nr:Datum:Temp:Abs-Feuchte:Windchill:Wind:
Aussen-T/F 326 29-05-2019 13:00:00 16.48333 C 7.59 g/m*3 16.48 C 7.38333 km/h
327 29-05-2019 14:00:00 17.40833 C 7.18 g/m*3 17.41 C 8.05 km/h
328 29-05-2019 15:00:00 18.99167 C 7.17 g/m*3 18.99 C 7.65 km/h
329 29-05-2019 16:00:00 20.91667 C 6.91 g/m*3 20.92 C 6.16667 km/h
330 29-05-2019 17:00:00 22.38333 C 6.94 g/m*3 22.38 C 6.98333 km/h
331 29-05-2019 18:00:00 22.1 C 7.4 g/m*3 22.1 C 6.71667 km/h
332 29-05-2019 19:00:00 21.55 C 8.49 g/m*3 21.55 C 3.33333 km/h
333 29-05-2019 20:00:00 18.66667 C 9.84 g/m*3 18.67 C 0 km/h
334 29-05-2019 21:00:00 15.49167 C 8.91 g/m*3 15.49 C 0.13333 km/h
335 29-05-2019 22:00:00 13.29167 C 8.95 g/m*3 13.29 C 0 km/h
336 29-05-2019 23:00:00 12.91667 C 8.94 g/m*3 12.92 C 0 km/h
337 30-05-2019 00:00:00 12.05833 C 8.69 g/m*3 12.06 C 0 km/h
338 30-05-2019 01:00:00 11.44167 C 8.69 g/m*3 11.44 C 0 km/h
339 30-05-2019 02:00:00 10.88333 C 8.56 g/m*3 10.88 C 0.66667 km/h
340 30-05-2019 03:00:00 9.95 C 8.3 g/m*3 9.95 C 0 km/h
341 30-05-2019 04:00:00 9.56667 C 8.28 g/m*3 9.57 C 0 km/h
342 30-05-2019 05:00:00 9.1 C 8.16 g/m*3 9.1 C 0 km/h
343 30-05-2019 06:00:00 9.71667 C 8.63 g/m*3 9.72 C 0.13333 km/h
344 30-05-2019 07:00:00 10.925 C 9.11 g/m*3 10.93 C 1.46667 km/h
345 30-05-2019 08:00:00 12.375 C 9.37 g/m*3 12.38 C 3.20833 km/h
346 30-05-2019 09:00:00 14.10833 C 9.89 g/m*3 14.11 C 2.13333 km/h
347 30-05-2019 10:00:00 16.09167 C 10.45 g/m*3 16.09 C 4.00833 km/h
348 30-05-2019 11:00:00 18.18333 C 10.16 g/m*3 18.18 C 10.63333 km/h
349 30-05-2019 12:00:00 18.2 C 10.18 g/m*3 18.2 C 6.98333 km/h
350 30-05-2019 13:00:00 18.23333 C 10.91 g/m*3 18.23 C 2.8 km/h
Sensor: Nr:Datum:Temp:Abs-Feuchte:Windchill:Wind:
Aussen-T/F 351 30-05-2019 14:00:00 19.425 C 11.22 g/m*3 19.43 C 10.35 km/h
352 30-05-2019 15:00:00 21.175 C 11.91 g/m*3 21.18 C 15.83333 km/h
353 30-05-2019 16:00:00 21.95833 C 12.18 g/m*3 21.96 C 14.23333 km/h
354 30-05-2019 17:00:00 21.625 C 12.3 g/m*3 21.63 C 13.7 km/h
355 30-05-2019 18:00:00 20.95833 C 12.4 g/m*3 20.96 C 10.625 km/h
356 30-05-2019 19:00:00 19.95 C 12.41 g/m*3 19.95 C 6.175 km/h
357 30-05-2019 20:00:00 18.94167 C 12.53 g/m*3 18.94 C 1.06667 km/h
358 30-05-2019 21:00:00 17.675 C 12.33 g/m*3 17.68 C 0.13333 km/h
359 30-05-2019 22:00:00 16.54167 C 12.06 g/m*3 16.54 C 0 km/h
360 30-05-2019 23:00:00 15.89167 C 11.91 g/m*3 15.89 C 0 km/h
361 31-05-2019 00:00:00 15.65 C 11.99 g/m*3 15.65 C 0.66667 km/h
362 31-05-2019 01:00:00 15.61667 C 12.09 g/m*3 15.62 C 1.33333 km/h
363 31-05-2019 02:00:00 15.46667 C 11.98 g/m*3 15.47 C 1.2 km/h
364 31-05-2019 03:00:00 14.41667 C 11.39 g/m*3 14.42 C 1.33333 km/h
365 31-05-2019 04:00:00 13.56667 C 10.95 g/m*3 13.57 C 0 km/h
366 31-05-2019 05:00:00 12.83333 C 10.61 g/m*3 12.83 C 0 km/h
367 31-05-2019 06:00:00 12.75 C 10.61 g/m*3 12.75 C 0 km/h
368 31-05-2019 07:00:00 13.1 C 10.95 g/m*3 13.1 C 0 km/h
369 31-05-2019 08:00:00 14.175 C 11.67 g/m*3 14.18 C 0 km/h
370 31-05-2019 09:00:00 16.24167 C 12.15 g/m*3 16.24 C 6.03333 km/h
371 31-05-2019 10:00:00 18.69167 C 11.94 g/m*3 18.69 C 6.71667 km/h
372 31-05-2019 11:00:00 20.225 C 11.95 g/m*3 20.23 C 6.84167 km/h
373 31-05-2019 12:00:00 21.375 C 12.23 g/m*3 21.38 C 9.025 km/h
374 31-05-2019 13:00:00 22.725 C 12.22 g/m*3 22.73 C 10.23333 km/h
375 31-05-2019 14:00:00 23.925 C 12.02 g/m*3 23.93 C 12.1 km/h
Sensor: Nr:Datum:Temp:Abs-Feuchte:Windchill:Wind:
Aussen-T/F 376 31-05-2019 15:00:00 25.28333 C 12.06 g/m*3 25.28 C 11.025 km/h
377 31-05-2019 16:00:00 27.3 C 11.82 g/m*3 27.3 C 9.81667 km/h
378 31-05-2019 17:00:00 27.50833 C 11.82 g/m*3 27.51 C 9.54167 km/h
379 31-05-2019 18:00:00 27.58333 C 11.45 g/m*3 27.58 C 7.51667 km/h
380 31-05-2019 19:00:00 25.63333 C 12.3 g/m*3 25.63 C 2.54167 km/h
381 31-05-2019 20:00:00 23.64167 C 12.51 g/m*3 23.64 C 2 km/h
382 31-05-2019 21:00:00 20.09167 C 12.47 g/m*3 20.09 C 0 km/h
383 31-05-2019 22:00:00 17.725 C 11.89 g/m*3 17.73 C 0 km/h
384 31-05-2019 23:00:00 15.91667 C 11.53 g/m*3 15.92 C 0 km/h
385 01-06-2019 00:00:00 14.65 C 11.15 g/m*3 14.65 C 0 km/h
386 01-06-2019 01:00:00 13.91667 C 10.99 g/m*3 13.92 C 0 km/h
387 01-06-2019 02:00:00 13.325 C 10.72 g/m*3 13.33 C 0 km/h
388 01-06-2019 03:00:00 12.83333 C 10.52 g/m*3 12.83 C 0 km/h
389 01-06-2019 04:00:00 12.2 C 10.14 g/m*3 12.2 C 0.13333 km/h
390 01-06-2019 05:00:00 11.75833 C 9.96 g/m*3 11.76 C 0.13333 km/h
391 01-06-2019 06:00:00 11.825 C 10.05 g/m*3 11.83 C 0.4 km/h
392 01-06-2019 07:00:00 12.61667 C 10.63 g/m*3 12.62 C 2.26667 km/h
393 01-06-2019 08:00:00 13.875 C 11.34 g/m*3 13.88 C 1.6 km/h
394 01-06-2019 09:00:00 15.45 C 12.08 g/m*3 15.45 C 1.06667 km/h
395 01-06-2019 10:00:00 18.14167 C 13.09 g/m*3 18.14 C 0.4 km/h
396 01-06-2019 11:00:00 20.91667 C 13.13 g/m*3 20.92 C 4.95833 km/h
397 01-06-2019 12:00:00 23.01667 C 13.12 g/m*3 23.02 C 10.1 km/h
398 01-06-2019 13:00:00 24.31667 C 13.14 g/m*3 24.32 C 9.29167 km/h
399 01-06-2019 14:00:00 25.51667 C 13.19 g/m*3 25.52 C 9.01667 km/h
400 01-06-2019 15:00:00 27.83333 C 13.34 g/m*3 27.83 C 9.14167 km/h
Sensor: Nr:Datum:Temp:Abs-Feuchte:Windchill:Wind:
Aussen-T/F 401 01-06-2019 16:00:00 29.975 C 13.22 g/m*3 29.98 C 7.925 km/h
402 01-06-2019 17:00:00 30.09167 C 12.85 g/m*3 30.09 C 6.98333 km/h
403 01-06-2019 18:00:00 30.23333 C 13.31 g/m*3 30.23 C 5.225 km/h
404 01-06-2019 19:00:00 29.675 C 15.12 g/m*3 29.68 C 2.66667 km/h
405 01-06-2019 20:00:00 26.65833 C 14.88 g/m*3 26.66 C 0.26667 km/h
406 01-06-2019 21:00:00 22.7 C 13.74 g/m*3 22.7 C 0 km/h
407 01-06-2019 22:00:00 20.00833 C 13.16 g/m*3 20.01 C 0 km/h
408 01-06-2019 23:00:00 18.20833 C 12.79 g/m*3 18.21 C 0 km/h
409 02-06-2019 00:00:00 16.75833 C 12.34 g/m*3 16.76 C 0 km/h
410 02-06-2019 01:00:00 15.66667 C 11.93 g/m*3 15.67 C 0 km/h
411 02-06-2019 02:00:00 14.925 C 11.71 g/m*3 14.93 C 0 km/h
412 02-06-2019 03:00:00 14.325 C 11.44 g/m*3 14.33 C 0 km/h
413 02-06-2019 04:00:00 13.81667 C 11.2 g/m*3 13.82 C 0 km/h
414 02-06-2019 05:00:00 13.29167 C 10.92 g/m*3 13.29 C 0 km/h
415 02-06-2019 06:00:00 13.40833 C 11.09 g/m*3 13.41 C 0 km/h
416 02-06-2019 07:00:00 13.95833 C 11.54 g/m*3 13.96 C 0.26667 km/h
417 02-06-2019 08:00:00 15.03333 C 12.33 g/m*3 15.03 C 0.13333 km/h
418 02-06-2019 09:00:00 16.60833 C 13.56 g/m*3 16.61 C 0 km/h
419 02-06-2019 10:00:00 19.64167 C 15.01 g/m*3 19.64 C 0 km/h
420 02-06-2019 11:00:00 23.11667 C 15.97 g/m*3 23.12 C 0.53333 km/h
421 02-06-2019 12:00:00 26.66667 C 14.61 g/m*3 26.67 C 1.46667 km/h
422 02-06-2019 13:00:00 27.96667 C 12.58 g/m*3 27.97 C 10.35 km/h
423 02-06-2019 14:00:00 29.1 C 13.16 g/m*3 29.1 C 10.75833 km/h
424 02-06-2019 15:00:00 31.04167 C 13.6 g/m*3 31.04 C 10.35833 km/h
425 02-06-2019 16:00:00 32.76667 C 13.1 g/m*3 32.77 C 11.01667 km/h
Sensor: Nr:Datum:Temp:Abs-Feuchte:Windchill:Wind:
Aussen-T/F 426 02-06-2019 17:00:00 33.1 C 13.33 g/m*3 33.1 C 8.2 km/h
427 02-06-2019 18:00:00 33 C 13.5 g/m*3 33 C 6.84167 km/h
428 02-06-2019 19:00:00 32.23333 C 13.67 g/m*3 32.23 C 2.675 km/h
429 02-06-2019 20:00:00 28.7 C 13.99 g/m*3 28.7 C 1.2 km/h
430 02-06-2019 21:00:00 24.375 C 12.96 g/m*3 24.38 C 0.8 km/h
431 02-06-2019 22:00:00 21.35833 C 12.7 g/m*3 21.36 C 0.4 km/h
432 02-06-2019 23:00:00 19.30833 C 12.42 g/m*3 19.31 C 0 km/h
433 03-06-2019 00:00:00 17.75833 C 12.09 g/m*3 17.76 C 0 km/h
434 03-06-2019 01:00:00 16.825 C 11.79 g/m*3 16.83 C 0 km/h
435 03-06-2019 02:00:00 16.15 C 11.67 g/m*3 16.15 C 0 km/h
436 03-06-2019 03:00:00 15.51667 C 11.59 g/m*3 15.52 C 0 km/h
437 03-06-2019 04:00:00 14.84167 C 11.42 g/m*3 14.84 C 0 km/h
438 03-06-2019 05:00:00 14.775 C 11.62 g/m*3 14.78 C 0 km/h
439 03-06-2019 06:00:00 15.23333 C 11.97 g/m*3 15.23 C 0 km/h
440 03-06-2019 07:00:00 16.11667 C 12.57 g/m*3 16.12 C 0 km/h
441 03-06-2019 08:00:00 17.63333 C 13.32 g/m*3 17.63 C 0 km/h
442 03-06-2019 09:00:00 20.30833 C 15 g/m*3 20.31 C 0 km/h
443 03-06-2019 10:00:00 21.325 C 16.16 g/m*3 21.33 C 0 km/h
444 03-06-2019 11:00:00 23.475 C 15.75 g/m*3 23.48 C 3.20833 km/h
445 03-06-2019 12:00:00 26.39167 C 14.87 g/m*3 26.39 C 9.41667 km/h
446 03-06-2019 13:00:00 27.69167 C 14.1 g/m*3 27.69 C 12.75833 km/h
447 03-06-2019 14:00:00 28.44167 C 11.28 g/m*3 28.44 C 16.5 km/h
448 03-06-2019 15:00:00 29.40833 C 10.28 g/m*3 29.41 C 15.83333 km/h
449 03-06-2019 16:00:00 26.71667 C 11.68 g/m*3 26.72 C 5.36667 km/h
450 03-06-2019 17:00:00 25.15833 C 13.45 g/m*3 25.16 C 9.29167 km/h
Sensor: Nr:Datum:Temp:Abs-Feuchte:Windchill:Wind:
Aussen-T/F 451 03-06-2019 18:00:00 23.71667 C 13.68 g/m*3 23.72 C 8.75 km/h
452 03-06-2019 19:00:00 22.66667 C 13.73 g/m*3 22.67 C 1.73333 km/h
453 03-06-2019 20:00:00 22.29167 C 13.82 g/m*3 22.29 C 1.46667 km/h
454 03-06-2019 21:00:00 20.63333 C 13.37 g/m*3 20.63 C 0 km/h
455 03-06-2019 22:00:00 19.40833 C 12.98 g/m*3 19.41 C 0 km/h
456 03-06-2019 23:00:00 18.06667 C 12.58 g/m*3 18.07 C 0 km/h
457 04-06-2019 00:00:00 16.71667 C 12.31 g/m*3 16.72 C 0 km/h
458 04-06-2019 01:00:00 15.84167 C 12.11 g/m*3 15.84 C 0 km/h
459 04-06-2019 02:00:00 15.15 C 11.88 g/m*3 15.15 C 0 km/h
460 04-06-2019 03:00:00 14.41667 C 11.5 g/m*3 14.42 C 0 km/h
461 04-06-2019 04:00:00 13.65833 C 11.04 g/m*3 13.66 C 0 km/h
462 04-06-2019 05:00:00 13.2 C 10.82 g/m*3 13.2 C 0.26667 km/h
463 04-06-2019 06:00:00 13.275 C 10.98 g/m*3 13.28 C 0.13333 km/h
464 04-06-2019 07:00:00 14.525 C 11.83 g/m*3 14.53 C 0 km/h
465 04-06-2019 08:00:00 16.05 C 12.56 g/m*3 16.05 C 1.33333 km/h
466 04-06-2019 09:00:00 17.45 C 13.18 g/m*3 17.45 C 2.13333 km/h
467 04-06-2019 10:00:00 20.16667 C 13.73 g/m*3 20.17 C 7.65 km/h
468 04-06-2019 11:00:00 22.35833 C 14.08 g/m*3 22.36 C 10.1 km/h
469 04-06-2019 12:00:00 23.89167 C 14.74 g/m*3 23.89 C 9.28333 km/h
470 04-06-2019 13:00:00 25.74167 C 14.5 g/m*3 25.74 C 9.00833 km/h
471 04-06-2019 14:00:00 27.4 C 14.36 g/m*3 27.4 C 8.74167 km/h
472 04-06-2019 15:00:00 28.7 C 14.76 g/m*3 28.7 C 7.36667 km/h
473 04-06-2019 16:00:00 30.56667 C 15.5 g/m*3 30.57 C 7.93333 km/h
474 04-06-2019 17:00:00 31.925 C 14.93 g/m*3 31.93 C 7.375 km/h
475 04-06-2019 18:00:00 31.24167 C 15.37 g/m*3 31.24 C 6.175 km/h
Sensor: Nr:Datum:Temp:Abs-Feuchte:Windchill:Wind:
Aussen-T/F 476 04-06-2019 19:00:00 29.25 C 15.99 g/m*3 29.25 C 2.8 km/h
477 04-06-2019 20:00:00 26.51667 C 15.68 g/m*3 26.52 C 0.13333 km/h
478 04-06-2019 21:00:00 23.36667 C 14.2 g/m*3 23.37 C 0 km/h
479 04-06-2019 22:00:00 22.025 C 13.74 g/m*3 22.03 C 0.26667 km/h
480 04-06-2019 23:00:00 22.70833 C 13.11 g/m*3 22.71 C 4.275 km/h
481 05-06-2019 00:00:00 23.28333 C 13.16 g/m*3 23.28 C 3.48333 km/h
482 05-06-2019 01:00:00 21.33333 C 13.06 g/m*3 21.33 C 0 km/h
483 05-06-2019 02:00:00 20.575 C 13.25 g/m*3 20.58 C 0 km/h
484 05-06-2019 03:00:00 19.35 C 12.95 g/m*3 19.35 C 0 km/h
485 05-06-2019 04:00:00 18.80833 C 12.93 g/m*3 18.81 C 0.13333 km/h
486 05-06-2019 05:00:00 17.44167 C 12.46 g/m*3 17.44 C 2.15 km/h
487 05-06-2019 06:00:00 17.69167 C 12.86 g/m*3 17.69 C 3.475 km/h
488 05-06-2019 07:00:00 17.98333 C 13.29 g/m*3 17.98 C 0 km/h
489 05-06-2019 08:00:00 18.38333 C 13.83 g/m*3 18.38 C 0.26667 km/h
490 05-06-2019 09:00:00 21.025 C 14.02 g/m*3 21.03 C 6.575 km/h
491 05-06-2019 10:00:00 22.73333 C 14.29 g/m*3 22.73 C 3.73333 km/h
492 05-06-2019 11:00:00 23.64167 C 14.14 g/m*3 23.64 C 3.46667 km/h
493 05-06-2019 12:00:00 24.34167 C 14.03 g/m*3 24.34 C 4.81667 km/h
494 05-06-2019 13:00:00 25.925 C 14.59 g/m*3 25.93 C 8.05833 km/h
495 05-06-2019 14:00:00 27.25833 C 14.64 g/m*3 27.26 C 11.16667 km/h
496 05-06-2019 15:00:00 29.5 C 14.63 g/m*3 29.5 C 9.41667 km/h
497 05-06-2019 16:00:00 31.35 C 13.61 g/m*3 31.35 C 6.575 km/h
498 05-06-2019 17:00:00 30.43333 C 14.51 g/m*3 30.43 C 3.46667 km/h
499 05-06-2019 18:00:00 28.60833 C 15.79 g/m*3 28.61 C 0 km/h
500 05-06-2019 19:00:00 29.73333 C 16.34 g/m*3 29.73 C 0 km/h
Sensor: Nr:Datum:Temp:Abs-Feuchte:Windchill:Wind:
Aussen-T/F 501 05-06-2019 20:00:00 27.55833 C 15.02 g/m*3 27.56 C 0 km/h
502 05-06-2019 21:00:00 23.44167 C 14.4 g/m*3 23.44 C 0 km/h
503 05-06-2019 22:00:00 21.625 C 14.37 g/m*3 21.63 C 0 km/h
504 05-06-2019 23:00:00 20.83333 C 14.01 g/m*3 20.83 C 0 km/h
505 06-06-2019 00:00:00 21.575 C 13.11 g/m*3 21.58 C 15.69167 km/h
506 06-06-2019 01:00:00 18.925 C 13.24 g/m*3 18.93 C 8.85 km/h
507 06-06-2019 02:00:00 17.10833 C 13.39 g/m*3 17.11 C 0.8 km/h
508 06-06-2019 03:00:00 16.70833 C 13.32 g/m*3 16.71 C 0.8 km/h
509 06-06-2019 04:00:00 16.48333 C 13.27 g/m*3 16.48 C 0.66667 km/h
510 06-06-2019 05:00:00 15.51667 C 12.39 g/m*3 15.52 C 12.89167 km/h
511 06-06-2019 06:00:00 13.94167 C 11.1 g/m*3 13.94 C 14.36667 km/h
512 06-06-2019 07:00:00 13.19167 C 10.29 g/m*3 13.19 C 11.29167 km/h
513 06-06-2019 08:00:00 13.325 C 9.79 g/m*3 13.33 C 14.75833 km/h
514 06-06-2019 09:00:00 13.10833 C 9.27 g/m*3 13.11 C 10.06667 km/h
515 06-06-2019 10:00:00 13.80833 C 9.54 g/m*3 13.81 C 7.65 km/h
516 06-06-2019 11:00:00 14.93333 C 9.64 g/m*3 14.93 C 8.6 km/h
517 06-06-2019 12:00:00 15.40833 C 9.63 g/m*3 15.41 C 11.3 km/h
518 06-06-2019 13:00:00 16.49167 C 9.73 g/m*3 16.49 C 13.03333 km/h
519 06-06-2019 14:00:00 17.025 C 9.88 g/m*3 17.02 C 11.29167 km/h
520 06-06-2019 15:00:00 17.75833 C 10.06 g/m*3 17.76 C 12.76667 km/h
521 06-06-2019 16:00:00 18 C 10.06 g/m*3 18 C 11.56667 km/h
522 06-06-2019 17:00:00 16.73333 C 9.85 g/m*3 16.73 C 9.4 km/h
523 06-06-2019 18:00:00 16.975 C 10.1 g/m*3 16.98 C 9.55 km/h
524 06-06-2019 19:00:00 18.26667 C 9.92 g/m*3 18.27 C 9.425 km/h
525 06-06-2019 20:00:00 17.725 C 9.87 g/m*3 17.73 C 4.41667 km/h
Sensor: Nr:Datum:Temp:Abs-Feuchte:Windchill:Wind:
Aussen-T/F 526 06-06-2019 21:00:00 15.43333 C 9.93 g/m*3 15.43 C 0 km/h
527 06-06-2019 22:00:00 12.75 C 9.36 g/m*3 12.75 C 0 km/h
528 06-06-2019 23:00:00 11.43333 C 9 g/m*3 11.43 C 0 km/h
529 07-06-2019 00:00:00 10.475 C 8.76 g/m*3 10.48 C 0 km/h
530 07-06-2019 01:00:00 9.875 C 8.59 g/m*3 9.88 C 0 km/h
531 07-06-2019 02:00:00 9.425 C 8.43 g/m*3 9.43 C 0 km/h
532 07-06-2019 03:00:00 9.56667 C 8.64 g/m*3 9.57 C 0 km/h
533 07-06-2019 04:00:00 10.13333 C 8.97 g/m*3 10.13 C 0 km/h
534 07-06-2019 05:00:00 9.23333 C 8.44 g/m*3 9.23 C 0 km/h
535 07-06-2019 06:00:00 9.60833 C 8.78 g/m*3 9.61 C 0 km/h
536 07-06-2019 07:00:00 10.38333 C 9.24 g/m*3 10.38 C 1.06667 km/h
537 07-06-2019 08:00:00 11.86667 C 9.78 g/m*3 11.87 C 7.64167 km/h
538 07-06-2019 09:00:00 13.75833 C 10 g/m*3 13.76 C 11.29167 km/h
539 07-06-2019 10:00:00 16.65 C 10.74 g/m*3 16.65 C 8.85833 km/h
540 07-06-2019 11:00:00 18.75833 C 10.52 g/m*3 18.76 C 9.81667 km/h
541 07-06-2019 12:00:00 19.9 C 10.9 g/m*3 19.9 C 9.55833 km/h
542 07-06-2019 13:00:00 20.89167 C 11.71 g/m*3 20.89 C 6.84167 km/h
543 07-06-2019 14:00:00 21.09167 C 12.55 g/m*3 21.09 C 4.56667 km/h
544 07-06-2019 15:00:00 24.175 C 12.56 g/m*3 24.18 C 9.41667 km/h
545 07-06-2019 16:00:00 25.96667 C 12.29 g/m*3 25.97 C 7.8 km/h
546 07-06-2019 17:00:00 25.36667 C 13.61 g/m*3 25.37 C 4.95833 km/h
547 07-06-2019 18:00:00 21.74167 C 11.2 g/m*3 21.74 C 25.73333 km/h
548 07-06-2019 19:00:00 17.18333 C 9.17 g/m*3 17.18 C 22.13333 km/h
549 07-06-2019 20:00:00 15.41667 C 9.43 g/m*3 15.42 C 13.68333 km/h
550 07-06-2019 21:00:00 14.95 C 9.32 g/m*3 14.95 C 3.86667 km/h
Sensor: Nr:Datum:Temp:Abs-Feuchte:Windchill:Wind:
Aussen-T/F 551 07-06-2019 22:00:00 14.8 C 8.85 g/m*3 14.8 C 2.80833 km/h
552 07-06-2019 23:00:00 15.125 C 8.59 g/m*3 15.13 C 5.89167 km/h
553 08-06-2019 00:00:00 15.46667 C 8.76 g/m*3 15.47 C 10.35 km/h
554 08-06-2019 01:00:00 15.61667 C 8.69 g/m*3 15.62 C 13.3 km/h
555 08-06-2019 02:00:00 15.34167 C 8.78 g/m*3 15.34 C 8.45 km/h
556 08-06-2019 03:00:00 15.06667 C 8.63 g/m*3 15.07 C 8.05833 km/h
557 08-06-2019 04:00:00 14.86667 C 8.14 g/m*3 14.87 C 12.88333 km/h
558 08-06-2019 05:00:00 14.10833 C 7.69 g/m*3 14.11 C 15.69167 km/h
559 08-06-2019 06:00:00 13.325 C 7.72 g/m*3 13.33 C 15.825 km/h
560 08-06-2019 07:00:00 13.69167 C 7.75 g/m*3 13.69 C 19.43333 km/h
561 08-06-2019 08:00:00 14.29167 C 8.02 g/m*3 14.29 C 17.96667 km/h
562 08-06-2019 09:00:00 14.575 C 8.26 g/m*3 14.58 C 12.35833 km/h
563 08-06-2019 10:00:00 14.90833 C 8.49 g/m*3 14.91 C 14.225 km/h
564 08-06-2019 11:00:00 15.70833 C 8.59 g/m*3 15.71 C 12.89167 km/h
565 08-06-2019 12:00:00 16.525 C 8.65 g/m*3 16.52 C 14.23333 km/h
566 08-06-2019 13:00:00 17.38333 C 8.54 g/m*3 17.38 C 17.56667 km/h
567 08-06-2019 14:00:00 18.325 C 8.73 g/m*3 18.33 C 15.03333 km/h
568 08-06-2019 15:00:00 19.15 C 8.63 g/m*3 19.15 C 15.16667 km/h
569 08-06-2019 16:00:00 19.65833 C 8.61 g/m*3 19.66 C 15.03333 km/h
570 08-06-2019 17:00:00 19.925 C 8.52 g/m*3 19.93 C 14.9 km/h
571 08-06-2019 18:00:00 19.95833 C 8.52 g/m*3 19.96 C 12.475 km/h
572 08-06-2019 19:00:00 18.98333 C 8.87 g/m*3 18.98 C 13.16667 km/h
573 08-06-2019 20:00:00 17.61667 C 9.35 g/m*3 17.62 C 2.275 km/h
574 08-06-2019 21:00:00 16.11667 C 9.6 g/m*3 16.12 C 2.675 km/h
575 08-06-2019 22:00:00 14.39167 C 9.21 g/m*3 14.39 C 0.66667 km/h
Sensor: Nr:Datum:Temp:Abs-Feuchte:Windchill:Wind:
Aussen-T/F 576 08-06-2019 23:00:00 12.65833 C 8.95 g/m*3 12.66 C 0.8 km/h
577 09-06-2019 00:00:00 11.66667 C 8.84 g/m*3 11.67 C 0.26667 km/h
578 09-06-2019 01:00:00 11.08333 C 8.75 g/m*3 11.08 C 2.13333 km/h
579 09-06-2019 02:00:00 10.925 C 8.7 g/m*3 10.93 C 1.46667 km/h
580 09-06-2019 03:00:00 10.28333 C 8.52 g/m*3 10.28 C 0 km/h
581 09-06-2019 04:00:00 9.4 C 8.17 g/m*3 9.4 C 0 km/h
582 09-06-2019 05:00:00 8.675 C 7.97 g/m*3 8.68 C 0 km/h
583 09-06-2019 06:00:00 8.63333 C 8.04 g/m*3 8.63 C 0 km/h
584 09-06-2019 07:00:00 9.68333 C 8.7 g/m*3 9.68 C 0.13333 km/h
585 09-06-2019 08:00:00 11.03333 C 9.45 g/m*3 11.03 C 0 km/h
586 09-06-2019 09:00:00 12.80833 C 10.18 g/m*3 12.81 C 0 km/h
587 09-06-2019 10:00:00 16.55 C 10.28 g/m*3 16.55 C 4.43333 km/h
588 09-06-2019 11:00:00 18.86667 C 9.31 g/m*3 18.87 C 5.75833 km/h
589 09-06-2019 12:00:00 19.76667 C 9.15 g/m*3 19.77 C 7.925 km/h
590 09-06-2019 13:00:00 20.71667 C 9.31 g/m*3 20.72 C 10.75 km/h
591 09-06-2019 14:00:00 21.925 C 9.76 g/m*3 21.93 C 9.13333 km/h
592 09-06-2019 15:00:00 22.45833 C 10.03 g/m*3 22.46 C 9.425 km/h
593 09-06-2019 16:00:00 22.79167 C 10.29 g/m*3 22.79 C 9.14167 km/h
594 09-06-2019 17:00:00 22.7 C 10.42 g/m*3 22.7 C 7.65833 km/h
595 09-06-2019 18:00:00 23.09167 C 10.42 g/m*3 23.09 C 9.95 km/h
596 09-06-2019 19:00:00 21.64167 C 12.07 g/m*3 21.64 C 0 km/h
597 09-06-2019 20:00:00 19.74167 C 11.76 g/m*3 19.74 C 0 km/h
598 09-06-2019 21:00:00 18.86667 C 11.67 g/m*3 18.87 C 0 km/h
599 09-06-2019 22:00:00 18.36667 C 11.71 g/m*3 18.37 C 0 km/h
600 09-06-2019 23:00:00 17.95 C 11.66 g/m*3 17.95 C 0 km/h
Sensor: Nr:Datum:Temp:Abs-Feuchte:Windchill:Wind:
Aussen-T/F 601 10-06-2019 00:00:00 17.525 C 11.62 g/m*3 17.52 C 0 km/h
602 10-06-2019 01:00:00 16.95833 C 11.21 g/m*3 16.96 C 0 km/h
603 10-06-2019 02:00:00 16.08333 C 10.92 g/m*3 16.08 C 0 km/h
604 10-06-2019 03:00:00 14.94167 C 10.83 g/m*3 14.94 C 0 km/h
605 10-06-2019 04:00:00 14.625 C 10.84 g/m*3 14.63 C 0.675 km/h
606 10-06-2019 05:00:00 14.775 C 11.07 g/m*3 14.78 C 0.4 km/h
607 10-06-2019 06:00:00 14.825 C 11.23 g/m*3 14.83 C 0 km/h
608 10-06-2019 07:00:00 15.5 C 11.56 g/m*3 15.5 C 2.13333 km/h
609 10-06-2019 08:00:00 17.725 C 12.13 g/m*3 17.73 C 3.34167 km/h
610 10-06-2019 09:00:00 18.94167 C 12.32 g/m*3 18.94 C 9.83333 km/h
611 10-06-2019 10:00:00 19.85 C 12.53 g/m*3 19.85 C 8.34167 km/h
612 10-06-2019 11:00:00 21.15833 C 12.66 g/m*3 21.16 C 8.45833 km/h
613 10-06-2019 12:00:00 22.34167 C 12.6 g/m*3 22.34 C 6.45 km/h
614 10-06-2019 13:00:00 23.06667 C 12.71 g/m*3 23.07 C 5.9 km/h
615 10-06-2019 14:00:00 23.225 C 13.03 g/m*3 23.23 C 10.625 km/h
616 10-06-2019 15:00:00 23.225 C 13.1 g/m*3 23.23 C 8.34167 km/h
617 10-06-2019 16:00:00 24.06667 C 13.07 g/m*3 24.07 C 5.9 km/h
618 10-06-2019 17:00:00 23.65 C 12.96 g/m*3 23.65 C 3.6 km/h
619 10-06-2019 18:00:00 23.19167 C 12.87 g/m*3 23.19 C 6.70833 km/h
620 10-06-2019 19:00:00 21.7 C 12.34 g/m*3 21.7 C 5.09167 km/h
621 10-06-2019 20:00:00 20.61667 C 12.53 g/m*3 20.62 C 0.8 km/h
622 10-06-2019 21:00:00 19.38333 C 12.45 g/m*3 19.38 C 5.775 km/h
623 10-06-2019 22:00:00 17.975 C 12.19 g/m*3 17.98 C 6.575 km/h
624 10-06-2019 23:00:00 17.09167 C 12 g/m*3 17.09 C 2.8 km/h
625 11-06-2019 00:00:00 16.55833 C 12.05 g/m*3 16.56 C 3.075 km/h
Sensor: Nr:Datum:Temp:Abs-Feuchte:Windchill:Wind:
Aussen-T/F 626 11-06-2019 01:00:00 16.38333 C 12.11 g/m*3 16.38 C 4.14167 km/h
627 11-06-2019 02:00:00 16.15833 C 11.86 g/m*3 16.16 C 0.8 km/h
628 11-06-2019 03:00:00 15.29167 C 11.83 g/m*3 15.29 C 0.66667 km/h
629 11-06-2019 04:00:00 14.6 C 11.65 g/m*3 14.6 C 0.4 km/h
630 11-06-2019 05:00:00 14.21667 C 11.49 g/m*3 14.22 C 0 km/h
631 11-06-2019 06:00:00 14.15833 C 11.55 g/m*3 14.16 C 0 km/h
632 11-06-2019 07:00:00 14.5 C 11.86 g/m*3 14.5 C 0 km/h
633 11-06-2019 08:00:00 15.01667 C 12.27 g/m*3 15.02 C 0.26667 km/h
634 11-06-2019 09:00:00 15.34167 C 12.28 g/m*3 15.34 C 1.06667 km/h
635 11-06-2019 10:00:00 16.16667 C 12.49 g/m*3 16.17 C 1.20833 km/h
636 11-06-2019 11:00:00 16.925 C 12.28 g/m*3 16.93 C 2 km/h
637 11-06-2019 12:00:00 17.81667 C 11.94 g/m*3 17.82 C 2.26667 km/h
638 11-06-2019 13:00:00 19.09167 C 11.78 g/m*3 19.09 C 4.93333 km/h
639 11-06-2019 14:00:00 20.24167 C 11.58 g/m*3 20.24 C 5.09167 km/h
640 11-06-2019 15:00:00 21.31667 C 11.54 g/m*3 21.32 C 5.48333 km/h
641 11-06-2019 16:00:00 20.94167 C 12.14 g/m*3 20.94 C 1.6 km/h
642 11-06-2019 17:00:00 19.28333 C 13.15 g/m*3 19.28 C 0.13333 km/h
643 11-06-2019 18:00:00 18.75833 C 13.2 g/m*3 18.76 C 0.13333 km/h
644 11-06-2019 19:00:00 20.35 C 12.52 g/m*3 20.35 C 4.825 km/h
645 11-06-2019 20:00:00 19.19167 C 13.16 g/m*3 19.19 C 0 km/h
646 11-06-2019 21:00:00 17.76667 C 12.6 g/m*3 17.77 C 0 km/h
647 11-06-2019 22:00:00 16.79167 C 12.11 g/m*3 16.79 C 0 km/h
648 11-06-2019 23:00:00 15.70833 C 11.58 g/m*3 15.71 C 0.13333 km/h
649 12-06-2019 00:00:00 15.16667 C 11.27 g/m*3 15.17 C 0 km/h
650 12-06-2019 01:00:00 14.39167 C 10.98 g/m*3 14.39 C 0.4 km/h
Sensor: Nr:Datum:Temp:Abs-Feuchte:Windchill:Wind:
Aussen-T/F 651 12-06-2019 02:00:00 14.59167 C 11.26 g/m*3 14.59 C 0 km/h
652 12-06-2019 03:00:00 14.525 C 11.3 g/m*3 14.53 C 0 km/h
653 12-06-2019 04:00:00 14.39167 C 11.24 g/m*3 14.39 C 0 km/h
654 12-06-2019 05:00:00 14.125 C 11.15 g/m*3 14.13 C 0.26667 km/h
655 12-06-2019 06:00:00 13.95833 C 11.12 g/m*3 13.96 C 0.93333 km/h
656 12-06-2019 07:00:00 14.875 C 11.62 g/m*3 14.88 C 2.53333 km/h
657 12-06-2019 08:00:00 15.81667 C 11.95 g/m*3 15.82 C 3.075 km/h
658 12-06-2019 09:00:00 16.53333 C 12.08 g/m*3 16.53 C 5.23333 km/h
659 12-06-2019 10:00:00 15.15 C 11.89 g/m*3 15.15 C 7.65 km/h
660 12-06-2019 11:00:00 13.975 C 11.25 g/m*3 13.98 C 9.65833 km/h
661 12-06-2019 12:00:00 14.40833 C 11.75 g/m*3 14.41 C 1.875 km/h
662 12-06-2019 13:00:00 15.325 C 12.16 g/m*3 15.33 C 6.3 km/h
663 12-06-2019 14:00:00 17.175 C 12.27 g/m*3 17.18 C 10.46667 km/h
664 12-06-2019 15:00:00 18.2 C 12.11 g/m*3 18.2 C 10.21667 km/h
665 12-06-2019 16:00:00 20.125 C 11.59 g/m*3 20.13 C 10.76667 km/h
666 12-06-2019 17:00:00 21.81667 C 11.33 g/m*3 21.82 C 12.1 km/h
667 12-06-2019 18:00:00 22.64167 C 10.86 g/m*3 22.64 C 9.025 km/h
668 12-06-2019 19:00:00 21.925 C 10.26 g/m*3 21.93 C 10.5 km/h
669 12-06-2019 20:00:00 21.23333 C 11.67 g/m*3 21.23 C 1.20833 km/h
670 12-06-2019 21:00:00 17.83333 C 11.33 g/m*3 17.83 C 0 km/h
671 12-06-2019 22:00:00 14.38333 C 10.47 g/m*3 14.38 C 0 km/h
672 12-06-2019 23:00:00 13.15833 C 10.11 g/m*3 13.16 C 0 km/h
673 13-06-2019 00:00:00 12.55833 C 9.88 g/m*3 12.56 C 0 km/h
674 13-06-2019 01:00:00 11.68333 C 9.48 g/m*3 11.68 C 0 km/h
675 13-06-2019 02:00:00 10.9 C 9.19 g/m*3 10.9 C 0 km/h
Sensor: Nr:Datum:Temp:Abs-Feuchte:Windchill:Wind:
Aussen-T/F 676 13-06-2019 03:00:00 10.29167 C 8.96 g/m*3 10.29 C 0 km/h
677 13-06-2019 04:00:00 9.775 C 8.71 g/m*3 9.78 C 0 km/h
678 13-06-2019 05:00:00 9.45833 C 8.62 g/m*3 9.46 C 0 km/h
679 13-06-2019 06:00:00 9.50833 C 8.68 g/m*3 9.51 C 0 km/h
680 13-06-2019 07:00:00 10.31667 C 9.2 g/m*3 10.32 C 0.26667 km/h
681 13-06-2019 08:00:00 11.75 C 10.04 g/m*3 11.75 C 1.6 km/h
682 13-06-2019 09:00:00 15.15833 C 10.24 g/m*3 15.16 C 7.38333 km/h
683 13-06-2019 10:00:00 17.91667 C 9.95 g/m*3 17.92 C 10.075 km/h
684 13-06-2019 11:00:00 19.15 C 10 g/m*3 19.15 C 13.16667 km/h
685 13-06-2019 12:00:00 19.41667 C 9.52 g/m*3 19.42 C 11.825 km/h
686 13-06-2019 13:00:00 20.875 C 9.7 g/m*3 20.88 C 12.1 km/h
687 13-06-2019 14:00:00 21.26667 C 9.52 g/m*3 21.27 C 10.625 km/h
688 13-06-2019 15:00:00 22.13333 C 9.52 g/m*3 22.13 C 12.63333 km/h
689 13-06-2019 16:00:00 23.85833 C 9.12 g/m*3 23.86 C 16.23333 km/h
690 13-06-2019 17:00:00 24.41667 C 9.26 g/m*3 24.42 C 14.23333 km/h
691 13-06-2019 18:00:00 24.325 C 9.55 g/m*3 24.33 C 10.075 km/h
692 13-06-2019 19:00:00 20.40833 C 11.56 g/m*3 20.41 C 6.43333 km/h
693 13-06-2019 20:00:00 15.975 C 12.18 g/m*3 15.98 C 1.86667 km/h
694 13-06-2019 21:00:00 15.11667 C 11.49 g/m*3 15.12 C 0.13333 km/h
695 13-06-2019 22:00:00 13.21667 C 10.54 g/m*3 13.22 C 0 km/h
696 13-06-2019 23:00:00 12.78333 C 10.5 g/m*3 12.78 C 0 km/h
697 14-06-2019 00:00:00 12.06667 C 10.08 g/m*3 12.07 C 0 km/h
698 14-06-2019 01:00:00 11.73333 C 9.97 g/m*3 11.73 C 0 km/h
699 14-06-2019 02:00:00 12.16667 C 10.34 g/m*3 12.17 C 0.26667 km/h
700 14-06-2019 03:00:00 12.00833 C 10.24 g/m*3 12.01 C 0.93333 km/h
Sensor: Nr:Datum:Temp:Abs-Feuchte:Windchill:Wind:
Aussen-T/F 701 14-06-2019 04:00:00 11.59167 C 9.97 g/m*3 11.59 C 0.4 km/h
702 14-06-2019 05:00:00 11.41667 C 9.91 g/m*3 11.42 C 1.2 km/h
703 14-06-2019 06:00:00 11.33333 C 9.89 g/m*3 11.33 C 1.33333 km/h
704 14-06-2019 07:00:00 11.43333 C 9.98 g/m*3 11.43 C 0.66667 km/h
705 14-06-2019 08:00:00 12.15 C 10.43 g/m*3 12.15 C 0 km/h
706 14-06-2019 09:00:00 14.29167 C 12.01 g/m*3 14.29 C 0 km/h
707 14-06-2019 10:00:00 17.16667 C 14.32 g/m*3 17.17 C 0 km/h
708 14-06-2019 11:00:00 18.61667 C 15.29 g/m*3 18.62 C 0.53333 km/h
709 14-06-2019 12:00:00 21.65833 C 13.57 g/m*3 21.66 C 5.23333 km/h
710 14-06-2019 13:00:00 24.26667 C 12.72 g/m*3 24.27 C 7.525 km/h
711 14-06-2019 14:00:00 26 C 12.23 g/m*3 26 C 9.4 km/h
712 14-06-2019 15:00:00 26.35 C 12.58 g/m*3 26.35 C 5.625 km/h
713 14-06-2019 16:00:00 25.95 C 13.96 g/m*3 25.95 C 2.66667 km/h
714 14-06-2019 17:00:00 25.23333 C 15.34 g/m*3 25.23 C 2.00833 km/h
715 14-06-2019 18:00:00 24.49167 C 15.38 g/m*3 24.49 C 1.2 km/h
716 14-06-2019 19:00:00 22.55 C 14.87 g/m*3 22.55 C 0.4 km/h
717 14-06-2019 20:00:00 20.29167 C 13.77 g/m*3 20.29 C 1.06667 km/h
718 14-06-2019 21:00:00 19.08333 C 13.67 g/m*3 19.08 C 0.13333 km/h
719 14-06-2019 22:00:00 18.79167 C 13.48 g/m*3 18.79 C 0.53333 km/h
720 14-06-2019 23:00:00 18.6 C 13.77 g/m*3 18.6 C 0.8 km/h
721 15-06-2019 00:00:00 17.59167 C 13.73 g/m*3 17.59 C 0.66667 km/h
722 15-06-2019 01:00:00 16.49167 C 13.08 g/m*3 16.49 C 0 km/h
723 15-06-2019 02:00:00 15.68333 C 12.59 g/m*3 15.68 C 0 km/h
724 15-06-2019 03:00:00 15.16667 C 12.32 g/m*3 15.17 C 0 km/h
725 15-06-2019 04:00:00 15.14167 C 12.37 g/m*3 15.14 C 1.075 km/h
Sensor: Nr:Datum:Temp:Abs-Feuchte:Windchill:Wind:
Aussen-T/F 726 15-06-2019 05:00:00 15.01667 C 12.33 g/m*3 15.02 C 4.96667 km/h
727 15-06-2019 06:00:00 15.54167 C 12.78 g/m*3 15.54 C 2.54167 km/h
728 15-06-2019 07:00:00 16.175 C 13.36 g/m*3 16.18 C 0 km/h
729 15-06-2019 08:00:00 16.94167 C 13.9 g/m*3 16.94 C 6.575 km/h
730 15-06-2019 09:00:00 18.45833 C 14.19 g/m*3 18.46 C 12.76667 km/h
731 15-06-2019 10:00:00 19.93333 C 14.09 g/m*3 19.93 C 13.83333 km/h
732 15-06-2019 11:00:00 20.8 C 13.11 g/m*3 20.8 C 13.43333 km/h
733 15-06-2019 12:00:00 21.60833 C 13.2 g/m*3 21.61 C 10.75833 km/h
734 15-06-2019 13:00:00 21.28333 C 13.76 g/m*3 21.28 C 5.90833 km/h
735 15-06-2019 14:00:00 21.65833 C 13.99 g/m*3 21.66 C 6.71667 km/h
736 15-06-2019 15:00:00 22.11667 C 13.61 g/m*3 22.12 C 8.88333 km/h
737 15-06-2019 16:00:00 23.775 C 13.68 g/m*3 23.78 C 4.40833 km/h
738 15-06-2019 17:00:00 25.35833 C 12.86 g/m*3 25.36 C 7.78333 km/h
739 15-06-2019 18:00:00 26.24167 C 12.05 g/m*3 26.24 C 8.19167 km/h
740 15-06-2019 19:00:00 25.35833 C 12.7 g/m*3 25.36 C 4.29167 km/h
741 15-06-2019 20:00:00 23.43333 C 13.8 g/m*3 23.43 C 0.13333 km/h
742 15-06-2019 21:00:00 21.01667 C 13.03 g/m*3 21.02 C 0.13333 km/h
743 15-06-2019 22:00:00 18.48333 C 12.43 g/m*3 18.48 C 0.53333 km/h
744 15-06-2019 23:00:00 17.625 C 12.28 g/m*3 17.63 C 0.26667 km/h
745 16-06-2019 00:00:00 17.3 C 12.26 g/m*3 17.3 C 1.2 km/h
746 16-06-2019 01:00:00 17.4 C 12.31 g/m*3 17.4 C 1.06667 km/h
747 16-06-2019 02:00:00 17.19167 C 12.28 g/m*3 17.19 C 0.13333 km/h
748 16-06-2019 03:00:00 16.9 C 12.15 g/m*3 16.9 C 2 km/h
749 16-06-2019 04:00:00 17.08333 C 11.99 g/m*3 17.08 C 1.88333 km/h
750 16-06-2019 05:00:00 16.3 C 11.82 g/m*3 16.3 C 0.53333 km/h
Sensor: Nr:Datum:Temp:Abs-Feuchte:Windchill:Wind:
Aussen-T/F 751 16-06-2019 06:00:00 15.46667 C 11.8 g/m*3 15.47 C 0.66667 km/h
752 16-06-2019 07:00:00 15.55 C 12.11 g/m*3 15.55 C 0 km/h
753 16-06-2019 08:00:00 16.04167 C 12.26 g/m*3 16.04 C 0.8 km/h
754 16-06-2019 09:00:00 17.04167 C 11.79 g/m*3 17.04 C 3.46667 km/h
755 16-06-2019 10:00:00 19.3 C 11.57 g/m*3 19.3 C 5.08333 km/h
756 16-06-2019 11:00:00 20.84167 C 11.01 g/m*3 20.84 C 7.65833 km/h
757 16-06-2019 12:00:00 21.34167 C 11.06 g/m*3 21.34 C 10.225 km/h
758 16-06-2019 13:00:00 22.35 C 10.84 g/m*3 22.35 C 9.95833 km/h
759 16-06-2019 14:00:00 22.56667 C 11.21 g/m*3 22.57 C 10.36667 km/h
760 16-06-2019 15:00:00 23.03333 C 11.31 g/m*3 23.03 C 11.69167 km/h
761 16-06-2019 16:00:00 23.225 C 11.47 g/m*3 23.23 C 9.69167 km/h
762 16-06-2019 17:00:00 22.275 C 11.55 g/m*3 22.28 C 7.24167 km/h
763 16-06-2019 18:00:00 24.04167 C 11.29 g/m*3 24.04 C 6.725 km/h
764 16-06-2019 19:00:00 23.55 C 11.59 g/m*3 23.55 C 4.975 km/h
765 16-06-2019 20:00:00 22.61667 C 11.63 g/m*3 22.62 C 3.89167 km/h
766 16-06-2019 21:00:00 20.29167 C 11.91 g/m*3 20.29 C 0 km/h
767 16-06-2019 22:00:00 17.21667 C 11.23 g/m*3 17.22 C 0 km/h
768 16-06-2019 23:00:00 15.35 C 10.84 g/m*3 15.35 C 0 km/h
769 17-06-2019 00:00:00 14.14167 C 10.42 g/m*3 14.14 C 0 km/h
770 17-06-2019 01:00:00 13.31667 C 10.21 g/m*3 13.32 C 0 km/h
771 17-06-2019 02:00:00 12.625 C 10.02 g/m*3 12.63 C 0 km/h
772 17-06-2019 03:00:00 11.95833 C 9.76 g/m*3 11.96 C 0 km/h
773 17-06-2019 04:00:00 11.43333 C 9.57 g/m*3 11.43 C 0 km/h
774 17-06-2019 05:00:00 11.075 C 9.45 g/m*3 11.08 C 0 km/h
775 17-06-2019 06:00:00 11.08333 C 9.56 g/m*3 11.08 C 0 km/h
Sensor: Nr:Datum:Temp:Abs-Feuchte:Windchill:Wind:
Aussen-T/F 776 17-06-2019 07:00:00 11.575 C 9.88 g/m*3 11.58 C 0 km/h
777 17-06-2019 08:00:00 12.66667 C 10.66 g/m*3 12.67 C 0 km/h
778 17-06-2019 09:00:00 14.46667 C 11.77 g/m*3 14.47 C 0 km/h
779 17-06-2019 10:00:00 18.59167 C 13.06 g/m*3 18.59 C 1.875 km/h
780 17-06-2019 11:00:00 22.31667 C 12.45 g/m*3 22.32 C 6.15 km/h
781 17-06-2019 12:00:00 23.475 C 12.28 g/m*3 23.48 C 7.65 km/h
782 17-06-2019 13:00:00 24.45833 C 12.22 g/m*3 24.46 C 9.68333 km/h
783 17-06-2019 14:00:00 25.15833 C 11.79 g/m*3 25.16 C 7.94167 km/h
784 17-06-2019 15:00:00 25.26667 C 11.84 g/m*3 25.27 C 5.5 km/h
785 17-06-2019 16:00:00 26.71667 C 12.58 g/m*3 26.72 C 4.00833 km/h
786 17-06-2019 17:00:00 28.43333 C 11.74 g/m*3 28.43 C 6.15833 km/h
787 17-06-2019 18:00:00 27.90833 C 12.54 g/m*3 27.91 C 2.8 km/h
788 17-06-2019 19:00:00 27.64167 C 12.69 g/m*3 27.64 C 3.225 km/h
789 17-06-2019 20:00:00 23.58333 C 13 g/m*3 23.58 C 0 km/h
790 17-06-2019 21:00:00 20.78333 C 12.32 g/m*3 20.78 C 0 km/h
791 17-06-2019 22:00:00 18.73333 C 12.07 g/m*3 18.73 C 0 km/h
792 17-06-2019 23:00:00 17.06667 C 11.74 g/m*3 17.07 C 0 km/h
793 18-06-2019 00:00:00 15.86667 C 11.42 g/m*3 15.87 C 0 km/h
794 18-06-2019 01:00:00 15.09167 C 11.25 g/m*3 15.09 C 0 km/h
795 18-06-2019 02:00:00 14.43333 C 11.04 g/m*3 14.43 C 0 km/h
796 18-06-2019 03:00:00 13.8 C 10.88 g/m*3 13.8 C 0 km/h
797 18-06-2019 04:00:00 13.8 C 10.99 g/m*3 13.8 C 0 km/h
798 18-06-2019 05:00:00 13.625 C 10.89 g/m*3 13.63 C 0 km/h
799 18-06-2019 06:00:00 13.65 C 11.07 g/m*3 13.65 C 0.26667 km/h
800 18-06-2019 07:00:00 14.75 C 11.64 g/m*3 14.75 C 0.66667 km/h
Sensor: Nr:Datum:Temp:Abs-Feuchte:Windchill:Wind:
Aussen-T/F 801 18-06-2019 08:00:00 16.01667 C 12.27 g/m*3 16.02 C 0 km/h
802 18-06-2019 09:00:00 17.65 C 13.28 g/m*3 17.65 C 0.13333 km/h
803 18-06-2019 10:00:00 20.80833 C 14.92 g/m*3 20.81 C 0 km/h
804 18-06-2019 11:00:00 24.26667 C 14.98 g/m*3 24.27 C 3.35 km/h
805 18-06-2019 12:00:00 26.78333 C 13.71 g/m*3 26.78 C 4.825 km/h
806 18-06-2019 13:00:00 28.125 C 12.87 g/m*3 28.13 C 7.51667 km/h
807 18-06-2019 14:00:00 28.825 C 12.9 g/m*3 28.83 C 8.45833 km/h
808 18-06-2019 15:00:00 29.825 C 13.07 g/m*3 29.83 C 7.925 km/h
809 18-06-2019 16:00:00 29.575 C 13.66 g/m*3 29.58 C 3.34167 km/h
810 18-06-2019 17:00:00 29.48333 C 16.64 g/m*3 29.48 C 0.8 km/h
811 18-06-2019 18:00:00 29.725 C 16.48 g/m*3 29.73 C 0.4 km/h
812 18-06-2019 19:00:00 27.95 C 16.43 g/m*3 27.95 C 0 km/h
813 18-06-2019 20:00:00 26.03333 C 15.55 g/m*3 26.03 C 0 km/h
814 18-06-2019 21:00:00 23.73333 C 14.59 g/m*3 23.73 C 0 km/h
815 18-06-2019 22:00:00 21.45 C 14.02 g/m*3 21.45 C 0 km/h
816 18-06-2019 23:00:00 19.83333 C 13.62 g/m*3 19.83 C 0 km/h
817 19-06-2019 00:00:00 18.48333 C 13.21 g/m*3 18.48 C 0 km/h
818 19-06-2019 01:00:00 17.61667 C 13 g/m*3 17.62 C 0 km/h
819 19-06-2019 02:00:00 17.39167 C 13.08 g/m*3 17.39 C 0 km/h
820 19-06-2019 03:00:00 16.53333 C 12.64 g/m*3 16.53 C 0 km/h
821 19-06-2019 04:00:00 15.775 C 12.23 g/m*3 15.78 C 0 km/h
822 19-06-2019 05:00:00 15.19167 C 12.04 g/m*3 15.19 C 0 km/h
823 19-06-2019 06:00:00 14.99167 C 12 g/m*3 14.99 C 0 km/h
824 19-06-2019 07:00:00 15.425 C 12.48 g/m*3 15.43 C 0 km/h
825 19-06-2019 08:00:00 16.54167 C 13.37 g/m*3 16.54 C 0 km/h
Sensor: Nr:Datum:Temp:Abs-Feuchte:Windchill:Wind:
Aussen-T/F 826 19-06-2019 09:00:00 18.46667 C 14.82 g/m*3 18.47 C 0 km/h
827 19-06-2019 10:00:00 23.44167 C 15.47 g/m*3 23.44 C 6.04167 km/h
828 19-06-2019 11:00:00 26.775 C 13.75 g/m*3 26.78 C 12.08333 km/h
829 19-06-2019 12:00:00 26.475 C 14.89 g/m*3 26.48 C 4.3 km/h
830 19-06-2019 13:00:00 26 C 15.34 g/m*3 26 C 4.69167 km/h
831 19-06-2019 14:00:00 27.00833 C 13.78 g/m*3 27.01 C 9.39167 km/h
832 19-06-2019 15:00:00 27.25 C 14.83 g/m*3 27.25 C 11.68333 km/h
833 19-06-2019 16:00:00 29.925 C 14.7 g/m*3 29.93 C 8.2 km/h
834 19-06-2019 17:00:00 31.25833 C 13.39 g/m*3 31.26 C 7.39167 km/h
835 19-06-2019 18:00:00 28.4 C 15.73 g/m*3 28.4 C 0.26667 km/h
836 19-06-2019 19:00:00 28.94167 C 15.2 g/m*3 28.94 C 3.34167 km/h
837 19-06-2019 20:00:00 25.31667 C 15.31 g/m*3 25.32 C 0.53333 km/h
838 19-06-2019 21:00:00 23.275 C 14.79 g/m*3 23.28 C 0 km/h
839 19-06-2019 22:00:00 21.68333 C 14.1 g/m*3 21.68 C 0.8 km/h
840 19-06-2019 23:00:00 19.925 C 13.74 g/m*3 19.93 C 0 km/h
841 20-06-2019 00:00:00 18.75 C 13.38 g/m*3 18.75 C 0 km/h
842 20-06-2019 01:00:00 17.98333 C 13.23 g/m*3 17.98 C 0 km/h
843 20-06-2019 02:00:00 17.45833 C 13.2 g/m*3 17.46 C 0.13333 km/h
844 20-06-2019 03:00:00 17.7 C 13.5 g/m*3 17.7 C 1.73333 km/h
845 20-06-2019 04:00:00 17.31667 C 13.21 g/m*3 17.32 C 1.33333 km/h
846 20-06-2019 05:00:00 16.68333 C 12.97 g/m*3 16.68 C 0.26667 km/h
847 20-06-2019 06:00:00 16.85833 C 13.25 g/m*3 16.86 C 0.8 km/h
848 20-06-2019 07:00:00 17.73333 C 13.49 g/m*3 17.73 C 3.60833 km/h
849 20-06-2019 08:00:00 19.45 C 13.62 g/m*3 19.45 C 8.75 km/h
850 20-06-2019 09:00:00 20.2 C 13.27 g/m*3 20.2 C 11.7 km/h
Sensor: Nr:Datum:Temp:Abs-Feuchte:Windchill:Wind:
Aussen-T/F 851 20-06-2019 10:00:00 21.30833 C 13.19 g/m*3 21.31 C 13.3 km/h
852 20-06-2019 11:00:00 21.89167 C 13.49 g/m*3 21.89 C 12.23333 km/h
853 20-06-2019 12:00:00 22.65 C 13.4 g/m*3 22.65 C 13.3 km/h
854 20-06-2019 13:00:00 23.24167 C 13.49 g/m*3 23.24 C 9.41667 km/h
855 20-06-2019 14:00:00 24.61667 C 13.24 g/m*3 24.62 C 11.025 km/h
856 20-06-2019 15:00:00 21.45833 C 14.12 g/m*3 21.46 C 11.41667 km/h
857 20-06-2019 16:00:00 22.75 C 14.57 g/m*3 22.75 C 8.875 km/h
858 20-06-2019 17:00:00 21.25833 C 14.23 g/m*3 21.26 C 7.51667 km/h
859 20-06-2019 18:00:00 20 C 14.01 g/m*3 20 C 8.86667 km/h
860 20-06-2019 19:00:00 18.75833 C 13.15 g/m*3 18.76 C 3.75 km/h
861 20-06-2019 20:00:00 18.66667 C 13.16 g/m*3 18.67 C 0.53333 km/h
862 20-06-2019 21:00:00 18.21667 C 13.08 g/m*3 18.22 C 0 km/h
863 20-06-2019 22:00:00 16.9 C 12.51 g/m*3 16.9 C 0 km/h
864 20-06-2019 23:00:00 15.725 C 12.15 g/m*3 15.73 C 0 km/h
865 21-06-2019 00:00:00 15.5 C 12.36 g/m*3 15.5 C 0.4 km/h
866 21-06-2019 01:00:00 14.89167 C 11.85 g/m*3 14.89 C 0 km/h
867 21-06-2019 02:00:00 14.78333 C 11.94 g/m*3 14.78 C 0 km/h
868 21-06-2019 03:00:00 15.06667 C 12.13 g/m*3 15.07 C 0 km/h
869 21-06-2019 04:00:00 14.91667 C 12.01 g/m*3 14.92 C 0 km/h
870 21-06-2019 05:00:00 14.325 C 11.56 g/m*3 14.33 C 0 km/h
871 21-06-2019 06:00:00 14.175 C 11.39 g/m*3 14.18 C 0 km/h
872 21-06-2019 07:00:00 14.63333 C 11.62 g/m*3 14.63 C 0 km/h
873 21-06-2019 08:00:00 15.88333 C 10.74 g/m*3 15.88 C 5.225 km/h
874 21-06-2019 09:00:00 16.7 C 10.41 g/m*3 16.7 C 4.94167 km/h
875 21-06-2019 10:00:00 18.28333 C 10.39 g/m*3 18.28 C 6.44167 km/h
Sensor: Nr:Datum:Temp:Abs-Feuchte:Windchill:Wind:
Aussen-T/F 876 21-06-2019 11:00:00 19.45 C 10.21 g/m*3 19.45 C 4.26667 km/h
877 21-06-2019 12:00:00 20.10833 C 10.13 g/m*3 20.11 C 7.65833 km/h
878 21-06-2019 13:00:00 21.3 C 9.82 g/m*3 21.3 C 8.875 km/h
879 21-06-2019 14:00:00 22.03333 C 9.22 g/m*3 22.03 C 8.725 km/h
880 21-06-2019 15:00:00 22.6 C 9.29 g/m*3 22.6 C 6.975 km/h
881 21-06-2019 16:00:00 23.64167 C 9.22 g/m*3 23.64 C 6.85 km/h
882 21-06-2019 17:00:00 25.125 C 9.16 g/m*3 25.13 C 9.15833 km/h
883 21-06-2019 18:00:00 24.95833 C 9.07 g/m*3 24.96 C 12.48333 km/h
884 21-06-2019 19:00:00 23.63333 C 9.13 g/m*3 23.63 C 11.43333 km/h
885 21-06-2019 20:00:00 22.15 C 9.23 g/m*3 22.15 C 10.21667 km/h
886 21-06-2019 21:00:00 19.375 C 9.52 g/m*3 19.38 C 2.68333 km/h
887 21-06-2019 22:00:00 16.6 C 9.38 g/m*3 16.6 C 0 km/h
888 21-06-2019 23:00:00 15.23333 C 9.43 g/m*3 15.23 C 0 km/h
889 22-06-2019 00:00:00 13.71667 C 9.36 g/m*3 13.72 C 0 km/h
890 22-06-2019 01:00:00 13.01667 C 9.34 g/m*3 13.02 C 0 km/h
891 22-06-2019 02:00:00 12.10833 C 9.19 g/m*3 12.11 C 0 km/h
892 22-06-2019 03:00:00 11.5 C 9.14 g/m*3 11.5 C 0 km/h
893 22-06-2019 04:00:00 11.05833 C 9.08 g/m*3 11.06 C 0 km/h
894 22-06-2019 05:00:00 10.675 C 9 g/m*3 10.68 C 0 km/h
895 22-06-2019 06:00:00 10.70833 C 9.14 g/m*3 10.71 C 0 km/h
896 22-06-2019 07:00:00 11.80833 C 9.93 g/m*3 11.81 C 0 km/h
897 22-06-2019 08:00:00 13.84167 C 10.82 g/m*3 13.84 C 0.4 km/h
898 22-06-2019 09:00:00 16.275 C 11.06 g/m*3 16.27 C 1.06667 km/h
899 22-06-2019 10:00:00 19.475 C 11.26 g/m*3 19.48 C 6.29167 km/h
900 22-06-2019 11:00:00 21.21667 C 11.53 g/m*3 21.22 C 10.09167 km/h
Sensor: Nr:Datum:Temp:Abs-Feuchte:Windchill:Wind:
Aussen-T/F 901 22-06-2019 12:00:00 22.66667 C 12.02 g/m*3 22.67 C 9.55 km/h
902 22-06-2019 13:00:00 24.175 C 12.23 g/m*3 24.18 C 10.89167 km/h
903 22-06-2019 14:00:00 25.025 C 12.43 g/m*3 25.03 C 10.75 km/h
904 22-06-2019 15:00:00 25.59167 C 11.88 g/m*3 25.59 C 9.14167 km/h
905 22-06-2019 16:00:00 26.50833 C 11.81 g/m*3 26.51 C 6.70833 km/h
906 22-06-2019 17:00:00 26.26667 C 12.03 g/m*3 26.27 C 5.61667 km/h
907 22-06-2019 18:00:00 27.45 C 11.48 g/m*3 27.45 C 10.1 km/h
908 22-06-2019 19:00:00 27.53333 C 11.6 g/m*3 27.53 C 10.09167 km/h
909 22-06-2019 20:00:00 26.95 C 12.36 g/m*3 26.95 C 9.95833 km/h
910 22-06-2019 21:00:00 23.525 C 13.2 g/m*3 23.53 C 2.54167 km/h
911 22-06-2019 22:00:00 20.3 C 12.85 g/m*3 20.3 C 0.13333 km/h
912 22-06-2019 23:00:00 18.63333 C 12.65 g/m*3 18.63 C 0 km/h
913 23-06-2019 00:00:00 17.4 C 12.37 g/m*3 17.4 C 0 km/h
914 23-06-2019 01:00:00 16.33333 C 12.08 g/m*3 16.33 C 0 km/h
915 23-06-2019 02:00:00 15.64167 C 11.9 g/m*3 15.64 C 0 km/h
916 23-06-2019 03:00:00 14.98333 C 11.66 g/m*3 14.98 C 0 km/h
917 23-06-2019 04:00:00 14.53333 C 11.5 g/m*3 14.53 C 0 km/h
918 23-06-2019 05:00:00 14.075 C 11.31 g/m*3 14.08 C 0 km/h
919 23-06-2019 06:00:00 14.20833 C 11.5 g/m*3 14.21 C 0 km/h
920 23-06-2019 07:00:00 14.74167 C 11.98 g/m*3 14.74 C 0 km/h
921 23-06-2019 08:00:00 16.09167 C 12.96 g/m*3 16.09 C 0.26667 km/h
922 23-06-2019 09:00:00 18.65833 C 13.81 g/m*3 18.66 C 3.75833 km/h
923 23-06-2019 10:00:00 22.525 C 13.8 g/m*3 22.53 C 10.75833 km/h
924 23-06-2019 11:00:00 24.14167 C 14.11 g/m*3 24.14 C 11.29167 km/h
925 23-06-2019 12:00:00 25.21667 C 14.33 g/m*3 25.22 C 10.75833 km/h
Sensor: Nr:Datum:Temp:Abs-Feuchte:Windchill:Wind:
Aussen-T/F 926 23-06-2019 13:00:00 26.58333 C 14.08 g/m*3 26.58 C 10.48333 km/h
927 23-06-2019 14:00:00 27.84167 C 13.77 g/m*3 27.84 C 14.09167 km/h
928 23-06-2019 15:00:00 28.575 C 13.54 g/m*3 28.58 C 8.35833 km/h
929 23-06-2019 16:00:00 30.24167 C 13.26 g/m*3 30.24 C 10.20833 km/h
930 23-06-2019 17:00:00 30.6 C 13.52 g/m*3 30.6 C 9.94167 km/h
931 23-06-2019 18:00:00 30.3 C 13.61 g/m*3 30.3 C 7.375 km/h
932 23-06-2019 19:00:00 29.025 C 14.48 g/m*3 29.03 C 4.00833 km/h
933 23-06-2019 20:00:00 25.85833 C 14.98 g/m*3 25.86 C 0 km/h
934 23-06-2019 21:00:00 23.39167 C 14.22 g/m*3 23.39 C 0 km/h
935 23-06-2019 22:00:00 21.70833 C 13.8 g/m*3 21.71 C 0 km/h
936 23-06-2019 23:00:00 20.25 C 13.65 g/m*3 20.25 C 0 km/h
937 24-06-2019 00:00:00 19.11667 C 13.48 g/m*3 19.12 C 0 km/h
938 24-06-2019 01:00:00 18.43333 C 13.29 g/m*3 18.43 C 0 km/h
939 24-06-2019 02:00:00 17.54167 C 13.02 g/m*3 17.54 C 0 km/h
940 24-06-2019 03:00:00 16.95833 C 12.86 g/m*3 16.96 C 0 km/h
941 24-06-2019 04:00:00 16.55 C 12.77 g/m*3 16.55 C 0 km/h
942 24-06-2019 05:00:00 16.40833 C 12.86 g/m*3 16.41 C 0 km/h
943 24-06-2019 06:00:00 16.70833 C 13.21 g/m*3 16.71 C 0 km/h
944 24-06-2019 07:00:00 17.45 C 13.81 g/m*3 17.45 C 0 km/h
945 24-06-2019 08:00:00 18.55 C 14.56 g/m*3 18.55 C 0 km/h
946 24-06-2019 09:00:00 21.25833 C 15.74 g/m*3 21.26 C 3.74167 km/h
947 24-06-2019 10:00:00 25.475 C 15.86 g/m*3 25.48 C 8.33333 km/h
948 24-06-2019 11:00:00 26.95833 C 15.32 g/m*3 26.96 C 8.325 km/h
949 24-06-2019 12:00:00 27.88333 C 15 g/m*3 27.88 C 12.63333 km/h
950 24-06-2019 13:00:00 29.05833 C 14.98 g/m*3 29.06 C 15.03333 km/h
Sensor: Nr:Datum:Temp:Abs-Feuchte:Windchill:Wind:
Aussen-T/F 951 24-06-2019 14:00:00 30.1 C 15.19 g/m*3 30.1 C 10.9 km/h
952 24-06-2019 15:00:00 31.38333 C 15.3 g/m*3 31.38 C 12.1 km/h
953 24-06-2019 16:00:00 32.73333 C 15.44 g/m*3 32.73 C 9.68333 km/h
954 24-06-2019 17:00:00 32.96667 C 15.84 g/m*3 32.97 C 9.55 km/h
955 24-06-2019 18:00:00 33.1 C 15.75 g/m*3 33.1 C 9.40833 km/h
956 24-06-2019 19:00:00 32.375 C 15.67 g/m*3 32.38 C 8.06667 km/h
957 24-06-2019 20:00:00 30.64167 C 15.85 g/m*3 30.64 C 6.425 km/h
958 24-06-2019 21:00:00 26.81667 C 16.24 g/m*3 26.82 C 0.13333 km/h
959 24-06-2019 22:00:00 23.99167 C 15.44 g/m*3 23.99 C 0 km/h
960 24-06-2019 23:00:00 22.68333 C 14.94 g/m*3 22.68 C 0 km/h
961 25-06-2019 00:00:00 21.4 C 14.53 g/m*3 21.4 C 0 km/h
962 25-06-2019 01:00:00 20.425 C 14.32 g/m*3 20.43 C 0 km/h
963 25-06-2019 02:00:00 19.35833 C 13.91 g/m*3 19.36 C 0 km/h
964 25-06-2019 03:00:00 18.46667 C 13.51 g/m*3 18.47 C 0 km/h
965 25-06-2019 04:00:00 17.825 C 13.39 g/m*3 17.83 C 0 km/h
966 25-06-2019 05:00:00 17.51667 C 13.34 g/m*3 17.52 C 0 km/h
967 25-06-2019 06:00:00 17.76667 C 13.76 g/m*3 17.77 C 0 km/h
968 25-06-2019 07:00:00 18.44167 C 14.3 g/m*3 18.44 C 0 km/h
969 25-06-2019 08:00:00 20.1 C 15.38 g/m*3 20.1 C 0 km/h
970 25-06-2019 09:00:00 22.56667 C 16.39 g/m*3 22.57 C 2.40833 km/h
971 25-06-2019 10:00:00 26.46667 C 16.43 g/m*3 26.47 C 6.15833 km/h
972 25-06-2019 11:00:00 28.05833 C 16.16 g/m*3 28.06 C 5.9 km/h
973 25-06-2019 12:00:00 29.51667 C 16.49 g/m*3 29.52 C 6.03333 km/h
974 25-06-2019 13:00:00 31.1 C 16.73 g/m*3 31.1 C 7.375 km/h
975 25-06-2019 14:00:00 32.75833 C 16.49 g/m*3 32.76 C 8.725 km/h
Sensor: Nr:Datum:Temp:Abs-Feuchte:Windchill:Wind:
Aussen-T/F 976 25-06-2019 15:00:00 34.91667 C 16.43 g/m*3 34.92 C 10.23333 km/h
977 25-06-2019 16:00:00 36.45833 C 16.24 g/m*3 36.46 C 8.06667 km/h
978 25-06-2019 17:00:00 37.69167 C 14.95 g/m*3 37.69 C 8.06667 km/h
979 25-06-2019 18:00:00 36.71667 C 15.88 g/m*3 36.72 C 7.25833 km/h
980 25-06-2019 19:00:00 34.225 C 18.41 g/m*3 34.23 C 1.33333 km/h
981 25-06-2019 20:00:00 31.78333 C 17.41 g/m*3 31.78 C 0.26667 km/h
982 25-06-2019 21:00:00 28.025 C 16.04 g/m*3 28.03 C 0.26667 km/h
983 25-06-2019 22:00:00 25.60833 C 15.24 g/m*3 25.61 C 0.4 km/h
984 25-06-2019 23:00:00 24.15833 C 14.47 g/m*3 24.16 C 0 km/h
985 26-06-2019 00:00:00 23.41667 C 14.63 g/m*3 23.42 C 0.13333 km/h
986 26-06-2019 01:00:00 22.38333 C 14.72 g/m*3 22.38 C 1.06667 km/h
987 26-06-2019 02:00:00 21.20833 C 14.65 g/m*3 21.21 C 0.4 km/h
988 26-06-2019 03:00:00 20.575 C 14.64 g/m*3 20.58 C 0.4 km/h
989 26-06-2019 04:00:00 19.825 C 14.44 g/m*3 19.83 C 0 km/h
990 26-06-2019 05:00:00 19.475 C 14.5 g/m*3 19.48 C 0.66667 km/h
991 26-06-2019 06:00:00 19.575 C 14.81 g/m*3 19.58 C 0.26667 km/h
992 26-06-2019 07:00:00 20.03333 C 15.24 g/m*3 20.03 C 0.53333 km/h
993 26-06-2019 08:00:00 22.7 C 17.68 g/m*3 22.7 C 0 km/h
994 26-06-2019 09:00:00 24.64167 C 18.72 g/m*3 24.64 C 4.15 km/h
995 26-06-2019 10:00:00 27.25 C 19.33 g/m*3 27.25 C 4.275 km/h
996 26-06-2019 11:00:00 28.95 C 19.53 g/m*3 28.95 C 7.24167 km/h
997 26-06-2019 12:00:00 30.24167 C 19.3 g/m*3 30.24 C 6.575 km/h
998 26-06-2019 13:00:00 31.63333 C 17.57 g/m*3 31.63 C 8.08333 km/h
999 26-06-2019 14:00:00 32.64167 C 17.64 g/m*3 32.64 C 9.15 km/h
1000 26-06-2019 15:00:00 33.9 C 18.51 g/m*3 33.9 C 9.825 km/h
Sensor: Nr:Datum:Temp:Abs-Feuchte:Windchill:Wind:
Aussen-T/F 1001 26-06-2019 16:00:00 34.76667 C 17.9 g/m*3 34.77 C 11.3 km/h
1002 26-06-2019 17:00:00 34.76667 C 17.18 g/m*3 34.77 C 11.16667 km/h
1003 26-06-2019 18:00:00 34.36667 C 16 g/m*3 34.37 C 11.96667 km/h
1004 26-06-2019 19:00:00 33.36667 C 15.82 g/m*3 33.37 C 10.76667 km/h
1005 26-06-2019 20:00:00 30.94167 C 16.03 g/m*3 30.94 C 8.34167 km/h
1006 26-06-2019 21:00:00 28.8 C 16.05 g/m*3 28.8 C 2.93333 km/h
1007 26-06-2019 22:00:00 26.4 C 16.24 g/m*3 26.4 C 2.68333 km/h
1008 26-06-2019 23:00:00 26.03333 C 16.91 g/m*3 26.03 C 5.63333 km/h
1009 27-06-2019 00:00:00 25.24167 C 17.03 g/m*3 25.24 C 5.89167 km/h
1010 27-06-2019 01:00:00 24.11667 C 16.75 g/m*3 24.12 C 4.675 km/h
1011 27-06-2019 02:00:00 23.25833 C 16.37 g/m*3 23.26 C 2.66667 km/h
1012 27-06-2019 03:00:00 22.41667 C 15.51 g/m*3 22.42 C 4.40833 km/h
1013 27-06-2019 04:00:00 21.66667 C 14.66 g/m*3 21.67 C 6.025 km/h
1014 27-06-2019 05:00:00 20.54167 C 14.17 g/m*3 20.54 C 3.20833 km/h
1015 27-06-2019 06:00:00 20.01667 C 13.97 g/m*3 20.02 C 1.86667 km/h
1016 27-06-2019 07:00:00 20.03333 C 13.81 g/m*3 20.03 C 6.41667 km/h
1017 27-06-2019 08:00:00 20.6 C 13.87 g/m*3 20.6 C 6.01667 km/h
1018 27-06-2019 09:00:00 21.45833 C 13.92 g/m*3 21.46 C 8.35 km/h
1019 27-06-2019 10:00:00 22.83333 C 13.84 g/m*3 22.83 C 10.09167 km/h
1020 27-06-2019 11:00:00 24.03333 C 13.53 g/m*3 24.03 C 9.14167 km/h
1021 27-06-2019 12:00:00 24.84167 C 13.44 g/m*3 24.84 C 12.1 km/h
1022 27-06-2019 13:00:00 25.875 C 12.87 g/m*3 25.88 C 10.63333 km/h
1023 27-06-2019 14:00:00 26.98333 C 12.43 g/m*3 26.98 C 11.43333 km/h
1024 27-06-2019 15:00:00 28.6 C 11.55 g/m*3 28.6 C 12.9 km/h
1025 27-06-2019 16:00:00 30.18333 C 9.93 g/m*3 30.18 C 13.56667 km/h
Sensor: Nr:Datum:Temp:Abs-Feuchte:Windchill:Wind:
Aussen-T/F 1026 27-06-2019 17:00:00 30.54167 C 8.74 g/m*3 30.54 C 13.83333 km/h
1027 27-06-2019 18:00:00 30.225 C 8.08 g/m*3 30.23 C 12.1 km/h
1028 27-06-2019 19:00:00 29.59167 C 7.64 g/m*3 29.59 C 11.3 km/h
1029 27-06-2019 20:00:00 27.43333 C 8.57 g/m*3 27.43 C 8.475 km/h
1030 27-06-2019 21:00:00 24.48333 C 9.32 g/m*3 24.48 C 3.46667 km/h
1031 27-06-2019 22:00:00 21.28333 C 10.24 g/m*3 21.28 C 1.46667 km/h
1032 27-06-2019 23:00:00 19.9 C 10.45 g/m*3 19.9 C 1.33333 km/h
1033 28-06-2019 00:00:00 18.53333 C 10.48 g/m*3 18.53 C 0 km/h
1034 28-06-2019 01:00:00 17.18333 C 10.48 g/m*3 17.18 C 0 km/h
1035 28-06-2019 02:00:00 16.26667 C 10.59 g/m*3 16.27 C 0 km/h
1036 28-06-2019 03:00:00 15.48333 C 10.6 g/m*3 15.48 C 0 km/h
1037 28-06-2019 04:00:00 14.35 C 10.38 g/m*3 14.35 C 0 km/h
1038 28-06-2019 05:00:00 13.51667 C 10.24 g/m*3 13.52 C 0 km/h
1039 28-06-2019 06:00:00 13.35833 C 10.41 g/m*3 13.36 C 0 km/h
1040 28-06-2019 07:00:00 13.86667 C 10.87 g/m*3 13.87 C 0 km/h
1041 28-06-2019 08:00:00 15.39167 C 11.23 g/m*3 15.39 C 2.4 km/h
1042 28-06-2019 09:00:00 17.7 C 11.3 g/m*3 17.7 C 3.73333 km/h
1043 28-06-2019 10:00:00 19.81667 C 11.53 g/m*3 19.82 C 5.20833 km/h
1044 28-06-2019 11:00:00 21.475 C 11.36 g/m*3 21.48 C 6.3 km/h
1045 28-06-2019 12:00:00 22.84167 C 11.34 g/m*3 22.84 C 8.05833 km/h
1046 28-06-2019 13:00:00 24.66667 C 10.67 g/m*3 24.67 C 9.81667 km/h
1047 28-06-2019 14:00:00 26.31667 C 10.49 g/m*3 26.32 C 8.89167 km/h
1048 28-06-2019 15:00:00 28.225 C 10.62 g/m*3 28.23 C 8.05 km/h
1049 28-06-2019 16:00:00 30.25 C 10.32 g/m*3 30.25 C 8.86667 km/h
1050 28-06-2019 17:00:00 31.13333 C 9.59 g/m*3 31.13 C 8.58333 km/h
Sensor: Nr:Datum:Temp:Abs-Feuchte:Windchill:Wind:
Aussen-T/F 1051 28-06-2019 18:00:00 31.66667 C 9.29 g/m*3 31.67 C 7.65 km/h
1052 28-06-2019 19:00:00 31.2 C 9.73 g/m*3 31.2 C 6.56667 km/h
1053 28-06-2019 20:00:00 29.49167 C 10.87 g/m*3 29.49 C 4.3 km/h
1054 28-06-2019 21:00:00 25.61667 C 11.48 g/m*3 25.62 C 0.8 km/h
1055 28-06-2019 22:00:00 21.58333 C 10.36 g/m*3 21.58 C 0.4 km/h
1056 28-06-2019 23:00:00 19.275 C 10.54 g/m*3 19.27 C 0 km/h
1057 29-06-2019 00:00:00 18.40833 C 10.37 g/m*3 18.41 C 0.4 km/h
1058 29-06-2019 01:00:00 17.83333 C 10.35 g/m*3 17.83 C 0.53333 km/h
1059 29-06-2019 02:00:00 17.09167 C 10.32 g/m*3 17.09 C 0.13333 km/h
1060 29-06-2019 03:00:00 16.39167 C 10.37 g/m*3 16.39 C 0 km/h
1061 29-06-2019 04:00:00 15.175 C 10.18 g/m*3 15.18 C 0 km/h
1062 29-06-2019 05:00:00 14.09167 C 10.04 g/m*3 14.09 C 0 km/h
1063 29-06-2019 06:00:00 13.70833 C 10.13 g/m*3 13.71 C 0 km/h
1064 29-06-2019 07:00:00 14.075 C 10.62 g/m*3 14.08 C 0 km/h
1065 29-06-2019 08:00:00 15.26667 C 11.33 g/m*3 15.27 C 0 km/h
1066 29-06-2019 09:00:00 19.2 C 11.79 g/m*3 19.2 C 6.16667 km/h
1067 29-06-2019 10:00:00 23.49167 C 11.64 g/m*3 23.49 C 9 km/h
1068 29-06-2019 11:00:00 25.775 C 11.54 g/m*3 25.78 C 7.925 km/h
1069 29-06-2019 12:00:00 27.41667 C 11.74 g/m*3 27.42 C 10.89167 km/h
1070 29-06-2019 13:00:00 29.11667 C 10.24 g/m*3 29.12 C 11.69167 km/h
1071 29-06-2019 14:00:00 30.58333 C 9.54 g/m*3 30.58 C 11.13333 km/h
1072 29-06-2019 15:00:00 32.63333 C 9.25 g/m*3 32.63 C 10.75 km/h
1073 29-06-2019 16:00:00 34.24167 C 8.93 g/m*3 34.24 C 12.09167 km/h
1074 29-06-2019 17:00:00 35.325 C 8.95 g/m*3 35.33 C 7.78333 km/h
1075 29-06-2019 18:00:00 35.64167 C 9.23 g/m*3 35.64 C 7.38333 km/h
Sensor: Nr:Datum:Temp:Abs-Feuchte:Windchill:Wind:
Aussen-T/F 1076 29-06-2019 19:00:00 35.26667 C 9.39 g/m*3 35.27 C 4.66667 km/h
1077 29-06-2019 20:00:00 32.425 C 11.77 g/m*3 32.42 C 1.06667 km/h
1078 29-06-2019 21:00:00 27.60833 C 10.67 g/m*3 27.61 C 1.6 km/h
1079 29-06-2019 22:00:00 24.225 C 10.01 g/m*3 24.23 C 1.2 km/h
1080 29-06-2019 23:00:00 21.23333 C 10.66 g/m*3 21.23 C 0 km/h
1081 30-06-2019 00:00:00 18.93333 C 10.69 g/m*3 18.93 C 0 km/h
1082 30-06-2019 01:00:00 17.525 C 10.78 g/m*3 17.52 C 0 km/h
1083 30-06-2019 02:00:00 16.75 C 10.77 g/m*3 16.75 C 0 km/h
1084 30-06-2019 03:00:00 16.10833 C 10.8 g/m*3 16.11 C 0 km/h
1085 30-06-2019 04:00:00 15.58333 C 10.81 g/m*3 15.58 C 0.26667 km/h
1086 30-06-2019 05:00:00 15.05 C 10.75 g/m*3 15.05 C 0 km/h
1087 30-06-2019 06:00:00 14.85 C 10.99 g/m*3 14.85 C 0 km/h
1088 30-06-2019 07:00:00 15.44167 C 11.57 g/m*3 15.44 C 0.13333 km/h
1089 30-06-2019 08:00:00 17.025 C 12.52 g/m*3 17.02 C 0 km/h
1090 30-06-2019 09:00:00 19.65833 C 13.82 g/m*3 19.66 C 0 km/h
1091 30-06-2019 10:00:00 25.225 C 15.09 g/m*3 25.23 C 5.64167 km/h
1092 30-06-2019 11:00:00 30.59167 C 14.17 g/m*3 30.59 C 12.76667 km/h
1093 30-06-2019 12:00:00 32.48333 C 13.85 g/m*3 32.48 C 8.61667 km/h
1094 30-06-2019 13:00:00 34.6 C 13.55 g/m*3 34.6 C 11.7 km/h
1095 30-06-2019 14:00:00 36.00833 C 14.3 g/m*3 36.01 C 15.03333 km/h
1096 30-06-2019 15:00:00 35.5 C 16.53 g/m*3 35.5 C 14.9 km/h
1097 30-06-2019 16:00:00 35.49167 C 18.25 g/m*3 35.49 C 10.75 km/h
1098 30-06-2019 17:00:00 35.875 C 18.86 g/m*3 35.88 C 8.34167 km/h
1099 30-06-2019 18:00:00 34.975 C 18.29 g/m*3 34.98 C 10.23333 km/h
1100 30-06-2019 19:00:00 32.65833 C 17.71 g/m*3 32.66 C 11.01667 km/h
Sensor: Nr:Datum:Temp:Abs-Feuchte:Windchill:Wind:
Aussen-T/F 1101 30-06-2019 20:00:00 29.35 C 17.22 g/m*3 29.35 C 13.43333 km/h
1102 30-06-2019 21:00:00 27.18333 C 16.25 g/m*3 27.18 C 8.6 km/h
1103 30-06-2019 22:00:00 26.25833 C 15.72 g/m*3 26.26 C 7.10833 km/h
1104 30-06-2019 23:00:00 24.55833 C 15.04 g/m*3 24.56 C 2.66667 km/h
1105 01-07-2019 00:00:00 22.68333 C 14.75 g/m*3 22.68 C 1.46667 km/h
1106 01-07-2019 01:00:00 22.36667 C 14.49 g/m*3 22.37 C 4.025 km/h
1107 01-07-2019 02:00:00 21.63333 C 14.05 g/m*3 21.63 C 1.06667 km/h
1108 01-07-2019 03:00:00 20.98333 C 13.19 g/m*3 20.98 C 2.68333 km/h
1109 01-07-2019 04:00:00 20.34167 C 12.65 g/m*3 20.34 C 0 km/h
1110 01-07-2019 05:00:00 19.65833 C 12.38 g/m*3 19.66 C 0.66667 km/h
1111 01-07-2019 06:00:00 19.68333 C 12.03 g/m*3 19.68 C 1.06667 km/h
1112 01-07-2019 07:00:00 19.675 C 12.02 g/m*3 19.68 C 4.40833 km/h
1113 01-07-2019 08:00:00 19.79167 C 12.06 g/m*3 19.79 C 2.4 km/h
1114 01-07-2019 09:00:00 20.24167 C 12.14 g/m*3 20.24 C 4.675 km/h
1115 01-07-2019 10:00:00 21.20833 C 12.76 g/m*3 21.21 C 6.84167 km/h
1116 01-07-2019 11:00:00 21.78333 C 13.27 g/m*3 21.78 C 9.80833 km/h
1117 01-07-2019 12:00:00 23.16667 C 13.02 g/m*3 23.17 C 8.61667 km/h
1118 01-07-2019 13:00:00 24.89167 C 11.65 g/m*3 24.89 C 13.83333 km/h
1119 01-07-2019 14:00:00 25.55833 C 12.15 g/m*3 25.56 C 10.61667 km/h
1120 01-07-2019 15:00:00 26.675 C 11.92 g/m*3 26.68 C 13.7 km/h
1121 01-07-2019 16:00:00 26.89167 C 11.34 g/m*3 26.89 C 13.3 km/h
1122 01-07-2019 17:00:00 27.04167 C 10.86 g/m*3 27.04 C 15.43333 km/h
1123 01-07-2019 18:00:00 26.3 C 10.89 g/m*3 26.3 C 13.96667 km/h
1124 01-07-2019 19:00:00 25.96667 C 10.39 g/m*3 25.97 C 11.96667 km/h
1125 01-07-2019 20:00:00 24.53333 C 10.46 g/m*3 24.53 C 8.05 km/h
Sensor: Nr:Datum:Temp:Abs-Feuchte:Windchill:Wind:
Aussen-T/F 1126 01-07-2019 21:00:00 22.55833 C 10.25 g/m*3 22.56 C 7.25 km/h
1127 01-07-2019 22:00:00 20.825 C 10.38 g/m*3 20.83 C 2.93333 km/h
1128 01-07-2019 23:00:00 20.03333 C 10.29 g/m*3 20.03 C 8.33333 km/h
1129 02-07-2019 00:00:00 18.85833 C 10.21 g/m*3 18.86 C 2.8 km/h
1130 02-07-2019 01:00:00 16.89167 C 10.11 g/m*3 16.89 C 2 km/h
1131 02-07-2019 02:00:00 15.85 C 10.04 g/m*3 15.85 C 1.73333 km/h
1132 02-07-2019 03:00:00 15.49167 C 9.94 g/m*3 15.49 C 2.95 km/h
1133 02-07-2019 04:00:00 14.525 C 9.82 g/m*3 14.53 C 0.26667 km/h
1134 02-07-2019 05:00:00 13.45 C 9.71 g/m*3 13.45 C 0.13333 km/h
1135 02-07-2019 06:00:00 13.10833 C 9.76 g/m*3 13.11 C 0 km/h
1136 02-07-2019 07:00:00 13.23333 C 10.01 g/m*3 13.23 C 0 km/h
1137 02-07-2019 08:00:00 14.925 C 10.47 g/m*3 14.93 C 3.75 km/h
1138 02-07-2019 09:00:00 17.48333 C 10.48 g/m*3 17.48 C 8.45 km/h
1139 02-07-2019 10:00:00 19 C 10.23 g/m*3 19 C 9.01667 km/h
1140 02-07-2019 11:00:00 19.60833 C 10.23 g/m*3 19.61 C 6.01667 km/h
1141 02-07-2019 12:00:00 20.48333 C 9.79 g/m*3 20.48 C 9 km/h
1142 02-07-2019 13:00:00 21.46667 C 9.68 g/m*3 21.47 C 10.075 km/h
1143 02-07-2019 14:00:00 22.31667 C 9.72 g/m*3 22.32 C 9.11667 km/h
1144 02-07-2019 15:00:00 23.00833 C 9.78 g/m*3 23.01 C 9.14167 km/h
1145 02-07-2019 16:00:00 24.98333 C 9.26 g/m*3 24.98 C 11.83333 km/h
1146 02-07-2019 17:00:00 25.49167 C 9.11 g/m*3 25.49 C 11.83333 km/h
1147 02-07-2019 18:00:00 24.36667 C 9.18 g/m*3 24.37 C 9.675 km/h
1148 02-07-2019 19:00:00 24.775 C 8.77 g/m*3 24.78 C 9.83333 km/h
1149 02-07-2019 20:00:00 22.95 C 8.56 g/m*3 22.95 C 10.35833 km/h
1150 02-07-2019 21:00:00 20.825 C 8.81 g/m*3 20.83 C 2.66667 km/h
Sensor: Nr:Datum:Temp:Abs-Feuchte:Windchill:Wind:
Aussen-T/F 1151 02-07-2019 22:00:00 17.64167 C 8.76 g/m*3 17.64 C 0.26667 km/h
1152 02-07-2019 23:00:00 16.3 C 8.64 g/m*3 16.3 C 0.13333 km/h
1153 03-07-2019 00:00:00 14.80833 C 8.63 g/m*3 14.81 C 0 km/h
1154 03-07-2019 01:00:00 13.23333 C 8.49 g/m*3 13.23 C 0 km/h
1155 03-07-2019 02:00:00 12.30833 C 8.39 g/m*3 12.31 C 0 km/h
1156 03-07-2019 03:00:00 11.475 C 8.3 g/m*3 11.48 C 0 km/h
1157 03-07-2019 04:00:00 10.65 C 8.15 g/m*3 10.65 C 0 km/h
1158 03-07-2019 05:00:00 10.10833 C 8.12 g/m*3 10.11 C 0 km/h
1159 03-07-2019 06:00:00 10.13333 C 8.34 g/m*3 10.13 C 0 km/h
1160 03-07-2019 07:00:00 10.91667 C 8.83 g/m*3 10.92 C 0 km/h
1161 03-07-2019 08:00:00 12.31667 C 9.37 g/m*3 12.32 C 0 km/h
1162 03-07-2019 09:00:00 14.475 C 9.56 g/m*3 14.48 C 0.8 km/h
1163 03-07-2019 10:00:00 18.01667 C 9.37 g/m*3 18.02 C 3.86667 km/h
1164 03-07-2019 11:00:00 19.95 C 8.76 g/m*3 19.95 C 9.4 km/h
1165 03-07-2019 12:00:00 20.75833 C 8.81 g/m*3 20.76 C 9.55 km/h
1166 03-07-2019 13:00:00 21.4 C 8.75 g/m*3 21.4 C 11.69167 km/h
1167 03-07-2019 14:00:00 21.975 C 8.98 g/m*3 21.98 C 11.96667 km/h
1168 03-07-2019 15:00:00 22.625 C 9.09 g/m*3 22.63 C 10.89167 km/h
1169 03-07-2019 16:00:00 24.44167 C 8.9 g/m*3 24.44 C 11.43333 km/h
1170 03-07-2019 17:00:00 24.56667 C 8.56 g/m*3 24.57 C 13.43333 km/h
1171 03-07-2019 18:00:00 24.70833 C 8.49 g/m*3 24.71 C 13.3 km/h
1172 03-07-2019 19:00:00 23.79167 C 8.35 g/m*3 23.79 C 13.7 km/h
1173 03-07-2019 20:00:00 22.35833 C 8.3 g/m*3 22.36 C 10.5 km/h
1174 03-07-2019 21:00:00 20.40833 C 8.22 g/m*3 20.41 C 5.91667 km/h
1175 03-07-2019 22:00:00 17.54167 C 8.23 g/m*3 17.54 C 1.46667 km/h
Sensor: Nr:Datum:Temp:Abs-Feuchte:Windchill:Wind:
Aussen-T/F 1176 03-07-2019 23:00:00 15.46667 C 8.16 g/m*3 15.47 C 0.13333 km/h
1177 04-07-2019 00:00:00 14.2 C 8.05 g/m*3 14.2 C 0.26667 km/h
1178 04-07-2019 01:00:00 13.48333 C 7.96 g/m*3 13.48 C 0.13333 km/h
1179 04-07-2019 02:00:00 12.625 C 7.94 g/m*3 12.63 C 0 km/h
1180 04-07-2019 03:00:00 11.24167 C 7.84 g/m*3 11.24 C 0 km/h
1181 04-07-2019 04:00:00 10.78333 C 7.87 g/m*3 10.78 C 0 km/h
1182 04-07-2019 05:00:00 10.51667 C 7.94 g/m*3 10.52 C 0 km/h
1183 04-07-2019 06:00:00 10.28333 C 8.01 g/m*3 10.28 C 0 km/h
1184 04-07-2019 07:00:00 10.55 C 8.37 g/m*3 10.55 C 0 km/h
1185 04-07-2019 08:00:00 11.76667 C 8.81 g/m*3 11.77 C 0 km/h
1186 04-07-2019 09:00:00 14.4 C 9.04 g/m*3 14.4 C 2.94167 km/h
1187 04-07-2019 10:00:00 18.125 C 8.68 g/m*3 18.13 C 6.99167 km/h
1188 04-07-2019 11:00:00 19.58333 C 8.28 g/m*3 19.58 C 7.38333 km/h
1189 04-07-2019 12:00:00 20.4 C 8.02 g/m*3 20.4 C 8.33333 km/h
1190 04-07-2019 13:00:00 21.63333 C 7.9 g/m*3 21.63 C 8.475 km/h
1191 04-07-2019 14:00:00 22.71667 C 7.68 g/m*3 22.72 C 6.825 km/h
1192 04-07-2019 15:00:00 24.7 C 7.6 g/m*3 24.7 C 9.41667 km/h
1193 04-07-2019 16:00:00 26.80833 C 8 g/m*3 26.81 C 8.6 km/h
1194 04-07-2019 17:00:00 26.9 C 8.17 g/m*3 26.9 C 9.4 km/h
1195 04-07-2019 18:00:00 27.35 C 8.07 g/m*3 27.35 C 8.74167 km/h
1196 04-07-2019 19:00:00 26.94167 C 8.12 g/m*3 26.94 C 7.36667 km/h
1197 04-07-2019 20:00:00 24.95 C 8.3 g/m*3 24.95 C 5.61667 km/h
1198 04-07-2019 21:00:00 21.60833 C 9 g/m*3 21.61 C 0.8 km/h
1199 04-07-2019 22:00:00 18.56667 C 8.48 g/m*3 18.57 C 0.13333 km/h
1200 04-07-2019 23:00:00 17.39167 C 8.44 g/m*3 17.39 C 0.13333 km/h
Sensor: Nr:Datum:Temp:Abs-Feuchte:Windchill:Wind:
Aussen-T/F 1201 05-07-2019 00:00:00 16.41667 C 8.59 g/m*3 16.42 C 0.13333 km/h
1202 05-07-2019 01:00:00 15.18333 C 8.54 g/m*3 15.18 C 0 km/h
1203 05-07-2019 02:00:00 14.13333 C 8.41 g/m*3 14.13 C 0 km/h
1204 05-07-2019 03:00:00 13.70833 C 8.68 g/m*3 13.71 C 1.06667 km/h
1205 05-07-2019 04:00:00 14.08333 C 8.95 g/m*3 14.08 C 2.93333 km/h
1206 05-07-2019 05:00:00 13.75833 C 8.86 g/m*3 13.76 C 0.93333 km/h
1207 05-07-2019 06:00:00 13.93333 C 9.17 g/m*3 13.93 C 1.33333 km/h
1208 05-07-2019 07:00:00 14.55 C 9.41 g/m*3 14.55 C 3.60833 km/h
1209 05-07-2019 08:00:00 15.8 C 9.77 g/m*3 15.8 C 5.61667 km/h
1210 05-07-2019 09:00:00 17.29167 C 9.95 g/m*3 17.29 C 3.06667 km/h
1211 05-07-2019 10:00:00 20.225 C 10.27 g/m*3 20.23 C 4.40833 km/h
1212 05-07-2019 11:00:00 21.94167 C 10.28 g/m*3 21.94 C 5.76667 km/h
1213 05-07-2019 12:00:00 22.84167 C 10.24 g/m*3 22.84 C 5.775 km/h
1214 05-07-2019 13:00:00 24.38333 C 10.1 g/m*3 24.38 C 9.825 km/h
1215 05-07-2019 14:00:00 25.5 C 10.12 g/m*3 25.5 C 7.65 km/h
1216 05-07-2019 15:00:00 27.45 C 9.98 g/m*3 27.45 C 9.68333 km/h
1217 05-07-2019 16:00:00 28.91667 C 9.96 g/m*3 28.92 C 10.09167 km/h
1218 05-07-2019 17:00:00 29.6 C 10.02 g/m*3 29.6 C 9.94167 km/h
1219 05-07-2019 18:00:00 29.41667 C 10.28 g/m*3 29.42 C 11.025 km/h
1220 05-07-2019 19:00:00 27.68333 C 10.33 g/m*3 27.68 C 8.75 km/h
1221 05-07-2019 20:00:00 26.10833 C 10.45 g/m*3 26.11 C 4.26667 km/h
1222 05-07-2019 21:00:00 23.225 C 10.96 g/m*3 23.23 C 0.26667 km/h
1223 05-07-2019 22:00:00 21.18333 C 10.88 g/m*3 21.18 C 0.26667 km/h
1224 05-07-2019 23:00:00 20.4 C 11.09 g/m*3 20.4 C 0 km/h
1225 06-07-2019 00:00:00 18.45833 C 11.03 g/m*3 18.46 C 0 km/h
Sensor: Nr:Datum:Temp:Abs-Feuchte:Windchill:Wind:
Aussen-T/F 1226 06-07-2019 01:00:00 17.60833 C 10.97 g/m*3 17.61 C 0.26667 km/h
1227 06-07-2019 02:00:00 17.05833 C 11.07 g/m*3 17.06 C 0 km/h
1228 06-07-2019 03:00:00 16.875 C 11.13 g/m*3 16.88 C 0.53333 km/h
1229 06-07-2019 04:00:00 16.16667 C 10.96 g/m*3 16.17 C 0.66667 km/h
1230 06-07-2019 05:00:00 15.425 C 10.77 g/m*3 15.43 C 0.13333 km/h
1231 06-07-2019 06:00:00 15.18333 C 10.97 g/m*3 15.18 C 0 km/h
1232 06-07-2019 07:00:00 15.18333 C 11.03 g/m*3 15.18 C 2.40833 km/h
1233 06-07-2019 08:00:00 16.78333 C 11.6 g/m*3 16.78 C 5.34167 km/h
1234 06-07-2019 09:00:00 19.425 C 11.97 g/m*3 19.43 C 4.26667 km/h
1235 06-07-2019 10:00:00 22.16667 C 12.25 g/m*3 22.17 C 4.15 km/h
1236 06-07-2019 11:00:00 24.41667 C 11.79 g/m*3 24.42 C 6.85 km/h
1237 06-07-2019 12:00:00 25.48333 C 11.83 g/m*3 25.48 C 8.075 km/h
1238 06-07-2019 13:00:00 26.84167 C 11.1 g/m*3 26.84 C 9.81667 km/h
1239 06-07-2019 14:00:00 28.7 C 9.07 g/m*3 28.7 C 11.81667 km/h
1240 06-07-2019 15:00:00 30.95833 C 7.21 g/m*3 30.96 C 15.83333 km/h
1241 06-07-2019 16:00:00 29.08333 C 6.25 g/m*3 29.08 C 13.16667 km/h
1242 06-07-2019 17:00:00 27.89167 C 7.79 g/m*3 27.89 C 16.36667 km/h
1243 06-07-2019 18:00:00 22.825 C 10.53 g/m*3 22.83 C 11.79167 km/h
1244 06-07-2019 19:00:00 21.60833 C 10.61 g/m*3 21.61 C 6.3 km/h
1245 06-07-2019 20:00:00 20.35833 C 11.37 g/m*3 20.36 C 5.08333 km/h
1246 06-07-2019 21:00:00 19.75833 C 11.39 g/m*3 19.76 C 3.6 km/h
1247 06-07-2019 22:00:00 19.86667 C 12.2 g/m*3 19.87 C 6.43333 km/h
1248 06-07-2019 23:00:00 20.35833 C 12.6 g/m*3 20.36 C 9.68333 km/h
1249 07-07-2019 00:00:00 18.93333 C 12.04 g/m*3 18.93 C 7.11667 km/h
1250 07-07-2019 01:00:00 17.88333 C 11.81 g/m*3 17.88 C 7.39167 km/h
Sensor: Nr:Datum:Temp:Abs-Feuchte:Windchill:Wind:
Aussen-T/F 1251 07-07-2019 02:00:00 17.33333 C 11 g/m*3 17.33 C 6.175 km/h
1252 07-07-2019 03:00:00 17 C 10.94 g/m*3 17 C 4.53333 km/h
1253 07-07-2019 04:00:00 16.825 C 10.86 g/m*3 16.83 C 4.94167 km/h
1254 07-07-2019 05:00:00 16.47 C 11.07 g/m*3 16.47 C 6.77 km/h
1255 07-07-2019 06:00:00 14.96 C 11.51 g/m*3 14.96 C 0.48 km/h
1256 07-07-2019 07:00:00 14.65 C 11.66 g/m*3 14.65 C 1.2 km/h
1257 07-07-2019 08:00:00 14.28182 C 11.51 g/m*3 14.28 C 0.72727 km/h
1258 07-07-2019 09:00:00 14.78333 C 11.92 g/m*3 14.78 C 2.80833 km/h
1259 07-07-2019 10:00:00 15.38333 C 11.31 g/m*3 15.38 C 8.60833 km/h
1260 07-07-2019 11:00:00 16.50833 C 10.6 g/m*3 16.51 C 9.95833 km/h
1261 07-07-2019 12:00:00 17.73333 C 10.22 g/m*3 17.73 C 9.15 km/h
1262 07-07-2019 13:00:00 18.5 C 9.88 g/m*3 18.5 C 12.225 km/h
1263 07-07-2019 14:00:00 19.25833 C 9.21 g/m*3 19.26 C 12.36667 km/h
1264 07-07-2019 15:00:00 20.91667 C 8.84 g/m*3 20.92 C 14.23333 km/h
1265 07-07-2019 16:00:00 21.78333 C 8.37 g/m*3 21.78 C 12.88333 km/h
1266 07-07-2019 17:00:00 21.475 C 8.3 g/m*3 21.48 C 12.76667 km/h
1267 07-07-2019 18:00:00 21.775 C 8.51 g/m*3 21.78 C 13.16667 km/h
1268 07-07-2019 19:00:00 21.325 C 8.31 g/m*3 21.33 C 11.29167 km/h
1269 07-07-2019 20:00:00 20 C 8.3 g/m*3 20 C 9.54167 km/h
1270 07-07-2019 21:00:00 18.65 C 8.39 g/m*3 18.65 C 5.20833 km/h
1271 07-07-2019 22:00:00 15.64167 C 8.83 g/m*3 15.64 C 0 km/h
1272 07-07-2019 23:00:00 13.85 C 8.83 g/m*3 13.85 C 0.4 km/h
1273 08-07-2019 00:00:00 12.875 C 8.72 g/m*3 12.88 C 0.26667 km/h
1274 08-07-2019 01:00:00 11.89167 C 8.6 g/m*3 11.89 C 0 km/h
1275 08-07-2019 02:00:00 11.05 C 8.41 g/m*3 11.05 C 0 km/h
Sensor: Nr:Datum:Temp:Abs-Feuchte:Windchill:Wind:
Aussen-T/F 1276 08-07-2019 03:00:00 10.94167 C 8.33 g/m*3 10.94 C 0.26667 km/h
1277 08-07-2019 04:00:00 10.78333 C 8.29 g/m*3 10.78 C 0.53333 km/h
1278 08-07-2019 05:00:00 9.89167 C 8.1 g/m*3 9.89 C 0 km/h
1279 08-07-2019 06:00:00 9.55833 C 8.18 g/m*3 9.56 C 0 km/h
1280 08-07-2019 07:00:00 9.975 C 8.54 g/m*3 9.98 C 0 km/h
1281 08-07-2019 08:00:00 11.225 C 9.15 g/m*3 11.23 C 0.53333 km/h
1282 08-07-2019 09:00:00 14.18333 C 9.01 g/m*3 14.18 C 8.45 km/h
1283 08-07-2019 10:00:00 15.65833 C 8.36 g/m*3 15.66 C 9.28333 km/h
1284 08-07-2019 11:00:00 16.14167 C 8.5 g/m*3 16.14 C 10.36667 km/h
1285 08-07-2019 12:00:00 16.68333 C 8.46 g/m*3 16.68 C 11.43333 km/h
1286 08-07-2019 13:00:00 17.05833 C 8.45 g/m*3 17.06 C 9.69167 km/h
1287 08-07-2019 14:00:00 17.33333 C 8.51 g/m*3 17.33 C 8.33333 km/h
1288 08-07-2019 15:00:00 17.49167 C 8.62 g/m*3 17.49 C 10.36667 km/h
1289 08-07-2019 16:00:00 18.025 C 8.77 g/m*3 18.02 C 9.825 km/h
1290 08-07-2019 17:00:00 18.16667 C 8.87 g/m*3 18.17 C 10.36667 km/h
1291 08-07-2019 18:00:00 18.04167 C 8.82 g/m*3 18.04 C 9.68333 km/h
1292 08-07-2019 19:00:00 17.75833 C 8.79 g/m*3 17.76 C 7.94167 km/h
1293 08-07-2019 20:00:00 17.69167 C 8.82 g/m*3 17.69 C 6.025 km/h
1294 08-07-2019 21:00:00 16.26667 C 9.01 g/m*3 16.27 C 2.8 km/h
1295 08-07-2019 22:00:00 13.975 C 9.01 g/m*3 13.98 C 0 km/h
1296 08-07-2019 23:00:00 14.11667 C 9.16 g/m*3 14.12 C 0.53333 km/h
1297 09-07-2019 00:00:00 13.29167 C 9.16 g/m*3 13.29 C 0.13333 km/h
1298 09-07-2019 01:00:00 12.7 C 9.06 g/m*3 12.7 C 0 km/h
1299 09-07-2019 02:00:00 11.88333 C 8.87 g/m*3 11.88 C 0 km/h
1300 09-07-2019 03:00:00 11.11667 C 8.79 g/m*3 11.12 C 0 km/h
Sensor: Nr:Datum:Temp:Abs-Feuchte:Windchill:Wind:
Aussen-T/F 1301 09-07-2019 04:00:00 10.43333 C 8.53 g/m*3 10.43 C 0 km/h
1302 09-07-2019 05:00:00 9.80833 C 8.37 g/m*3 9.81 C 0 km/h
1303 09-07-2019 06:00:00 9.725 C 8.43 g/m*3 9.73 C 0 km/h
1304 09-07-2019 07:00:00 10.91667 C 9.03 g/m*3 10.92 C 0.8 km/h
1305 09-07-2019 08:00:00 12.98333 C 9.22 g/m*3 12.98 C 1.6 km/h
1306 09-07-2019 09:00:00 14.2 C 9.26 g/m*3 14.2 C 3.475 km/h
1307 09-07-2019 10:00:00 14.9 C 9.01 g/m*3 14.9 C 4.4 km/h
1308 09-07-2019 11:00:00 16.09167 C 8.28 g/m*3 16.09 C 9.95 km/h
1309 09-07-2019 12:00:00 16.86667 C 8.13 g/m*3 16.87 C 9.55 km/h
1310 09-07-2019 13:00:00 17.68333 C 7.9 g/m*3 17.68 C 11.16667 km/h
1311 09-07-2019 14:00:00 18.6 C 7.83 g/m*3 18.6 C 11.69167 km/h
1312 09-07-2019 15:00:00 19.73333 C 7.81 g/m*3 19.73 C 12.225 km/h
1313 09-07-2019 16:00:00 20.475 C 7.77 g/m*3 20.48 C 10.9 km/h
1314 09-07-2019 17:00:00 21.725 C 7.55 g/m*3 21.73 C 12.36667 km/h
1315 09-07-2019 18:00:00 21.06667 C 7.31 g/m*3 21.07 C 11.56667 km/h
1316 09-07-2019 19:00:00 20.98333 C 7.46 g/m*3 20.98 C 9.825 km/h
1317 09-07-2019 20:00:00 19.525 C 7.82 g/m*3 19.52 C 3.06667 km/h
1318 09-07-2019 21:00:00 17.04167 C 8.24 g/m*3 17.04 C 0.26667 km/h
1319 09-07-2019 22:00:00 14.95 C 7.99 g/m*3 14.95 C 0.26667 km/h
1320 09-07-2019 23:00:00 13.10833 C 8.2 g/m*3 13.11 C 0 km/h
1321 10-07-2019 00:00:00 12.05 C 8.03 g/m*3 12.05 C 0 km/h
1322 10-07-2019 01:00:00 11.01667 C 7.82 g/m*3 11.02 C 0 km/h
1323 10-07-2019 02:00:00 10.01667 C 7.63 g/m*3 10.02 C 0 km/h
1324 10-07-2019 03:00:00 9.05 C 7.49 g/m*3 9.05 C 0 km/h
1325 10-07-2019 04:00:00 8.5 C 7.43 g/m*3 8.5 C 0 km/h
Sensor: Nr:Datum:Temp:Abs-Feuchte:Windchill:Wind:
Aussen-T/F 1326 10-07-2019 05:00:00 8.23333 C 7.43 g/m*3 8.23 C 0 km/h
1327 10-07-2019 06:00:00 8.10833 C 7.47 g/m*3 8.11 C 0 km/h
1328 10-07-2019 07:00:00 8.46667 C 7.72 g/m*3 8.47 C 0 km/h
1329 10-07-2019 08:00:00 10 C 8.47 g/m*3 10 C 0 km/h
1330 10-07-2019 09:00:00 12.49167 C 8.99 g/m*3 12.49 C 1.33333 km/h
1331 10-07-2019 10:00:00 16.09167 C 9.38 g/m*3 16.09 C 2.53333 km/h
1332 10-07-2019 11:00:00 18.40833 C 8.59 g/m*3 18.41 C 5.49167 km/h
1333 10-07-2019 12:00:00 19.80833 C 7.29 g/m*3 19.81 C 7.25833 km/h
1334 10-07-2019 13:00:00 21.15833 C 6.55 g/m*3 21.16 C 9.15 km/h
1335 10-07-2019 14:00:00 22.70833 C 6.23 g/m*3 22.71 C 10.08333 km/h
1336 10-07-2019 15:00:00 24.41667 C 6.29 g/m*3 24.42 C 9.01667 km/h
1337 10-07-2019 16:00:00 25.66667 C 6.37 g/m*3 25.67 C 10.35833 km/h
1338 10-07-2019 17:00:00 26.63333 C 6.41 g/m*3 26.63 C 9.40833 km/h
1339 10-07-2019 18:00:00 26.76667 C 6.54 g/m*3 26.77 C 9.54167 km/h
1340 10-07-2019 19:00:00 25.75 C 6.74 g/m*3 25.75 C 9.68333 km/h
1341 10-07-2019 20:00:00 23.525 C 7.13 g/m*3 23.53 C 5.63333 km/h
1342 10-07-2019 21:00:00 20.74167 C 7.82 g/m*3 20.74 C 0.13333 km/h
1343 10-07-2019 22:00:00 19.21667 C 7.96 g/m*3 19.22 C 0 km/h
1344 10-07-2019 23:00:00 18.9 C 8.42 g/m*3 18.9 C 2.55 km/h
1345 11-07-2019 00:00:00 19.10833 C 8.92 g/m*3 19.11 C 1.2 km/h
1346 11-07-2019 01:00:00 17.8 C 9.27 g/m*3 17.8 C 0 km/h
1347 11-07-2019 02:00:00 17.175 C 9.63 g/m*3 17.18 C 0 km/h
1348 11-07-2019 03:00:00 16.875 C 10.08 g/m*3 16.88 C 0 km/h
1349 11-07-2019 04:00:00 16.59167 C 10.26 g/m*3 16.59 C 0 km/h
1350 11-07-2019 05:00:00 16.34167 C 10.18 g/m*3 16.34 C 0 km/h
Sensor: Nr:Datum:Temp:Abs-Feuchte:Windchill:Wind:
Aussen-T/F 1351 11-07-2019 06:00:00 16.39167 C 10.36 g/m*3 16.39 C 0 km/h
1352 11-07-2019 07:00:00 17.23333 C 10.53 g/m*3 17.23 C 0.13333 km/h
1353 11-07-2019 08:00:00 17.85833 C 10.51 g/m*3 17.86 C 0.4 km/h
1354 11-07-2019 09:00:00 18.675 C 10.95 g/m*3 18.68 C 0.66667 km/h
1355 11-07-2019 10:00:00 18.7 C 11.31 g/m*3 18.7 C 0.53333 km/h
1356 11-07-2019 11:00:00 18.9 C 11.26 g/m*3 18.9 C 4.975 km/h
1357 11-07-2019 12:00:00 17.35 C 12.1 g/m*3 17.35 C 5.63333 km/h
1358 11-07-2019 13:00:00 16.31667 C 12.61 g/m*3 16.32 C 2.53333 km/h
1359 11-07-2019 14:00:00 16.79167 C 13.25 g/m*3 16.79 C 0.53333 km/h
1360 11-07-2019 15:00:00 17.575 C 13.85 g/m*3 17.58 C 2.26667 km/h
1361 11-07-2019 16:00:00 19.11667 C 14.66 g/m*3 19.12 C 7.51667 km/h
1362 11-07-2019 17:00:00 20.88333 C 15.37 g/m*3 20.88 C 2.8 km/h
1363 11-07-2019 18:00:00 19.50833 C 15.13 g/m*3 19.51 C 0.4 km/h
1364 11-07-2019 19:00:00 18.3 C 14.55 g/m*3 18.3 C 0.93333 km/h
1365 11-07-2019 20:00:00 18.04167 C 14.47 g/m*3 18.04 C 0 km/h
1366 11-07-2019 21:00:00 17.44167 C 13.97 g/m*3 17.44 C 0 km/h
1367 11-07-2019 22:00:00 16.85 C 13.61 g/m*3 16.85 C 0 km/h
1368 11-07-2019 23:00:00 16.43333 C 13.3 g/m*3 16.43 C 0.93333 km/h
1369 12-07-2019 00:00:00 16.05 C 13.12 g/m*3 16.05 C 1.6 km/h
1370 12-07-2019 01:00:00 15.70833 C 12.85 g/m*3 15.71 C 1.06667 km/h
1371 12-07-2019 02:00:00 15.34167 C 12.57 g/m*3 15.34 C 0.26667 km/h
1372 12-07-2019 03:00:00 15.31667 C 12.61 g/m*3 15.32 C 0.26667 km/h
1373 12-07-2019 04:00:00 14.93333 C 12.31 g/m*3 14.93 C 0 km/h
1374 12-07-2019 05:00:00 14.58333 C 12.13 g/m*3 14.58 C 0 km/h
1375 12-07-2019 06:00:00 14.75833 C 12.26 g/m*3 14.76 C 0 km/h
Sensor: Nr:Datum:Temp:Abs-Feuchte:Windchill:Wind:
Aussen-T/F 1376 12-07-2019 07:00:00 15.73333 C 13.03 g/m*3 15.73 C 1.46667 km/h
1377 12-07-2019 08:00:00 16.45833 C 13.6 g/m*3 16.46 C 0 km/h
1378 12-07-2019 09:00:00 17.45 C 14.48 g/m*3 17.45 C 0.66667 km/h
1379 12-07-2019 10:00:00 18.78333 C 15.28 g/m*3 18.78 C 1.73333 km/h
1380 12-07-2019 11:00:00 20.325 C 15.63 g/m*3 20.33 C 0.4 km/h
1381 12-07-2019 12:00:00 19.04167 C 14.99 g/m*3 19.04 C 0.8 km/h
1382 12-07-2019 13:00:00 17.98333 C 14.46 g/m*3 17.98 C 1.86667 km/h
1383 12-07-2019 14:00:00 17.70833 C 14.21 g/m*3 17.71 C 3.06667 km/h
1384 12-07-2019 15:00:00 19.6 C 15.04 g/m*3 19.6 C 6.96667 km/h
1385 12-07-2019 16:00:00 20.76667 C 15.69 g/m*3 20.77 C 1.06667 km/h
1386 12-07-2019 17:00:00 19.975 C 13.79 g/m*3 19.98 C 8.59167 km/h
1387 12-07-2019 18:00:00 18.30833 C 13.28 g/m*3 18.31 C 1.46667 km/h
1388 12-07-2019 19:00:00 17.55833 C 13.12 g/m*3 17.56 C 4.825 km/h
1389 12-07-2019 20:00:00 18.23333 C 13.74 g/m*3 18.23 C 4.025 km/h
1390 12-07-2019 21:00:00 17.63333 C 13.07 g/m*3 17.63 C 6.16667 km/h
1391 12-07-2019 22:00:00 17.3 C 12.71 g/m*3 17.3 C 7.64167 km/h
1392 12-07-2019 23:00:00 16.55 C 12.44 g/m*3 16.55 C 1.73333 km/h
1393 13-07-2019 00:00:00 16.34167 C 12.05 g/m*3 16.34 C 4.55 km/h
1394 13-07-2019 01:00:00 16.13333 C 12.35 g/m*3 16.13 C 4.14167 km/h
1395 13-07-2019 02:00:00 15.51667 C 12.44 g/m*3 15.52 C 0.53333 km/h
1396 13-07-2019 03:00:00 15.175 C 12.3 g/m*3 15.18 C 2.14167 km/h
1397 13-07-2019 04:00:00 14.99167 C 12.19 g/m*3 14.99 C 1.875 km/h
1398 13-07-2019 05:00:00 14.90833 C 12.24 g/m*3 14.91 C 0 km/h
1399 13-07-2019 06:00:00 14.75 C 12.12 g/m*3 14.75 C 1.2 km/h
1400 13-07-2019 07:00:00 14.93333 C 12.28 g/m*3 14.93 C 1.06667 km/h
Sensor: Nr:Datum:Temp:Abs-Feuchte:Windchill:Wind:
Aussen-T/F 1401 13-07-2019 08:00:00 15.61667 C 12.8 g/m*3 15.62 C 1.2 km/h
1402 13-07-2019 09:00:00 15.83333 C 12.88 g/m*3 15.83 C 1.46667 km/h
1403 13-07-2019 10:00:00 16.5 C 12.78 g/m*3 16.5 C 5.9 km/h
1404 13-07-2019 11:00:00 17.51667 C 13.18 g/m*3 17.52 C 5.64167 km/h
1405 13-07-2019 12:00:00 18.75833 C 13.09 g/m*3 18.76 C 4.675 km/h
1406 13-07-2019 13:00:00 19.725 C 12.91 g/m*3 19.73 C 9.8 km/h
1407 13-07-2019 14:00:00 21.15 C 12.8 g/m*3 21.15 C 13.16667 km/h
1408 13-07-2019 15:00:00 21.18333 C 13.16 g/m*3 21.18 C 14.35833 km/h
1409 13-07-2019 16:00:00 20.90833 C 12.56 g/m*3 20.91 C 13.425 km/h
1410 13-07-2019 17:00:00 21.84167 C 12.92 g/m*3 21.84 C 11.7 km/h
1411 13-07-2019 18:00:00 22.38333 C 12.75 g/m*3 22.38 C 10.625 km/h
1412 13-07-2019 19:00:00 22.70833 C 12.73 g/m*3 22.71 C 9 km/h
1413 13-07-2019 20:00:00 20.45833 C 12.45 g/m*3 20.46 C 8.475 km/h
1414 13-07-2019 21:00:00 19.2 C 12.74 g/m*3 19.2 C 4.425 km/h
1415 13-07-2019 22:00:00 18.225 C 13.24 g/m*3 18.23 C 2.425 km/h
1416 13-07-2019 23:00:00 17.21667 C 13.13 g/m*3 17.22 C 0.26667 km/h
1417 14-07-2019 00:00:00 16.95 C 12.95 g/m*3 16.95 C 1.06667 km/h
1418 14-07-2019 01:00:00 16.975 C 12.8 g/m*3 16.98 C 3.48333 km/h
1419 14-07-2019 02:00:00 16.35833 C 12.48 g/m*3 16.36 C 6.04167 km/h
1420 14-07-2019 03:00:00 15.44167 C 11.98 g/m*3 15.44 C 4.01667 km/h
1421 14-07-2019 04:00:00 15.11667 C 11.74 g/m*3 15.12 C 3.2 km/h
1422 14-07-2019 05:00:00 14.85 C 11.47 g/m*3 14.85 C 3.48333 km/h
1423 14-07-2019 06:00:00 14.71667 C 11.46 g/m*3 14.72 C 3.2 km/h
1424 14-07-2019 07:00:00 14.86667 C 11.04 g/m*3 14.87 C 2 km/h
1425 14-07-2019 08:00:00 15.40833 C 11.22 g/m*3 15.41 C 4.80833 km/h
Sensor: Nr:Datum:Temp:Abs-Feuchte:Windchill:Wind:
Aussen-T/F 1426 14-07-2019 09:00:00 15.26667 C 10.97 g/m*3 15.27 C 6.56667 km/h
1427 14-07-2019 10:00:00 16.00833 C 10.6 g/m*3 16.01 C 9.29167 km/h
1428 14-07-2019 11:00:00 16.83333 C 10.48 g/m*3 16.83 C 9.28333 km/h
1429 14-07-2019 12:00:00 17.53333 C 10.37 g/m*3 17.53 C 9.95833 km/h
1430 14-07-2019 13:00:00 17.80833 C 10.15 g/m*3 17.81 C 10.1 km/h
1431 14-07-2019 14:00:00 18.19167 C 9.99 g/m*3 18.19 C 11.16667 km/h
1432 14-07-2019 15:00:00 18.925 C 9.91 g/m*3 18.93 C 10.76667 km/h
1433 14-07-2019 16:00:00 19.33333 C 9.78 g/m*3 19.33 C 13.3 km/h
1434 14-07-2019 17:00:00 19.34167 C 9.74 g/m*3 19.34 C 9.00833 km/h
1435 14-07-2019 18:00:00 18.65833 C 9.88 g/m*3 18.66 C 10.35 km/h
1436 14-07-2019 19:00:00 18.36667 C 9.73 g/m*3 18.37 C 10.35833 km/h
1437 14-07-2019 20:00:00 17.89167 C 10.07 g/m*3 17.89 C 9.94167 km/h
1438 14-07-2019 21:00:00 17.45 C 10.02 g/m*3 17.45 C 7.25 km/h
1439 14-07-2019 22:00:00 17.125 C 9.93 g/m*3 17.13 C 3.74167 km/h
1440 14-07-2019 23:00:00 16.8 C 10.16 g/m*3 16.8 C 3.60833 km/h
1441 15-07-2019 00:00:00 16.06667 C 10.5 g/m*3 16.07 C 1.2 km/h
1442 15-07-2019 01:00:00 15.63333 C 10.49 g/m*3 15.63 C 2.675 km/h
1443 15-07-2019 02:00:00 15.55833 C 10.66 g/m*3 15.56 C 0.13333 km/h
1444 15-07-2019 03:00:00 14.99167 C 10.7 g/m*3 14.99 C 0 km/h
1445 15-07-2019 04:00:00 15.30833 C 10.22 g/m*3 15.31 C 2.66667 km/h
1446 15-07-2019 05:00:00 15.65 C 9.93 g/m*3 15.65 C 4.81667 km/h
1447 15-07-2019 06:00:00 15.6 C 9.86 g/m*3 15.6 C 3.33333 km/h
1448 15-07-2019 07:00:00 15.69167 C 9.9 g/m*3 15.69 C 5.49167 km/h
1449 15-07-2019 08:00:00 15.83333 C 9.99 g/m*3 15.83 C 6.7 km/h
1450 15-07-2019 09:00:00 16.53333 C 10.05 g/m*3 16.53 C 6.44167 km/h
Sensor: Nr:Datum:Temp:Abs-Feuchte:Windchill:Wind:
Aussen-T/F 1451 15-07-2019 10:00:00 16.8 C 10.32 g/m*3 16.8 C 5.48333 km/h
1452 15-07-2019 11:00:00 16.84167 C 10.67 g/m*3 16.84 C 7.525 km/h
1453 15-07-2019 12:00:00 17.10833 C 10.61 g/m*3 17.11 C 9.7 km/h
1454 15-07-2019 13:00:00 17.49167 C 10.39 g/m*3 17.49 C 11.43333 km/h
1455 15-07-2019 14:00:00 18.09167 C 10.24 g/m*3 18.09 C 12.49167 km/h
1456 15-07-2019 15:00:00 17.68333 C 10.24 g/m*3 17.68 C 10.75833 km/h
1457 15-07-2019 16:00:00 17.11667 C 10.27 g/m*3 17.12 C 8.73333 km/h
1458 15-07-2019 17:00:00 16.775 C 10.23 g/m*3 16.77 C 8.74167 km/h
1459 15-07-2019 18:00:00 16.69167 C 10.17 g/m*3 16.69 C 6.56667 km/h
1460 15-07-2019 19:00:00 16.78333 C 10.14 g/m*3 16.78 C 5.09167 km/h
1461 15-07-2019 20:00:00 16.69167 C 10.1 g/m*3 16.69 C 4.01667 km/h
1462 15-07-2019 21:00:00 16.34167 C 10.28 g/m*3 16.34 C 2.13333 km/h
1463 15-07-2019 22:00:00 15.61667 C 10.58 g/m*3 15.62 C 0 km/h
1464 15-07-2019 23:00:00 15.44167 C 10.18 g/m*3 15.44 C 0.93333 km/h
1465 16-07-2019 00:00:00 14.75 C 10.08 g/m*3 14.75 C 0 km/h
1466 16-07-2019 01:00:00 13.675 C 9.5 g/m*3 13.68 C 0 km/h
1467 16-07-2019 02:00:00 12.23333 C 9.25 g/m*3 12.23 C 0 km/h
1468 16-07-2019 03:00:00 10.9 C 8.98 g/m*3 10.9 C 0 km/h
1469 16-07-2019 04:00:00 10.28333 C 8.83 g/m*3 10.28 C 0 km/h
1470 16-07-2019 05:00:00 9.98333 C 8.75 g/m*3 9.98 C 0 km/h
1471 16-07-2019 06:00:00 10.125 C 8.94 g/m*3 10.13 C 1.33333 km/h
1472 16-07-2019 07:00:00 11.01667 C 9.39 g/m*3 11.02 C 4.4 km/h
1473 16-07-2019 08:00:00 12.625 C 10.06 g/m*3 12.63 C 2.4 km/h
1474 16-07-2019 09:00:00 14.58333 C 10.52 g/m*3 14.58 C 4.15 km/h
1475 16-07-2019 10:00:00 15.51667 C 10.25 g/m*3 15.52 C 6.84167 km/h
Sensor: Nr:Datum:Temp:Abs-Feuchte:Windchill:Wind:
Aussen-T/F 1476 16-07-2019 11:00:00 15.99167 C 10.17 g/m*3 15.99 C 9.66667 km/h
1477 16-07-2019 12:00:00 16.725 C 10.22 g/m*3 16.73 C 10.49167 km/h
1478 16-07-2019 13:00:00 17.40833 C 10.29 g/m*3 17.41 C 8.46667 km/h
1479 16-07-2019 14:00:00 18.38333 C 10.45 g/m*3 18.38 C 9.95 km/h
1480 16-07-2019 15:00:00 20.325 C 10.73 g/m*3 20.33 C 7.78333 km/h
1481 16-07-2019 16:00:00 22.31667 C 10.84 g/m*3 22.32 C 8.325 km/h
1482 16-07-2019 17:00:00 22.8 C 10.79 g/m*3 22.8 C 9.55833 km/h
1483 16-07-2019 18:00:00 23.075 C 10.73 g/m*3 23.08 C 8.05833 km/h
1484 16-07-2019 19:00:00 22.125 C 10.59 g/m*3 22.13 C 8.89167 km/h
1485 16-07-2019 20:00:00 20.81667 C 10.57 g/m*3 20.82 C 6.45 km/h
1486 16-07-2019 21:00:00 18.30833 C 10.98 g/m*3 18.31 C 0.53333 km/h
1487 16-07-2019 22:00:00 15.85 C 10.64 g/m*3 15.85 C 0 km/h
1488 16-07-2019 23:00:00 15.08333 C 10.54 g/m*3 15.08 C 0 km/h
1489 17-07-2019 00:00:00 14.09167 C 10.23 g/m*3 14.09 C 0 km/h
1490 17-07-2019 01:00:00 13.08333 C 10.06 g/m*3 13.08 C 0 km/h
1491 17-07-2019 02:00:00 12.40833 C 9.81 g/m*3 12.41 C 0 km/h
1492 17-07-2019 03:00:00 11.64167 C 9.54 g/m*3 11.64 C 0 km/h
1493 17-07-2019 04:00:00 11.225 C 9.42 g/m*3 11.23 C 0.26667 km/h
1494 17-07-2019 05:00:00 10.83333 C 9.29 g/m*3 10.83 C 0 km/h
1495 17-07-2019 06:00:00 10.74167 C 9.31 g/m*3 10.74 C 0 km/h
1496 17-07-2019 07:00:00 11.51667 C 9.83 g/m*3 11.52 C 0 km/h
1497 17-07-2019 08:00:00 12.79167 C 10.58 g/m*3 12.79 C 0 km/h
1498 17-07-2019 09:00:00 14.85833 C 11.26 g/m*3 14.86 C 1.86667 km/h
1499 17-07-2019 10:00:00 17.23333 C 11.36 g/m*3 17.23 C 5.35833 km/h
1500 17-07-2019 11:00:00 18.58333 C 11.4 g/m*3 18.58 C 6.58333 km/h
Sensor: Nr:Datum:Temp:Abs-Feuchte:Windchill:Wind:
Aussen-T/F 1501 17-07-2019 12:00:00 19.39167 C 11.46 g/m*3 19.39 C 7.375 km/h
1502 17-07-2019 13:00:00 20.5 C 11.2 g/m*3 20.5 C 8.88333 km/h
1503 17-07-2019 14:00:00 21.69167 C 11.23 g/m*3 21.69 C 9.13333 km/h
1504 17-07-2019 15:00:00 22.69167 C 11.71 g/m*3 22.69 C 12.63333 km/h
1505 17-07-2019 16:00:00 23.675 C 11.73 g/m*3 23.68 C 11.55833 km/h
1506 17-07-2019 17:00:00 24.575 C 11.91 g/m*3 24.58 C 10.225 km/h
1507 17-07-2019 18:00:00 24.24167 C 11.95 g/m*3 24.24 C 11.3 km/h
1508 17-07-2019 19:00:00 23.20833 C 12.17 g/m*3 23.21 C 10.23333 km/h
1509 17-07-2019 20:00:00 21.525 C 12.13 g/m*3 21.53 C 8.74167 km/h
1510 17-07-2019 21:00:00 19.69167 C 11.99 g/m*3 19.69 C 2.68333 km/h
1511 17-07-2019 22:00:00 17.05 C 11.61 g/m*3 17.05 C 0.13333 km/h
1512 17-07-2019 23:00:00 16.025 C 11.53 g/m*3 16.02 C 0 km/h
1513 18-07-2019 00:00:00 15.29167 C 11.24 g/m*3 15.29 C 0 km/h
1514 18-07-2019 01:00:00 14.29167 C 10.87 g/m*3 14.29 C 0 km/h
1515 18-07-2019 02:00:00 13.69167 C 10.8 g/m*3 13.69 C 0 km/h
1516 18-07-2019 03:00:00 13.45833 C 10.76 g/m*3 13.46 C 0 km/h
1517 18-07-2019 04:00:00 13.24167 C 10.7 g/m*3 13.24 C 0 km/h
1518 18-07-2019 05:00:00 12.675 C 10.35 g/m*3 12.68 C 0 km/h
1519 18-07-2019 06:00:00 12.45833 C 10.34 g/m*3 12.46 C 0 km/h
1520 18-07-2019 07:00:00 13.25833 C 10.95 g/m*3 13.26 C 0 km/h
1521 18-07-2019 08:00:00 14.31667 C 11.46 g/m*3 14.32 C 0.13333 km/h
1522 18-07-2019 09:00:00 16.21667 C 12.3 g/m*3 16.22 C 0 km/h
1523 18-07-2019 10:00:00 18.83333 C 13.12 g/m*3 18.83 C 0.13333 km/h
1524 18-07-2019 11:00:00 21.89167 C 12.42 g/m*3 21.89 C 5.24167 km/h
1525 18-07-2019 12:00:00 24.18333 C 11.91 g/m*3 24.18 C 4.675 km/h
Sensor: Nr:Datum:Temp:Abs-Feuchte:Windchill:Wind:
Aussen-T/F 1526 18-07-2019 13:00:00 25.71667 C 11.76 g/m*3 25.72 C 6.15 km/h
1527 18-07-2019 14:00:00 27.20833 C 10.7 g/m*3 27.21 C 10.325 km/h
1528 18-07-2019 15:00:00 26.04167 C 10.96 g/m*3 26.04 C 7.525 km/h
1529 18-07-2019 16:00:00 24.76667 C 11.91 g/m*3 24.77 C 6.70833 km/h
1530 18-07-2019 17:00:00 24.84167 C 12.8 g/m*3 24.84 C 2.675 km/h
1531 18-07-2019 18:00:00 23.975 C 13.63 g/m*3 23.98 C 1.86667 km/h
1532 18-07-2019 19:00:00 21.06667 C 13.65 g/m*3 21.07 C 0 km/h
1533 18-07-2019 20:00:00 20.86667 C 12.72 g/m*3 20.87 C 0.13333 km/h
1534 18-07-2019 21:00:00 20.35 C 12.19 g/m*3 20.35 C 0 km/h
1535 18-07-2019 22:00:00 19.66667 C 12.15 g/m*3 19.67 C 0.26667 km/h
1536 18-07-2019 23:00:00 19.35833 C 12.07 g/m*3 19.36 C 0 km/h
1537 19-07-2019 00:00:00 19.33333 C 12.31 g/m*3 19.33 C 0 km/h
1538 19-07-2019 01:00:00 18.45833 C 13.01 g/m*3 18.46 C 0 km/h
1539 19-07-2019 02:00:00 17.05833 C 13.06 g/m*3 17.06 C 0 km/h
1540 19-07-2019 03:00:00 16.60833 C 13.05 g/m*3 16.61 C 0 km/h
1541 19-07-2019 04:00:00 16.375 C 13.02 g/m*3 16.38 C 0 km/h
1542 19-07-2019 05:00:00 16.3 C 13.06 g/m*3 16.3 C 0 km/h
1543 19-07-2019 06:00:00 16.35 C 13.22 g/m*3 16.35 C 0 km/h
1544 19-07-2019 07:00:00 16.7 C 13.54 g/m*3 16.7 C 0 km/h
1545 19-07-2019 08:00:00 17.23333 C 14.09 g/m*3 17.23 C 0.4 km/h
1546 19-07-2019 09:00:00 18.025 C 14.59 g/m*3 18.02 C 2.55 km/h
1547 19-07-2019 10:00:00 19.275 C 14.96 g/m*3 19.27 C 6.16667 km/h
1548 19-07-2019 11:00:00 20.475 C 14.87 g/m*3 20.48 C 6.725 km/h
1549 19-07-2019 12:00:00 20.04167 C 14.93 g/m*3 20.04 C 2.94167 km/h
1550 19-07-2019 13:00:00 21.975 C 14.5 g/m*3 21.98 C 7.54167 km/h
Sensor: Nr:Datum:Temp:Abs-Feuchte:Windchill:Wind:
Aussen-T/F 1551 19-07-2019 14:00:00 23.525 C 12.9 g/m*3 23.53 C 10.73333 km/h
1552 19-07-2019 15:00:00 24.875 C 12.08 g/m*3 24.88 C 10.76667 km/h
1553 19-07-2019 16:00:00 25.21667 C 11.79 g/m*3 25.22 C 10.23333 km/h
1554 19-07-2019 17:00:00 25.91667 C 12.02 g/m*3 25.92 C 8.2 km/h
1555 19-07-2019 18:00:00 25.43333 C 12.05 g/m*3 25.43 C 6.425 km/h
1556 19-07-2019 19:00:00 24.78333 C 13.68 g/m*3 24.78 C 1.6 km/h
1557 19-07-2019 20:00:00 23.25833 C 13.4 g/m*3 23.26 C 0.8 km/h
1558 19-07-2019 21:00:00 20.90833 C 13.04 g/m*3 20.91 C 0 km/h
1559 19-07-2019 22:00:00 19.20833 C 13.05 g/m*3 19.21 C 0 km/h
1560 19-07-2019 23:00:00 18.525 C 13.14 g/m*3 18.52 C 0 km/h
1561 20-07-2019 00:00:00 17.39167 C 12.76 g/m*3 17.39 C 0 km/h
1562 20-07-2019 01:00:00 16.6 C 12.47 g/m*3 16.6 C 0 km/h
1563 20-07-2019 02:00:00 15.74167 C 12.14 g/m*3 15.74 C 0 km/h
1564 20-07-2019 03:00:00 15.025 C 11.87 g/m*3 15.03 C 0 km/h
1565 20-07-2019 04:00:00 14.55833 C 11.66 g/m*3 14.56 C 0 km/h
1566 20-07-2019 05:00:00 14.18333 C 11.48 g/m*3 14.18 C 0 km/h
1567 20-07-2019 06:00:00 13.96667 C 11.43 g/m*3 13.97 C 0 km/h
1568 20-07-2019 07:00:00 14.56667 C 11.96 g/m*3 14.57 C 0 km/h
1569 20-07-2019 08:00:00 15.86667 C 12.97 g/m*3 15.87 C 0 km/h
1570 20-07-2019 09:00:00 17.73333 C 14.34 g/m*3 17.73 C 0 km/h
1571 20-07-2019 10:00:00 21.4 C 16.36 g/m*3 21.4 C 0 km/h
1572 20-07-2019 11:00:00 25.8 C 15.23 g/m*3 25.8 C 7.65 km/h
1573 20-07-2019 12:00:00 27.775 C 13.81 g/m*3 27.78 C 12.36667 km/h
1574 20-07-2019 13:00:00 28.175 C 13.87 g/m*3 28.18 C 8.6 km/h
1575 20-07-2019 14:00:00 30.04167 C 13.8 g/m*3 30.04 C 13.96667 km/h
Sensor: Nr:Datum:Temp:Abs-Feuchte:Windchill:Wind:
Aussen-T/F 1576 20-07-2019 15:00:00 30.8 C 13.85 g/m*3 30.8 C 10.35 km/h
1577 20-07-2019 16:00:00 28.94167 C 18.44 g/m*3 28.94 C 5.09167 km/h
1578 20-07-2019 17:00:00 28.35 C 16.89 g/m*3 28.35 C 12.75833 km/h
1579 20-07-2019 18:00:00 28.925 C 14.11 g/m*3 28.93 C 10.60833 km/h
1580 20-07-2019 19:00:00 27.50833 C 14.18 g/m*3 27.51 C 15.16667 km/h
1581 20-07-2019 20:00:00 23.425 C 14.65 g/m*3 23.43 C 3.35 km/h
1582 20-07-2019 21:00:00 21.725 C 14.53 g/m*3 21.73 C 0 km/h
1583 20-07-2019 22:00:00 20.56667 C 14.31 g/m*3 20.57 C 0 km/h
1584 20-07-2019 23:00:00 19.75 C 14.23 g/m*3 19.75 C 0 km/h
1585 21-07-2019 00:00:00 19.08333 C 14.03 g/m*3 19.08 C 0 km/h
1586 21-07-2019 01:00:00 18.58333 C 13.98 g/m*3 18.58 C 0 km/h
1587 21-07-2019 02:00:00 18.875 C 14.19 g/m*3 18.88 C 0 km/h
1588 21-07-2019 03:00:00 18.65 C 14.15 g/m*3 18.65 C 0 km/h
1589 21-07-2019 04:00:00 17.95 C 13.68 g/m*3 17.95 C 0 km/h
1590 21-07-2019 05:00:00 17.46667 C 13.56 g/m*3 17.47 C 0 km/h
1591 21-07-2019 06:00:00 17.73333 C 13.86 g/m*3 17.73 C 0 km/h
1592 21-07-2019 07:00:00 18.5 C 14.11 g/m*3 18.5 C 0 km/h
1593 21-07-2019 08:00:00 19.34167 C 13.37 g/m*3 19.34 C 2.4 km/h
1594 21-07-2019 09:00:00 20.30833 C 13.02 g/m*3 20.31 C 7.53333 km/h
1595 21-07-2019 10:00:00 21.85833 C 12.75 g/m*3 21.86 C 7.25 km/h
1596 21-07-2019 11:00:00 23.79167 C 11.57 g/m*3 23.79 C 11.41667 km/h
1597 21-07-2019 12:00:00 24.96667 C 11.74 g/m*3 24.97 C 11.55833 km/h
1598 21-07-2019 13:00:00 24.95833 C 12.23 g/m*3 24.96 C 9.15 km/h
1599 21-07-2019 14:00:00 26.01667 C 12.45 g/m*3 26.02 C 9.825 km/h
1600 21-07-2019 15:00:00 26.84167 C 12.33 g/m*3 26.84 C 11.55833 km/h
Sensor: Nr:Datum:Temp:Abs-Feuchte:Windchill:Wind:
Aussen-T/F 1601 21-07-2019 16:00:00 27.76667 C 12.33 g/m*3 27.77 C 10.09167 km/h
1602 21-07-2019 17:00:00 27.275 C 12.43 g/m*3 27.28 C 11.16667 km/h
1603 21-07-2019 18:00:00 26.44167 C 12.29 g/m*3 26.44 C 9.41667 km/h
1604 21-07-2019 19:00:00 25.40833 C 12.29 g/m*3 25.41 C 8.2 km/h
1605 21-07-2019 20:00:00 24.4 C 12.2 g/m*3 24.4 C 7.51667 km/h
1606 21-07-2019 21:00:00 22.64167 C 12.32 g/m*3 22.64 C 0.93333 km/h
1607 21-07-2019 22:00:00 19.85 C 12.25 g/m*3 19.85 C 0 km/h
1608 21-07-2019 23:00:00 18.35 C 12.26 g/m*3 18.35 C 0 km/h
1609 22-07-2019 00:00:00 17.075 C 11.79 g/m*3 17.08 C 0 km/h
1610 22-07-2019 01:00:00 16.15833 C 11.58 g/m*3 16.16 C 0 km/h
1611 22-07-2019 02:00:00 15.64167 C 11.65 g/m*3 15.64 C 0 km/h
1612 22-07-2019 03:00:00 15.33333 C 11.56 g/m*3 15.33 C 0 km/h
1613 22-07-2019 04:00:00 14.74167 C 11.3 g/m*3 14.74 C 0 km/h
1614 22-07-2019 05:00:00 14.3 C 11.17 g/m*3 14.3 C 0 km/h
1615 22-07-2019 06:00:00 14.175 C 11.2 g/m*3 14.18 C 0 km/h
1616 22-07-2019 07:00:00 14.725 C 11.7 g/m*3 14.73 C 0 km/h
1617 22-07-2019 08:00:00 16.28333 C 12.37 g/m*3 16.28 C 0 km/h
1618 22-07-2019 09:00:00 18.20833 C 13.05 g/m*3 18.21 C 0 km/h
1619 22-07-2019 10:00:00 20.80833 C 13.45 g/m*3 20.81 C 0 km/h
1620 22-07-2019 11:00:00 24.00833 C 12.62 g/m*3 24.01 C 5.225 km/h
1621 22-07-2019 12:00:00 25.55833 C 12.49 g/m*3 25.56 C 9.13333 km/h
1622 22-07-2019 13:00:00 26.41667 C 12.5 g/m*3 26.42 C 7.93333 km/h
1623 22-07-2019 14:00:00 27.775 C 12.29 g/m*3 27.78 C 6.99167 km/h
1624 22-07-2019 15:00:00 29.05 C 12.41 g/m*3 29.05 C 9.55833 km/h
1625 22-07-2019 16:00:00 30.80833 C 12.27 g/m*3 30.81 C 10.75833 km/h
Sensor: Nr:Datum:Temp:Abs-Feuchte:Windchill:Wind:
Aussen-T/F 1626 22-07-2019 17:00:00 31.51667 C 12.12 g/m*3 31.52 C 7.79167 km/h
1627 22-07-2019 18:00:00 32.31667 C 12.13 g/m*3 32.32 C 6.575 km/h
1628 22-07-2019 19:00:00 31.475 C 11.93 g/m*3 31.48 C 7.375 km/h
1629 22-07-2019 20:00:00 29.425 C 12.62 g/m*3 29.43 C 6.56667 km/h
1630 22-07-2019 21:00:00 25.59167 C 13.44 g/m*3 25.59 C 0 km/h
1631 22-07-2019 22:00:00 22.85 C 12.97 g/m*3 22.85 C 0 km/h
1632 22-07-2019 23:00:00 20.925 C 12.95 g/m*3 20.93 C 0 km/h
1633 23-07-2019 00:00:00 19.4 C 12.72 g/m*3 19.4 C 0 km/h
1634 23-07-2019 01:00:00 18.375 C 12.54 g/m*3 18.38 C 0 km/h
1635 23-07-2019 02:00:00 17.55833 C 12.34 g/m*3 17.56 C 0 km/h
1636 23-07-2019 03:00:00 16.84167 C 12.19 g/m*3 16.84 C 0 km/h
1637 23-07-2019 04:00:00 16.29167 C 12.12 g/m*3 16.29 C 0 km/h
1638 23-07-2019 05:00:00 15.825 C 12.01 g/m*3 15.83 C 0 km/h
1639 23-07-2019 06:00:00 15.65833 C 12.12 g/m*3 15.66 C 0 km/h
1640 23-07-2019 07:00:00 16.10833 C 12.48 g/m*3 16.11 C 0 km/h
1641 23-07-2019 08:00:00 16.83333 C 12.98 g/m*3 16.83 C 0 km/h
1642 23-07-2019 09:00:00 18.70833 C 13.95 g/m*3 18.71 C 0 km/h
1643 23-07-2019 10:00:00 22.425 C 14.92 g/m*3 22.43 C 1.61667 km/h
1644 23-07-2019 11:00:00 27.35 C 13.99 g/m*3 27.35 C 7.24167 km/h
1645 23-07-2019 12:00:00 29.59167 C 13.05 g/m*3 29.59 C 11.55833 km/h
1646 23-07-2019 13:00:00 30.78333 C 12.63 g/m*3 30.78 C 10.33333 km/h
1647 23-07-2019 14:00:00 32.11667 C 12.63 g/m*3 32.12 C 9 km/h
1648 23-07-2019 15:00:00 33.90833 C 13.1 g/m*3 33.91 C 8.74167 km/h
1649 23-07-2019 16:00:00 35.8 C 12.74 g/m*3 35.8 C 7.24167 km/h
1650 23-07-2019 17:00:00 36.38333 C 12.17 g/m*3 36.38 C 7.8 km/h
Sensor: Nr:Datum:Temp:Abs-Feuchte:Windchill:Wind:
Aussen-T/F 1651 23-07-2019 18:00:00 36.76667 C 12.31 g/m*3 36.77 C 7.51667 km/h
1652 23-07-2019 19:00:00 35.64167 C 12.6 g/m*3 35.64 C 5.88333 km/h
1653 23-07-2019 20:00:00 32.725 C 14.27 g/m*3 32.73 C 1.73333 km/h
1654 23-07-2019 21:00:00 28.00833 C 13.69 g/m*3 28.01 C 1.6 km/h
1655 23-07-2019 22:00:00 25.2 C 13.46 g/m*3 25.2 C 0.26667 km/h
1656 23-07-2019 23:00:00 22.93333 C 13.51 g/m*3 22.93 C 0 km/h
1657 24-07-2019 00:00:00 21.44167 C 13.44 g/m*3 21.44 C 0 km/h
1658 24-07-2019 01:00:00 20.31667 C 13.45 g/m*3 20.32 C 0 km/h
1659 24-07-2019 02:00:00 19.30833 C 13.11 g/m*3 19.31 C 0 km/h
1660 24-07-2019 03:00:00 18.63333 C 13.04 g/m*3 18.63 C 0 km/h
1661 24-07-2019 04:00:00 17.76667 C 12.81 g/m*3 17.77 C 0 km/h
1662 24-07-2019 05:00:00 17.23333 C 12.78 g/m*3 17.23 C 0 km/h
1663 24-07-2019 06:00:00 17.075 C 12.83 g/m*3 17.08 C 0 km/h
1664 24-07-2019 07:00:00 17.26667 C 13.23 g/m*3 17.27 C 0 km/h
1665 24-07-2019 08:00:00 18.325 C 13.91 g/m*3 18.33 C 0 km/h
1666 24-07-2019 09:00:00 20.23333 C 14.95 g/m*3 20.23 C 0 km/h
1667 24-07-2019 10:00:00 23.75 C 15.53 g/m*3 23.75 C 0 km/h
1668 24-07-2019 11:00:00 27.43333 C 15.68 g/m*3 27.43 C 0 km/h
1669 24-07-2019 12:00:00 32.04167 C 14.1 g/m*3 32.04 C 2.95833 km/h
1670 24-07-2019 13:00:00 34.175 C 11.01 g/m*3 34.17 C 7.11667 km/h
1671 24-07-2019 14:00:00 35.31667 C 10.78 g/m*3 35.32 C 6.28333 km/h
1672 24-07-2019 15:00:00 36.975 C 11.38 g/m*3 36.98 C 6.03333 km/h
1673 24-07-2019 16:00:00 39.59167 C 11.54 g/m*3 39.59 C 6.425 km/h
1674 24-07-2019 17:00:00 39.60833 C 11.47 g/m*3 39.61 C 9 km/h
1675 24-07-2019 18:00:00 39.31667 C 11.18 g/m*3 39.32 C 9.40833 km/h
Sensor: Nr:Datum:Temp:Abs-Feuchte:Windchill:Wind:
Aussen-T/F 1676 24-07-2019 19:00:00 38.49167 C 13.05 g/m*3 38.49 C 4.83333 km/h
1677 24-07-2019 20:00:00 33.13333 C 14.34 g/m*3 33.13 C 0.4 km/h
1678 24-07-2019 21:00:00 28.825 C 13.89 g/m*3 28.83 C 1.2 km/h
1679 24-07-2019 22:00:00 27.375 C 13.66 g/m*3 27.38 C 0.66667 km/h
1680 24-07-2019 23:00:00 25.58333 C 13.87 g/m*3 25.58 C 0 km/h
1681 25-07-2019 00:00:00 23.68333 C 13.48 g/m*3 23.68 C 0 km/h
1682 25-07-2019 01:00:00 22.53333 C 13.32 g/m*3 22.53 C 0 km/h
1683 25-07-2019 02:00:00 21.6 C 13.37 g/m*3 21.6 C 0 km/h
1684 25-07-2019 03:00:00 20.89167 C 13.46 g/m*3 20.89 C 0 km/h
1685 25-07-2019 04:00:00 20.075 C 13.5 g/m*3 20.08 C 0 km/h
1686 25-07-2019 05:00:00 19.35833 C 13.31 g/m*3 19.36 C 0 km/h
1687 25-07-2019 06:00:00 19.19167 C 13.56 g/m*3 19.19 C 0 km/h
1688 25-07-2019 07:00:00 19.55833 C 14.12 g/m*3 19.56 C 0 km/h
1689 25-07-2019 08:00:00 20.73333 C 14.93 g/m*3 20.73 C 0 km/h
1690 25-07-2019 09:00:00 22.75833 C 15.59 g/m*3 22.76 C 0 km/h
1691 25-07-2019 10:00:00 25.84167 C 16.09 g/m*3 25.84 C 0 km/h
1692 25-07-2019 11:00:00 29.93333 C 16.11 g/m*3 29.93 C 1.73333 km/h
1693 25-07-2019 12:00:00 34.525 C 13.66 g/m*3 34.53 C 8.06667 km/h
1694 25-07-2019 13:00:00 36.46667 C 13.22 g/m*3 36.47 C 9.025 km/h
1695 25-07-2019 14:00:00 37.425 C 12.92 g/m*3 37.42 C 7.76667 km/h
1696 25-07-2019 15:00:00 38.79167 C 12.64 g/m*3 38.79 C 9 km/h
1697 25-07-2019 16:00:00 40.15 C 12.17 g/m*3 40.15 C 11.95833 km/h
1698 25-07-2019 17:00:00 39.80833 C 11.41 g/m*3 39.81 C 13.29167 km/h
1699 25-07-2019 18:00:00 39.09167 C 11.46 g/m*3 39.09 C 10.1 km/h
1700 25-07-2019 19:00:00 36.66667 C 14.4 g/m*3 36.67 C 1.88333 km/h
Sensor: Nr:Datum:Temp:Abs-Feuchte:Windchill:Wind:
Aussen-T/F 1701 25-07-2019 20:00:00 32.81667 C 14.75 g/m*3 32.82 C 0 km/h
1702 25-07-2019 21:00:00 30.34167 C 13.8 g/m*3 30.34 C 1.46667 km/h
1703 25-07-2019 22:00:00 28.75833 C 13.39 g/m*3 28.76 C 1.06667 km/h
1704 25-07-2019 23:00:00 27.56667 C 13.19 g/m*3 27.57 C 0.93333 km/h
1705 26-07-2019 00:00:00 26.19167 C 13.14 g/m*3 26.19 C 0 km/h
1706 26-07-2019 01:00:00 25 C 13.14 g/m*3 25 C 0 km/h
1707 26-07-2019 02:00:00 22.51667 C 13.4 g/m*3 22.52 C 0 km/h
1708 26-07-2019 03:00:00 20.99167 C 13.12 g/m*3 20.99 C 0 km/h
1709 26-07-2019 04:00:00 20.125 C 13.33 g/m*3 20.13 C 0 km/h
1710 26-07-2019 05:00:00 19.29167 C 13.1 g/m*3 19.29 C 0 km/h
1711 26-07-2019 06:00:00 18.95833 C 13.06 g/m*3 18.96 C 0 km/h
1712 26-07-2019 07:00:00 19.61667 C 13.94 g/m*3 19.62 C 0 km/h
1713 26-07-2019 08:00:00 21.10833 C 14.75 g/m*3 21.11 C 0 km/h
1714 26-07-2019 09:00:00 23.50833 C 14.65 g/m*3 23.51 C 1.06667 km/h
1715 26-07-2019 10:00:00 28.225 C 13.63 g/m*3 28.23 C 6.70833 km/h
1716 26-07-2019 11:00:00 32.05 C 13.14 g/m*3 32.05 C 4.4 km/h
1717 26-07-2019 12:00:00 34.35 C 13.18 g/m*3 34.35 C 8.85833 km/h
1718 26-07-2019 13:00:00 36.00833 C 12.88 g/m*3 36.01 C 9.55833 km/h
1719 26-07-2019 14:00:00 37.35833 C 11.94 g/m*3 37.36 C 7.10833 km/h
1720 26-07-2019 15:00:00 37.1 C 12.48 g/m*3 37.1 C 13.56667 km/h
1721 26-07-2019 16:00:00 35.28333 C 13.64 g/m*3 35.28 C 5.775 km/h
1722 26-07-2019 17:00:00 32.5 C 14.7 g/m*3 32.5 C 6.04167 km/h
1723 26-07-2019 18:00:00 30.44167 C 14.13 g/m*3 30.44 C 9.525 km/h
1724 26-07-2019 19:00:00 28.825 C 14.84 g/m*3 28.83 C 0.4 km/h
1725 26-07-2019 20:00:00 27.525 C 15.3 g/m*3 27.53 C 0 km/h
Sensor: Nr:Datum:Temp:Abs-Feuchte:Windchill:Wind:
Aussen-T/F 1726 26-07-2019 21:00:00 26.33333 C 14.72 g/m*3 26.33 C 0.4 km/h
1727 26-07-2019 22:00:00 25.5 C 14.7 g/m*3 25.5 C 0.26667 km/h
1728 26-07-2019 23:00:00 24.35833 C 14.82 g/m*3 24.36 C 0.26667 km/h
1729 27-07-2019 00:00:00 23.15 C 14.56 g/m*3 23.15 C 0.53333 km/h
1730 27-07-2019 01:00:00 22.63333 C 14.74 g/m*3 22.63 C 0 km/h
1731 27-07-2019 02:00:00 22.33333 C 14.87 g/m*3 22.33 C 0 km/h
1732 27-07-2019 03:00:00 22.59167 C 15.01 g/m*3 22.59 C 1.2 km/h
1733 27-07-2019 04:00:00 20.9 C 15.74 g/m*3 20.9 C 0 km/h
1734 27-07-2019 05:00:00 20.275 C 15.59 g/m*3 20.27 C 0 km/h
1735 27-07-2019 06:00:00 20.525 C 15.79 g/m*3 20.53 C 0.26667 km/h
1736 27-07-2019 07:00:00 21.25 C 16.39 g/m*3 21.25 C 0 km/h
1737 27-07-2019 08:00:00 22.575 C 16.33 g/m*3 22.58 C 1.6 km/h
1738 27-07-2019 09:00:00 24.725 C 16.66 g/m*3 24.73 C 3.6 km/h
1739 27-07-2019 10:00:00 24.64167 C 18.42 g/m*3 24.64 C 2.55 km/h
1740 27-07-2019 11:00:00 23.94167 C 18.78 g/m*3 23.94 C 0.53333 km/h
1741 27-07-2019 12:00:00 23.75 C 17.91 g/m*3 23.75 C 2 km/h
1742 27-07-2019 13:00:00 26 C 17.97 g/m*3 26 C 5.89167 km/h
1743 27-07-2019 14:00:00 25.725 C 17.04 g/m*3 25.73 C 4.675 km/h
1744 27-07-2019 15:00:00 25.04167 C 17.09 g/m*3 25.04 C 7.26667 km/h
1745 27-07-2019 16:00:00 25.96667 C 16.65 g/m*3 25.97 C 11.56667 km/h
1746 27-07-2019 17:00:00 24.49167 C 16.98 g/m*3 24.49 C 7.91667 km/h
1747 27-07-2019 18:00:00 24.90833 C 17.35 g/m*3 24.91 C 6.28333 km/h
1748 27-07-2019 19:00:00 23.84167 C 17.41 g/m*3 23.84 C 6.98333 km/h
1749 27-07-2019 20:00:00 22.88333 C 17.34 g/m*3 22.88 C 5.74167 km/h
1750 27-07-2019 21:00:00 22.075 C 16.7 g/m*3 22.08 C 6.975 km/h
Sensor: Nr:Datum:Temp:Abs-Feuchte:Windchill:Wind:
Aussen-T/F 1751 27-07-2019 22:00:00 21.45 C 16.39 g/m*3 21.45 C 7.93333 km/h
1752 27-07-2019 23:00:00 21.14167 C 16.39 g/m*3 21.14 C 3.21667 km/h
1753 28-07-2019 00:00:00 20.83333 C 16.31 g/m*3 20.83 C 2.8 km/h
1754 28-07-2019 01:00:00 20.70833 C 16.21 g/m*3 20.71 C 2.8 km/h
1755 28-07-2019 02:00:00 20.7 C 16.2 g/m*3 20.7 C 1.73333 km/h
1756 28-07-2019 03:00:00 20.68333 C 16.19 g/m*3 20.68 C 0.4 km/h
1757 28-07-2019 04:00:00 20.60833 C 16.26 g/m*3 20.61 C 0.93333 km/h
1758 28-07-2019 05:00:00 20.55 C 16.24 g/m*3 20.55 C 2.26667 km/h
1759 28-07-2019 06:00:00 20.54167 C 16.23 g/m*3 20.54 C 2.13333 km/h
1760 28-07-2019 07:00:00 20.69167 C 16.19 g/m*3 20.69 C 7.65 km/h
1761 28-07-2019 08:00:00 20.71667 C 16.05 g/m*3 20.72 C 8.34167 km/h
1762 28-07-2019 09:00:00 20.425 C 16 g/m*3 20.43 C 8.34167 km/h
1763 28-07-2019 10:00:00 20.025 C 15.89 g/m*3 20.02 C 8.05833 km/h
1764 28-07-2019 11:00:00 20.08333 C 15.95 g/m*3 20.08 C 5.89167 km/h
1765 28-07-2019 12:00:00 20.50833 C 15.64 g/m*3 20.51 C 7.8 km/h
1766 28-07-2019 13:00:00 20.30833 C 15.37 g/m*3 20.31 C 6.45 km/h
1767 28-07-2019 14:00:00 19.98333 C 15.41 g/m*3 19.98 C 6.56667 km/h
1768 28-07-2019 15:00:00 19.90833 C 15.16 g/m*3 19.91 C 7.79167 km/h
1769 28-07-2019 16:00:00 19.81667 C 14.99 g/m*3 19.82 C 5.9 km/h
1770 28-07-2019 17:00:00 19.45833 C 15.04 g/m*3 19.46 C 3.625 km/h
1771 28-07-2019 18:00:00 19.175 C 14.89 g/m*3 19.18 C 3.475 km/h
1772 28-07-2019 19:00:00 18.875 C 14.81 g/m*3 18.88 C 0.26667 km/h
1773 28-07-2019 20:00:00 18.5 C 14.67 g/m*3 18.5 C 0 km/h
1774 28-07-2019 21:00:00 18.175 C 14.56 g/m*3 18.18 C 0 km/h
1775 28-07-2019 22:00:00 17.90833 C 14.47 g/m*3 17.91 C 0.4 km/h
Sensor: Nr:Datum:Temp:Abs-Feuchte:Windchill:Wind:
Aussen-T/F 1776 28-07-2019 23:00:00 17.6 C 14.25 g/m*3 17.6 C 0 km/h
1777 29-07-2019 00:00:00 17.325 C 14.02 g/m*3 17.33 C 0.13333 km/h
1778 29-07-2019 01:00:00 17.10833 C 13.84 g/m*3 17.11 C 1.33333 km/h
1779 29-07-2019 02:00:00 16.975 C 13.83 g/m*3 16.98 C 0 km/h
1780 29-07-2019 03:00:00 16.84167 C 13.76 g/m*3 16.84 C 0 km/h
1781 29-07-2019 04:00:00 16.80833 C 13.73 g/m*3 16.81 C 0 km/h
1782 29-07-2019 05:00:00 16.74167 C 13.68 g/m*3 16.74 C 0 km/h
1783 29-07-2019 06:00:00 16.725 C 13.66 g/m*3 16.73 C 0 km/h
1784 29-07-2019 07:00:00 16.99167 C 13.85 g/m*3 16.99 C 2.13333 km/h
1785 29-07-2019 08:00:00 17.46667 C 13.78 g/m*3 17.47 C 1.33333 km/h
1786 29-07-2019 09:00:00 18.49167 C 13.65 g/m*3 18.49 C 6.04167 km/h
1787 29-07-2019 10:00:00 19.39167 C 13.23 g/m*3 19.39 C 6.01667 km/h
1788 29-07-2019 11:00:00 20.475 C 13.1 g/m*3 20.48 C 6.84167 km/h
1789 29-07-2019 12:00:00 21.95 C 12.85 g/m*3 21.95 C 7.94167 km/h
1790 29-07-2019 13:00:00 23.25 C 12.93 g/m*3 23.25 C 8.2 km/h
1791 29-07-2019 14:00:00 24.41667 C 12.81 g/m*3 24.42 C 6.58333 km/h
1792 29-07-2019 15:00:00 25.83333 C 12.4 g/m*3 25.83 C 10.88333 km/h
1793 29-07-2019 16:00:00 27.6 C 12.17 g/m*3 27.6 C 7.79167 km/h
1794 29-07-2019 17:00:00 28.23333 C 11.91 g/m*3 28.23 C 7.79167 km/h
1795 29-07-2019 18:00:00 27.70833 C 11.64 g/m*3 27.71 C 4.94167 km/h
1796 29-07-2019 19:00:00 28.1 C 11.85 g/m*3 28.1 C 6.29167 km/h
1797 29-07-2019 20:00:00 26.33333 C 12.19 g/m*3 26.33 C 3.475 km/h
1798 29-07-2019 21:00:00 23.05833 C 12.72 g/m*3 23.06 C 0 km/h
1799 29-07-2019 22:00:00 20.75833 C 12.58 g/m*3 20.76 C 0 km/h
1800 29-07-2019 23:00:00 19.34167 C 12.57 g/m*3 19.34 C 0 km/h
Sensor: Nr:Datum:Temp:Abs-Feuchte:Windchill:Wind:
Aussen-T/F 1801 30-07-2019 00:00:00 17.95 C 12.42 g/m*3 17.95 C 0 km/h
1802 30-07-2019 01:00:00 17.425 C 12.39 g/m*3 17.43 C 0 km/h
1803 30-07-2019 02:00:00 16.6 C 12.08 g/m*3 16.6 C 0 km/h
1804 30-07-2019 03:00:00 15.875 C 11.92 g/m*3 15.88 C 0 km/h
1805 30-07-2019 04:00:00 15.4 C 11.84 g/m*3 15.4 C 0 km/h
1806 30-07-2019 05:00:00 15.03333 C 11.76 g/m*3 15.03 C 0 km/h
1807 30-07-2019 06:00:00 14.725 C 11.71 g/m*3 14.73 C 0 km/h
1808 30-07-2019 07:00:00 14.93333 C 11.98 g/m*3 14.93 C 0 km/h
1809 30-07-2019 08:00:00 15.88333 C 12.71 g/m*3 15.88 C 0 km/h
1810 30-07-2019 09:00:00 17.4 C 13.61 g/m*3 17.4 C 0 km/h
1811 30-07-2019 10:00:00 20.275 C 14.44 g/m*3 20.27 C 0 km/h
1812 30-07-2019 11:00:00 24.96667 C 13.31 g/m*3 24.97 C 9.80833 km/h
1813 30-07-2019 12:00:00 27.025 C 11.73 g/m*3 27.03 C 13.3 km/h
1814 30-07-2019 13:00:00 28.24167 C 10.82 g/m*3 28.24 C 11.43333 km/h
1815 30-07-2019 14:00:00 29.49167 C 11.11 g/m*3 29.49 C 13.43333 km/h
1816 30-07-2019 15:00:00 30.69167 C 11.36 g/m*3 30.69 C 15.83333 km/h
1817 30-07-2019 16:00:00 31.20833 C 11.08 g/m*3 31.21 C 16.5 km/h
1818 30-07-2019 17:00:00 29.30833 C 11.05 g/m*3 29.31 C 17.56667 km/h
1819 30-07-2019 18:00:00 26.625 C 10.27 g/m*3 26.63 C 12.48333 km/h
1820 30-07-2019 19:00:00 24.55833 C 11.47 g/m*3 24.56 C 10.21667 km/h
1821 30-07-2019 20:00:00 24.09167 C 12.06 g/m*3 24.09 C 6.16667 km/h
1822 30-07-2019 21:00:00 23.675 C 12.12 g/m*3 23.68 C 0 km/h
1823 30-07-2019 22:00:00 22.20833 C 12.33 g/m*3 22.21 C 0 km/h
1824 30-07-2019 23:00:00 21.175 C 12.58 g/m*3 21.18 C 0 km/h
1825 31-07-2019 00:00:00 20.55 C 12.46 g/m*3 20.55 C 0 km/h
Sensor: Nr:Datum:Temp:Abs-Feuchte:Windchill:Wind:
Aussen-T/F 1826 31-07-2019 01:00:00 20.325 C 12.51 g/m*3 20.33 C 1.06667 km/h
1827 31-07-2019 02:00:00 19.70833 C 12.18 g/m*3 19.71 C 0 km/h
1828 31-07-2019 03:00:00 18.63333 C 11.97 g/m*3 18.63 C 0.26667 km/h
1829 31-07-2019 04:00:00 18.575 C 12.24 g/m*3 18.58 C 0.93333 km/h
1830 31-07-2019 05:00:00 17.83333 C 11.86 g/m*3 17.83 C 0 km/h
1831 31-07-2019 06:00:00 17.64167 C 11.79 g/m*3 17.64 C 0 km/h
1832 31-07-2019 07:00:00 17.375 C 11.83 g/m*3 17.38 C 0.26667 km/h
1833 31-07-2019 08:00:00 18.44167 C 11.89 g/m*3 18.44 C 4.825 km/h
1834 31-07-2019 09:00:00 20.01667 C 11.71 g/m*3 20.02 C 10.74167 km/h
1835 31-07-2019 10:00:00 21.35833 C 10.99 g/m*3 21.36 C 13.16667 km/h
1836 31-07-2019 11:00:00 21.60833 C 10.48 g/m*3 21.61 C 13.55833 km/h
1837 31-07-2019 12:00:00 22.66667 C 10.25 g/m*3 22.67 C 16.63333 km/h
1838 31-07-2019 13:00:00 23.69167 C 10.05 g/m*3 23.69 C 15.3 km/h
1839 31-07-2019 14:00:00 24.76667 C 9.64 g/m*3 24.77 C 14.23333 km/h
1840 31-07-2019 15:00:00 25.55 C 9.52 g/m*3 25.55 C 14.09167 km/h
1841 31-07-2019 16:00:00 24.95833 C 9.72 g/m*3 24.96 C 13.7 km/h
1842 31-07-2019 17:00:00 25.25 C 10.02 g/m*3 25.25 C 14.23333 km/h
1843 31-07-2019 18:00:00 23.875 C 10.17 g/m*3 23.88 C 8.06667 km/h
1844 31-07-2019 19:00:00 23.49167 C 10.25 g/m*3 23.49 C 6.975 km/h
1845 31-07-2019 20:00:00 22.09167 C 10.88 g/m*3 22.09 C 1.46667 km/h
1846 31-07-2019 21:00:00 19.925 C 10.27 g/m*3 19.93 C 0 km/h
1847 31-07-2019 22:00:00 18.68333 C 9.76 g/m*3 18.68 C 0.4 km/h
1848 31-07-2019 23:00:00 18.45 C 9.95 g/m*3 18.45 C 0.4 km/h
1849 01-08-2019 00:00:00 16.88333 C 10.09 g/m*3 16.88 C 0.4 km/h
1850 01-08-2019 01:00:00 15.525 C 9.93 g/m*3 15.53 C 0.13333 km/h
Sensor: Nr:Datum:Temp:Abs-Feuchte:Windchill:Wind:
Aussen-T/F 1851 01-08-2019 02:00:00 14.73333 C 9.96 g/m*3 14.73 C 0.4 km/h
1852 01-08-2019 03:00:00 14.15833 C 9.87 g/m*3 14.16 C 0.26667 km/h
1853 01-08-2019 04:00:00 12.95833 C 9.61 g/m*3 12.96 C 0.66667 km/h
1854 01-08-2019 05:00:00 12.625 C 9.62 g/m*3 12.63 C 0.4 km/h
1855 01-08-2019 06:00:00 12.125 C 9.51 g/m*3 12.13 C 0 km/h
1856 01-08-2019 07:00:00 12.55833 C 9.84 g/m*3 12.56 C 0.4 km/h
1857 01-08-2019 08:00:00 15.175 C 10.56 g/m*3 15.18 C 0.93333 km/h
1858 01-08-2019 09:00:00 17.56667 C 11.01 g/m*3 17.57 C 5.075 km/h
1859 01-08-2019 10:00:00 20.3 C 10.98 g/m*3 20.3 C 10.5 km/h
1860 01-08-2019 11:00:00 21.775 C 10.68 g/m*3 21.78 C 11.825 km/h
1861 01-08-2019 12:00:00 22.45 C 10.66 g/m*3 22.45 C 9.275 km/h
1862 01-08-2019 13:00:00 23.16667 C 11 g/m*3 23.17 C 6.43333 km/h
1863 01-08-2019 14:00:00 24.15 C 10.84 g/m*3 24.15 C 8.60833 km/h
1864 01-08-2019 15:00:00 24.575 C 10.99 g/m*3 24.58 C 8.45833 km/h
1865 01-08-2019 16:00:00 24.4 C 11.13 g/m*3 24.4 C 7.375 km/h
1866 01-08-2019 17:00:00 25.13333 C 11.06 g/m*3 25.13 C 6.28333 km/h
1867 01-08-2019 18:00:00 26.35 C 11.11 g/m*3 26.35 C 7.53333 km/h
1868 01-08-2019 19:00:00 26.26667 C 11.16 g/m*3 26.27 C 6.025 km/h
1869 01-08-2019 20:00:00 24.10833 C 11.78 g/m*3 24.11 C 2.53333 km/h
1870 01-08-2019 21:00:00 21.15 C 11.58 g/m*3 21.15 C 0 km/h
1871 01-08-2019 22:00:00 19.76667 C 11.54 g/m*3 19.77 C 0 km/h
1872 01-08-2019 23:00:00 19.24167 C 11.5 g/m*3 19.24 C 0 km/h
1873 02-08-2019 00:00:00 18.81667 C 11.81 g/m*3 18.82 C 0 km/h
1874 02-08-2019 01:00:00 18.34167 C 11.86 g/m*3 18.34 C 0 km/h
1875 02-08-2019 02:00:00 17.86667 C 11.71 g/m*3 17.87 C 0 km/h
Sensor: Nr:Datum:Temp:Abs-Feuchte:Windchill:Wind:
Aussen-T/F 1876 02-08-2019 03:00:00 16.94167 C 11.49 g/m*3 16.94 C 0 km/h
1877 02-08-2019 04:00:00 16.31667 C 11.46 g/m*3 16.32 C 0 km/h
1878 02-08-2019 05:00:00 16.2 C 11.54 g/m*3 16.2 C 0 km/h
1879 02-08-2019 06:00:00 16.25 C 11.76 g/m*3 16.25 C 0 km/h
1880 02-08-2019 07:00:00 16.925 C 12.17 g/m*3 16.93 C 0 km/h
1881 02-08-2019 08:00:00 17.93333 C 12.6 g/m*3 17.93 C 0 km/h
1882 02-08-2019 09:00:00 19.35 C 12.96 g/m*3 19.35 C 0 km/h
1883 02-08-2019 10:00:00 20.71667 C 13 g/m*3 20.72 C 0 km/h
1884 02-08-2019 11:00:00 22.16667 C 12.7 g/m*3 22.17 C 4.96667 km/h
1885 02-08-2019 12:00:00 21.275 C 14.05 g/m*3 21.28 C 4.03333 km/h
1886 02-08-2019 13:00:00 21.125 C 13.15 g/m*3 21.13 C 2.94167 km/h
1887 02-08-2019 14:00:00 23.16667 C 12.81 g/m*3 23.17 C 5.625 km/h
1888 02-08-2019 15:00:00 24.58333 C 12.67 g/m*3 24.58 C 7.38333 km/h
1889 02-08-2019 16:00:00 25.59167 C 12.16 g/m*3 25.59 C 5.24167 km/h
1890 02-08-2019 17:00:00 26.725 C 11.66 g/m*3 26.73 C 7.925 km/h
1891 02-08-2019 18:00:00 25.00833 C 12.3 g/m*3 25.01 C 11.95833 km/h
1892 02-08-2019 19:00:00 23.7 C 11.73 g/m*3 23.7 C 8.45833 km/h
1893 02-08-2019 20:00:00 22.45833 C 12.04 g/m*3 22.46 C 1.6 km/h
1894 02-08-2019 21:00:00 21.275 C 11.83 g/m*3 21.28 C 4.425 km/h
1895 02-08-2019 22:00:00 20.95 C 11.93 g/m*3 20.95 C 9.80833 km/h
1896 02-08-2019 23:00:00 18.975 C 12.83 g/m*3 18.98 C 4.96667 km/h
1897 03-08-2019 00:00:00 17.75833 C 12.77 g/m*3 17.76 C 5.91667 km/h
1898 03-08-2019 01:00:00 18.28333 C 12.89 g/m*3 18.28 C 10.89167 km/h
1899 03-08-2019 02:00:00 18.24167 C 13.15 g/m*3 18.24 C 11.29167 km/h
1900 03-08-2019 03:00:00 18.2 C 13.32 g/m*3 18.2 C 8.05833 km/h
Sensor: Nr:Datum:Temp:Abs-Feuchte:Windchill:Wind:
Aussen-T/F 1901 03-08-2019 04:00:00 18.15 C 13.47 g/m*3 18.15 C 7.225 km/h
1902 03-08-2019 05:00:00 18.14167 C 13.48 g/m*3 18.14 C 6.31667 km/h
1903 03-08-2019 06:00:00 17.89167 C 13.32 g/m*3 17.89 C 5.75833 km/h
1904 03-08-2019 07:00:00 17.84167 C 13.03 g/m*3 17.84 C 6.84167 km/h
1905 03-08-2019 08:00:00 17.95 C 12.94 g/m*3 17.95 C 8.60833 km/h
1906 03-08-2019 09:00:00 18.6 C 12.61 g/m*3 18.6 C 11.96667 km/h
1907 03-08-2019 10:00:00 19.61667 C 12.76 g/m*3 19.62 C 11.3 km/h
1908 03-08-2019 11:00:00 20.35833 C 12.91 g/m*3 20.36 C 11.16667 km/h
1909 03-08-2019 12:00:00 21.55833 C 12.66 g/m*3 21.56 C 10.76667 km/h
1910 03-08-2019 13:00:00 22.05 C 12.91 g/m*3 22.05 C 11.00833 km/h
1911 03-08-2019 14:00:00 22.20833 C 12.93 g/m*3 22.21 C 10.49167 km/h
1912 03-08-2019 15:00:00 23.80833 C 12.48 g/m*3 23.81 C 12.35833 km/h
1913 03-08-2019 16:00:00 25.16667 C 12.35 g/m*3 25.17 C 12.36667 km/h
1914 03-08-2019 17:00:00 25.49167 C 12.07 g/m*3 25.49 C 12.63333 km/h
1915 03-08-2019 18:00:00 25.46667 C 12.05 g/m*3 25.47 C 11.825 km/h
1916 03-08-2019 19:00:00 24.30833 C 12.07 g/m*3 24.31 C 11.15833 km/h
1917 03-08-2019 20:00:00 22.61667 C 12.03 g/m*3 22.62 C 7.39167 km/h
1918 03-08-2019 21:00:00 20.55833 C 11.74 g/m*3 20.56 C 3.875 km/h
1919 03-08-2019 22:00:00 18.10833 C 11.47 g/m*3 18.11 C 0.13333 km/h
1920 03-08-2019 23:00:00 17.05 C 11.51 g/m*3 17.05 C 0 km/h
1921 04-08-2019 00:00:00 16.225 C 11.3 g/m*3 16.23 C 0 km/h
1922 04-08-2019 01:00:00 15.125 C 11.05 g/m*3 15.13 C 0 km/h
1923 04-08-2019 02:00:00 14 C 10.71 g/m*3 14 C 0 km/h
1924 04-08-2019 03:00:00 13.3 C 10.5 g/m*3 13.3 C 0 km/h
1925 04-08-2019 04:00:00 12.88333 C 10.37 g/m*3 12.88 C 0 km/h
Sensor: Nr:Datum:Temp:Abs-Feuchte:Windchill:Wind:
Aussen-T/F 1926 04-08-2019 05:00:00 12.49167 C 10.22 g/m*3 12.49 C 0 km/h
1927 04-08-2019 06:00:00 12.34167 C 10.22 g/m*3 12.34 C 0 km/h
1928 04-08-2019 07:00:00 12.725 C 10.53 g/m*3 12.73 C 0 km/h
1929 04-08-2019 08:00:00 13.73333 C 11.27 g/m*3 13.73 C 0 km/h
1930 04-08-2019 09:00:00 15.34167 C 12.19 g/m*3 15.34 C 0.66667 km/h
1931 04-08-2019 10:00:00 18.10833 C 12.88 g/m*3 18.11 C 3.33333 km/h
1932 04-08-2019 11:00:00 21.31667 C 12.59 g/m*3 21.32 C 5.34167 km/h
1933 04-08-2019 12:00:00 23.3 C 12.44 g/m*3 23.3 C 7.23333 km/h
1934 04-08-2019 13:00:00 24.75 C 12.18 g/m*3 24.75 C 6.01667 km/h
1935 04-08-2019 14:00:00 25.86667 C 11.74 g/m*3 25.87 C 6.7 km/h
1936 04-08-2019 15:00:00 28.225 C 11.2 g/m*3 28.23 C 8.45833 km/h
1937 04-08-2019 16:00:00 30.03333 C 10.48 g/m*3 30.03 C 9.4 km/h
1938 04-08-2019 17:00:00 30.95833 C 10.24 g/m*3 30.96 C 8.45833 km/h
1939 04-08-2019 18:00:00 30.79167 C 10.68 g/m*3 30.79 C 7.25 km/h
1940 04-08-2019 19:00:00 28.75833 C 11.81 g/m*3 28.76 C 2.00833 km/h
1941 04-08-2019 20:00:00 25.78333 C 12.49 g/m*3 25.78 C 0 km/h
1942 04-08-2019 21:00:00 22.51667 C 12.06 g/m*3 22.52 C 0.26667 km/h
1943 04-08-2019 22:00:00 21.95833 C 12.33 g/m*3 21.96 C 1.06667 km/h
1944 04-08-2019 23:00:00 22.39167 C 12.16 g/m*3 22.39 C 2.53333 km/h
1945 05-08-2019 00:00:00 22.875 C 11.8 g/m*3 22.88 C 1.46667 km/h
1946 05-08-2019 01:00:00 21.65833 C 11.88 g/m*3 21.66 C 0 km/h
1947 05-08-2019 02:00:00 20.28333 C 11.74 g/m*3 20.28 C 0 km/h
1948 05-08-2019 03:00:00 19.6 C 11.76 g/m*3 19.6 C 0.26667 km/h
1949 05-08-2019 04:00:00 19.31667 C 12.58 g/m*3 19.32 C 0 km/h
1950 05-08-2019 05:00:00 19.325 C 12.96 g/m*3 19.33 C 1.74167 km/h
Sensor: Nr:Datum:Temp:Abs-Feuchte:Windchill:Wind:
Aussen-T/F 1951 05-08-2019 06:00:00 18.28333 C 13.64 g/m*3 18.28 C 1.06667 km/h
1952 05-08-2019 07:00:00 17.53333 C 13.79 g/m*3 17.53 C 1.46667 km/h
1953 05-08-2019 08:00:00 17.64167 C 14.21 g/m*3 17.64 C 0.53333 km/h
1954 05-08-2019 09:00:00 18.75 C 15.24 g/m*3 18.75 C 0.66667 km/h
1955 05-08-2019 10:00:00 20.08333 C 16.08 g/m*3 20.08 C 1.06667 km/h
1956 05-08-2019 11:00:00 21.99167 C 16.31 g/m*3 21.99 C 1.86667 km/h
1957 05-08-2019 12:00:00 24.25 C 15.17 g/m*3 24.25 C 12.89167 km/h
1958 05-08-2019 13:00:00 26 C 14.55 g/m*3 26 C 12.5 km/h
1959 05-08-2019 14:00:00 27.11667 C 14.16 g/m*3 27.12 C 11.56667 km/h
1960 05-08-2019 15:00:00 28.375 C 12.91 g/m*3 28.38 C 10.9 km/h
1961 05-08-2019 16:00:00 28.875 C 11.79 g/m*3 28.88 C 12.23333 km/h
1962 05-08-2019 17:00:00 28.225 C 11.59 g/m*3 28.23 C 11.43333 km/h
1963 05-08-2019 18:00:00 27.7 C 11.28 g/m*3 27.7 C 9.15833 km/h
1964 05-08-2019 19:00:00 26.7 C 11.75 g/m*3 26.7 C 5.89167 km/h
1965 05-08-2019 20:00:00 25.1 C 12.4 g/m*3 25.1 C 1.6 km/h
1966 05-08-2019 21:00:00 22.075 C 11.92 g/m*3 22.08 C 0 km/h
1967 05-08-2019 22:00:00 20.53333 C 12.36 g/m*3 20.53 C 0 km/h
1968 05-08-2019 23:00:00 19.28333 C 12.26 g/m*3 19.28 C 0 km/h
1969 06-08-2019 00:00:00 18.00833 C 12.02 g/m*3 18.01 C 0 km/h
1970 06-08-2019 01:00:00 17.10833 C 11.86 g/m*3 17.11 C 0 km/h
1971 06-08-2019 02:00:00 17.00833 C 12 g/m*3 17.01 C 0 km/h
1972 06-08-2019 03:00:00 17.45833 C 12.36 g/m*3 17.46 C 0.8 km/h
1973 06-08-2019 04:00:00 17.20833 C 12.28 g/m*3 17.21 C 0.26667 km/h
1974 06-08-2019 05:00:00 16.60833 C 12.11 g/m*3 16.61 C 0.13333 km/h
1975 06-08-2019 06:00:00 16.66667 C 12.28 g/m*3 16.67 C 0.13333 km/h
Sensor: Nr:Datum:Temp:Abs-Feuchte:Windchill:Wind:
Aussen-T/F 1976 06-08-2019 07:00:00 17.83333 C 12.66 g/m*3 17.83 C 2.40833 km/h
1977 06-08-2019 08:00:00 18.675 C 12.96 g/m*3 18.68 C 3.475 km/h
1978 06-08-2019 09:00:00 20.1 C 13.3 g/m*3 20.1 C 6.29167 km/h
1979 06-08-2019 10:00:00 19.91667 C 14.4 g/m*3 19.92 C 2.14167 km/h
1980 06-08-2019 11:00:00 19.65 C 15.1 g/m*3 19.65 C 0.8 km/h
1981 06-08-2019 12:00:00 21.31667 C 15.35 g/m*3 21.32 C 4.40833 km/h
1982 06-08-2019 13:00:00 22.325 C 15.31 g/m*3 22.33 C 7.66667 km/h
1983 06-08-2019 14:00:00 23.61667 C 14.87 g/m*3 23.62 C 13.43333 km/h
1984 06-08-2019 15:00:00 24.725 C 14.68 g/m*3 24.73 C 11.825 km/h
1985 06-08-2019 16:00:00 25.39167 C 14.57 g/m*3 25.39 C 10.63333 km/h
1986 06-08-2019 17:00:00 26.4 C 14.31 g/m*3 26.4 C 10.09167 km/h
1987 06-08-2019 18:00:00 25.20833 C 14.4 g/m*3 25.21 C 4.84167 km/h
1988 06-08-2019 19:00:00 22.54167 C 15.37 g/m*3 22.54 C 6.16667 km/h
1989 06-08-2019 20:00:00 19.05 C 14.78 g/m*3 19.05 C 0.13333 km/h
1990 06-08-2019 21:00:00 18.00833 C 14.32 g/m*3 18.01 C 0.53333 km/h
1991 06-08-2019 22:00:00 17.51667 C 14.03 g/m*3 17.52 C 0.13333 km/h
1992 06-08-2019 23:00:00 17.08333 C 13.8 g/m*3 17.08 C 1.075 km/h
1993 07-08-2019 00:00:00 16.68333 C 13.49 g/m*3 16.68 C 0.13333 km/h
1994 07-08-2019 01:00:00 16.3 C 13.25 g/m*3 16.3 C 0 km/h
1995 07-08-2019 02:00:00 16.45833 C 13.45 g/m*3 16.46 C 1.2 km/h
1996 07-08-2019 03:00:00 16.58333 C 13.58 g/m*3 16.58 C 0 km/h
1997 07-08-2019 04:00:00 16.63333 C 13.73 g/m*3 16.63 C 0 km/h
1998 07-08-2019 05:00:00 16.66667 C 13.76 g/m*3 16.67 C 0 km/h
1999 07-08-2019 06:00:00 16.875 C 13.93 g/m*3 16.88 C 0.13333 km/h
2000 07-08-2019 07:00:00 17.25 C 14.25 g/m*3 17.25 C 0.26667 km/h
Sensor: Nr:Datum:Temp:Abs-Feuchte:Windchill:Wind:
Aussen-T/F 2001 07-08-2019 08:00:00 17.75833 C 14.69 g/m*3 17.76 C 0.66667 km/h
2002 07-08-2019 09:00:00 18.25 C 15.12 g/m*3 18.25 C 4.15 km/h
2003 07-08-2019 10:00:00 18.96667 C 15.68 g/m*3 18.97 C 1.6 km/h
2004 07-08-2019 11:00:00 19.725 C 15.83 g/m*3 19.73 C 2.275 km/h
2005 07-08-2019 12:00:00 20.83333 C 15.33 g/m*3 20.83 C 3.88333 km/h
2006 07-08-2019 13:00:00 21.85833 C 14.69 g/m*3 21.86 C 5.76667 km/h
2007 07-08-2019 14:00:00 22.525 C 15.07 g/m*3 22.53 C 7.375 km/h
2008 07-08-2019 15:00:00 22.59167 C 14.64 g/m*3 22.59 C 10.48333 km/h
2009 07-08-2019 16:00:00 22.08333 C 14.2 g/m*3 22.08 C 9.7 km/h
2010 07-08-2019 17:00:00 22.53333 C 14.26 g/m*3 22.53 C 8.35 km/h
2011 07-08-2019 18:00:00 23.35833 C 14.35 g/m*3 23.36 C 8.75 km/h
2012 07-08-2019 19:00:00 22.38333 C 14.63 g/m*3 22.38 C 4.03333 km/h
2013 07-08-2019 20:00:00 20.05833 C 14.48 g/m*3 20.06 C 2.55 km/h
2014 07-08-2019 21:00:00 18.05 C 13.36 g/m*3 18.05 C 0.8 km/h
2015 07-08-2019 22:00:00 16.74167 C 12.79 g/m*3 16.74 C 0.53333 km/h
2016 07-08-2019 23:00:00 16.64167 C 12.63 g/m*3 16.64 C 1.06667 km/h
2017 08-08-2019 00:00:00 15.76667 C 12.28 g/m*3 15.77 C 1.88333 km/h
2018 08-08-2019 01:00:00 16.35 C 12.8 g/m*3 16.35 C 1.6 km/h
2019 08-08-2019 02:00:00 16.45 C 12.88 g/m*3 16.45 C 0.66667 km/h
2020 08-08-2019 03:00:00 16.44167 C 12.86 g/m*3 16.44 C 2.00833 km/h
2021 08-08-2019 04:00:00 16.06667 C 12.68 g/m*3 16.07 C 0.13333 km/h
2022 08-08-2019 05:00:00 15.31667 C 12.19 g/m*3 15.32 C 0.53333 km/h
2023 08-08-2019 06:00:00 15.7 C 12.58 g/m*3 15.7 C 4.40833 km/h
2024 08-08-2019 07:00:00 15.95 C 12.71 g/m*3 15.95 C 1.73333 km/h
2025 08-08-2019 08:00:00 17.05833 C 13.24 g/m*3 17.06 C 8.75833 km/h
Sensor: Nr:Datum:Temp:Abs-Feuchte:Windchill:Wind:
Aussen-T/F 2026 08-08-2019 09:00:00 18.55833 C 13.35 g/m*3 18.56 C 8.20833 km/h
2027 08-08-2019 10:00:00 20.05833 C 12.66 g/m*3 20.06 C 11.29167 km/h
2028 08-08-2019 11:00:00 21.74167 C 12.57 g/m*3 21.74 C 11.825 km/h
2029 08-08-2019 12:00:00 22.99167 C 12.57 g/m*3 22.99 C 15.56667 km/h
2030 08-08-2019 13:00:00 24.025 C 12.51 g/m*3 24.03 C 11.95833 km/h
2031 08-08-2019 14:00:00 24.20833 C 12.62 g/m*3 24.21 C 10.1 km/h
2032 08-08-2019 15:00:00 24.51667 C 12.81 g/m*3 24.52 C 7.51667 km/h
2033 08-08-2019 16:00:00 26.58333 C 12.93 g/m*3 26.58 C 12.1 km/h
2034 08-08-2019 17:00:00 27.18333 C 12.52 g/m*3 27.18 C 11.15833 km/h
2035 08-08-2019 18:00:00 27.46667 C 12.5 g/m*3 27.47 C 8.875 km/h
2036 08-08-2019 19:00:00 25.43333 C 14.64 g/m*3 25.43 C 0.94167 km/h
2037 08-08-2019 20:00:00 23.575 C 14.35 g/m*3 23.58 C 0 km/h
2038 08-08-2019 21:00:00 20.625 C 13.7 g/m*3 20.63 C 0 km/h
2039 08-08-2019 22:00:00 19.15833 C 13.68 g/m*3 19.16 C 0 km/h
2040 08-08-2019 23:00:00 18.16667 C 13.57 g/m*3 18.17 C 0 km/h
2041 09-08-2019 00:00:00 17.15833 C 13.06 g/m*3 17.16 C 0 km/h
2042 09-08-2019 01:00:00 16.25833 C 12.63 g/m*3 16.26 C 0 km/h
2043 09-08-2019 02:00:00 15.875 C 12.44 g/m*3 15.88 C 0 km/h
2044 09-08-2019 03:00:00 15.21667 C 12.05 g/m*3 15.22 C 0 km/h
2045 09-08-2019 04:00:00 14.725 C 11.81 g/m*3 14.73 C 0 km/h
2046 09-08-2019 05:00:00 14.44167 C 11.66 g/m*3 14.44 C 0 km/h
2047 09-08-2019 06:00:00 14.56667 C 11.86 g/m*3 14.57 C 0 km/h
2048 09-08-2019 07:00:00 15.40833 C 12.53 g/m*3 15.41 C 0 km/h
2049 09-08-2019 08:00:00 16.44167 C 13.04 g/m*3 16.44 C 0.53333 km/h
2050 09-08-2019 09:00:00 18.26667 C 13.71 g/m*3 18.27 C 0 km/h
Sensor: Nr:Datum:Temp:Abs-Feuchte:Windchill:Wind:
Aussen-T/F 2051 09-08-2019 10:00:00 20.60833 C 14.46 g/m*3 20.61 C 0 km/h
2052 09-08-2019 11:00:00 23.8 C 15.4 g/m*3 23.8 C 0.26667 km/h
2053 09-08-2019 12:00:00 25.26667 C 15.38 g/m*3 25.27 C 0.26667 km/h
2054 09-08-2019 13:00:00 25.275 C 15.53 g/m*3 25.28 C 0.13333 km/h
2055 09-08-2019 14:00:00 24.75 C 17.55 g/m*3 24.75 C 0 km/h
2056 09-08-2019 15:00:00 24.43333 C 18.3 g/m*3 24.43 C 0.26667 km/h
2057 09-08-2019 16:00:00 27.25 C 18.24 g/m*3 27.25 C 4.55833 km/h
2058 09-08-2019 17:00:00 25.45 C 19.24 g/m*3 25.45 C 0.8 km/h
2059 09-08-2019 18:00:00 22.78333 C 18.05 g/m*3 22.78 C 1.33333 km/h
2060 09-08-2019 19:00:00 21.5 C 17.55 g/m*3 21.5 C 8.59167 km/h
2061 09-08-2019 20:00:00 19.63333 C 15.91 g/m*3 19.63 C 0.93333 km/h
2062 09-08-2019 21:00:00 19.31667 C 15.86 g/m*3 19.32 C 0.93333 km/h
2063 09-08-2019 22:00:00 19.30833 C 15.93 g/m*3 19.31 C 0.26667 km/h
2064 09-08-2019 23:00:00 18.86667 C 15.52 g/m*3 18.87 C 0.13333 km/h
2065 10-08-2019 00:00:00 18.775 C 15.53 g/m*3 18.77 C 0.26667 km/h
2066 10-08-2019 01:00:00 18.73333 C 15.55 g/m*3 18.73 C 0 km/h
2067 10-08-2019 02:00:00 18.50833 C 15.35 g/m*3 18.51 C 0 km/h
2068 10-08-2019 03:00:00 18.29167 C 15.16 g/m*3 18.29 C 0.4 km/h
2069 10-08-2019 04:00:00 18.11667 C 15 g/m*3 18.12 C 0 km/h
2070 10-08-2019 05:00:00 17.53333 C 14.49 g/m*3 17.53 C 0 km/h
2071 10-08-2019 06:00:00 17.45 C 14.42 g/m*3 17.45 C 0 km/h
2072 10-08-2019 07:00:00 17.33333 C 14.32 g/m*3 17.33 C 4.96667 km/h
2073 10-08-2019 08:00:00 17.41667 C 14.11 g/m*3 17.42 C 11.01667 km/h
2074 10-08-2019 09:00:00 19.125 C 14.12 g/m*3 19.13 C 14.76667 km/h
2075 10-08-2019 10:00:00 20.36667 C 14.04 g/m*3 20.37 C 14.36667 km/h
Sensor: Nr:Datum:Temp:Abs-Feuchte:Windchill:Wind:
Aussen-T/F 2076 10-08-2019 11:00:00 21.43333 C 13.96 g/m*3 21.43 C 13.7 km/h
2077 10-08-2019 12:00:00 22.38333 C 13.69 g/m*3 22.38 C 16.23333 km/h
2078 10-08-2019 13:00:00 23.26667 C 13.23 g/m*3 23.27 C 16.76667 km/h
2079 10-08-2019 14:00:00 23.83333 C 13.09 g/m*3 23.83 C 17.43333 km/h
2080 10-08-2019 15:00:00 24.99167 C 12.75 g/m*3 24.99 C 17.43333 km/h
2081 10-08-2019 16:00:00 25.24167 C 12.48 g/m*3 25.24 C 15.29167 km/h
2082 10-08-2019 17:00:00 26.29167 C 12.19 g/m*3 26.29 C 15.3 km/h
2083 10-08-2019 18:00:00 25.99167 C 11.94 g/m*3 25.99 C 13.43333 km/h
2084 10-08-2019 19:00:00 25.00833 C 11.44 g/m*3 25.01 C 10.89167 km/h
2085 10-08-2019 20:00:00 22.63333 C 12.33 g/m*3 22.63 C 2.275 km/h
2086 10-08-2019 21:00:00 19.41667 C 12.14 g/m*3 19.42 C 0.26667 km/h
2087 10-08-2019 22:00:00 17.71667 C 11.89 g/m*3 17.72 C 0 km/h
2088 10-08-2019 23:00:00 16.45833 C 11.49 g/m*3 16.46 C 0.13333 km/h
2089 11-08-2019 00:00:00 15.75833 C 11.39 g/m*3 15.76 C 0 km/h
2090 11-08-2019 01:00:00 15.375 C 11.46 g/m*3 15.38 C 0 km/h
2091 11-08-2019 02:00:00 15.7 C 11.57 g/m*3 15.7 C 0 km/h
2092 11-08-2019 03:00:00 15.20833 C 11.23 g/m*3 15.21 C 0 km/h
2093 11-08-2019 04:00:00 14.43333 C 10.94 g/m*3 14.43 C 0 km/h
2094 11-08-2019 05:00:00 13.58333 C 10.6 g/m*3 13.58 C 0 km/h
2095 11-08-2019 06:00:00 13.40833 C 10.78 g/m*3 13.41 C 0.26667 km/h
2096 11-08-2019 07:00:00 14.04167 C 11.16 g/m*3 14.04 C 0 km/h
2097 11-08-2019 08:00:00 14.9 C 11.64 g/m*3 14.9 C 0 km/h
2098 11-08-2019 09:00:00 16.21667 C 12.02 g/m*3 16.22 C 0.53333 km/h
2099 11-08-2019 10:00:00 19.375 C 11.62 g/m*3 19.38 C 9.00833 km/h
2100 11-08-2019 11:00:00 21.26667 C 11.02 g/m*3 21.27 C 11.825 km/h
Sensor: Nr:Datum:Temp:Abs-Feuchte:Windchill:Wind:
Aussen-T/F 2101 11-08-2019 12:00:00 22.09167 C 10.89 g/m*3 22.09 C 10.75833 km/h
2102 11-08-2019 13:00:00 22.775 C 10.37 g/m*3 22.78 C 14.5 km/h
2103 11-08-2019 14:00:00 22.89167 C 10.74 g/m*3 22.89 C 9.14167 km/h
2104 11-08-2019 15:00:00 21.50833 C 11.57 g/m*3 21.51 C 3.2 km/h
2105 11-08-2019 16:00:00 20.05 C 12.13 g/m*3 20.05 C 3.34167 km/h
2106 11-08-2019 17:00:00 17.18333 C 12.7 g/m*3 17.18 C 2.26667 km/h
2107 11-08-2019 18:00:00 16.475 C 12.68 g/m*3 16.48 C 1.73333 km/h
2108 11-08-2019 19:00:00 16.075 C 12.27 g/m*3 16.08 C 1.06667 km/h
2109 11-08-2019 20:00:00 15.775 C 12.23 g/m*3 15.78 C 0.26667 km/h
2110 11-08-2019 21:00:00 15.23333 C 11.93 g/m*3 15.23 C 0.8 km/h
2111 11-08-2019 22:00:00 14.3 C 11.28 g/m*3 14.3 C 0.66667 km/h
2112 11-08-2019 23:00:00 14.24167 C 11.43 g/m*3 14.24 C 1.46667 km/h
2113 12-08-2019 00:00:00 14.85833 C 11.77 g/m*3 14.86 C 2.4 km/h
2114 12-08-2019 01:00:00 14.325 C 11.33 g/m*3 14.33 C 1.33333 km/h
2115 12-08-2019 02:00:00 13.66667 C 11.04 g/m*3 13.67 C 0.26667 km/h
2116 12-08-2019 03:00:00 13.125 C 10.74 g/m*3 13.13 C 0 km/h
2117 12-08-2019 04:00:00 12.89167 C 10.7 g/m*3 12.89 C 0 km/h
2118 12-08-2019 05:00:00 12.675 C 10.56 g/m*3 12.68 C 0 km/h
2119 12-08-2019 06:00:00 12.69167 C 10.63 g/m*3 12.69 C 0 km/h
2120 12-08-2019 07:00:00 13.05833 C 10.93 g/m*3 13.06 C 0 km/h
2121 12-08-2019 08:00:00 13.5 C 11.23 g/m*3 13.5 C 0 km/h
2122 12-08-2019 09:00:00 15.05 C 11.91 g/m*3 15.05 C 3.075 km/h
2123 12-08-2019 10:00:00 17.65 C 12.41 g/m*3 17.65 C 6.58333 km/h
2124 12-08-2019 11:00:00 20.08333 C 12.61 g/m*3 20.08 C 7.525 km/h
2125 12-08-2019 12:00:00 21.275 C 12.22 g/m*3 21.28 C 8.60833 km/h
Sensor: Nr:Datum:Temp:Abs-Feuchte:Windchill:Wind:
Aussen-T/F 2126 12-08-2019 13:00:00 21.775 C 11.64 g/m*3 21.78 C 10.89167 km/h
2127 12-08-2019 14:00:00 22.55 C 12.07 g/m*3 22.55 C 11.3 km/h
2128 12-08-2019 15:00:00 23.475 C 11.74 g/m*3 23.48 C 12.625 km/h
2129 12-08-2019 16:00:00 22.54167 C 11.71 g/m*3 22.54 C 14.5 km/h
2130 12-08-2019 17:00:00 17.89167 C 11.79 g/m*3 17.89 C 5.89167 km/h
2131 12-08-2019 18:00:00 15.925 C 12.21 g/m*3 15.93 C 0.4 km/h
2132 12-08-2019 19:00:00 15.925 C 12.48 g/m*3 15.93 C 0.53333 km/h
2133 12-08-2019 20:00:00 15.54167 C 12.21 g/m*3 15.54 C 0.26667 km/h
2134 12-08-2019 21:00:00 15.19167 C 12.14 g/m*3 15.19 C 0.26667 km/h
2135 12-08-2019 22:00:00 14.975 C 12.04 g/m*3 14.98 C 0.66667 km/h
2136 12-08-2019 23:00:00 14.01667 C 11.19 g/m*3 14.02 C 0.53333 km/h
2137 13-08-2019 00:00:00 13.55833 C 11.06 g/m*3 13.56 C 0.26667 km/h
2138 13-08-2019 01:00:00 13.025 C 10.71 g/m*3 13.03 C 0.26667 km/h
2139 13-08-2019 02:00:00 12.83333 C 10.69 g/m*3 12.83 C 0.53333 km/h
2140 13-08-2019 03:00:00 12.9 C 10.77 g/m*3 12.9 C 0 km/h
2141 13-08-2019 04:00:00 13.275 C 11.05 g/m*3 13.28 C 2.14167 km/h
2142 13-08-2019 05:00:00 13.18333 C 10.9 g/m*3 13.18 C 1.475 km/h
2143 13-08-2019 06:00:00 12.75 C 10.63 g/m*3 12.75 C 0.53333 km/h
2144 13-08-2019 07:00:00 12.9 C 10.74 g/m*3 12.9 C 2.13333 km/h
2145 13-08-2019 08:00:00 13.39167 C 10.78 g/m*3 13.39 C 6.85 km/h
2146 13-08-2019 09:00:00 14.85 C 11.03 g/m*3 14.85 C 6.96667 km/h
2147 13-08-2019 10:00:00 16.225 C 10.31 g/m*3 16.23 C 10.08333 km/h
2148 13-08-2019 11:00:00 17.175 C 9.83 g/m*3 17.18 C 10.625 km/h
2149 13-08-2019 12:00:00 18.13333 C 9.82 g/m*3 18.13 C 11.15833 km/h
2150 13-08-2019 13:00:00 19.025 C 9.08 g/m*3 19.02 C 10.76667 km/h
Sensor: Nr:Datum:Temp:Abs-Feuchte:Windchill:Wind:
Aussen-T/F 2151 13-08-2019 14:00:00 19.875 C 9.06 g/m*3 19.88 C 11.01667 km/h
2152 13-08-2019 15:00:00 21.275 C 9.37 g/m*3 21.28 C 13.56667 km/h
2153 13-08-2019 16:00:00 21.38333 C 9.54 g/m*3 21.38 C 11.15833 km/h
2154 13-08-2019 17:00:00 21.25833 C 9.39 g/m*3 21.26 C 9.41667 km/h
2155 13-08-2019 18:00:00 21.175 C 9.59 g/m*3 21.18 C 8.73333 km/h
2156 13-08-2019 19:00:00 18.53333 C 10.26 g/m*3 18.53 C 9.39167 km/h
2157 13-08-2019 20:00:00 14.91667 C 11.06 g/m*3 14.92 C 0.93333 km/h
2158 13-08-2019 21:00:00 13.99167 C 11.01 g/m*3 13.99 C 0 km/h
2159 13-08-2019 22:00:00 13.63333 C 10.92 g/m*3 13.63 C 0 km/h
2160 13-08-2019 23:00:00 13.36667 C 10.79 g/m*3 13.37 C 0 km/h
2161 14-08-2019 00:00:00 13.05 C 10.59 g/m*3 13.05 C 0 km/h
2162 14-08-2019 01:00:00 12.61667 C 10.32 g/m*3 12.62 C 0 km/h
2163 14-08-2019 02:00:00 12.10833 C 10 g/m*3 12.11 C 0 km/h
2164 14-08-2019 03:00:00 11.93333 C 9.98 g/m*3 11.93 C 0 km/h
2165 14-08-2019 04:00:00 11.43333 C 9.68 g/m*3 11.43 C 0 km/h
2166 14-08-2019 05:00:00 11.00833 C 9.51 g/m*3 11.01 C 0 km/h
2167 14-08-2019 06:00:00 10.61667 C 9.3 g/m*3 10.62 C 0 km/h
2168 14-08-2019 07:00:00 10.61667 C 9.38 g/m*3 10.62 C 0 km/h
2169 14-08-2019 08:00:00 11.4 C 9.89 g/m*3 11.4 C 2.01667 km/h
2170 14-08-2019 09:00:00 13.28333 C 10.79 g/m*3 13.28 C 5.625 km/h
2171 14-08-2019 10:00:00 14.26667 C 11.26 g/m*3 14.27 C 0.13333 km/h
2172 14-08-2019 11:00:00 15.66667 C 11.12 g/m*3 15.67 C 2 km/h
2173 14-08-2019 12:00:00 18.1 C 9.7 g/m*3 18.1 C 8.70833 km/h
2174 14-08-2019 13:00:00 19.59167 C 9.28 g/m*3 19.59 C 9.00833 km/h
2175 14-08-2019 14:00:00 21.08333 C 9.23 g/m*3 21.08 C 11.00833 km/h
Sensor: Nr:Datum:Temp:Abs-Feuchte:Windchill:Wind:
Aussen-T/F 2176 14-08-2019 15:00:00 22.60833 C 9.9 g/m*3 22.61 C 10.475 km/h
2177 14-08-2019 16:00:00 23.74167 C 9.92 g/m*3 23.74 C 11.69167 km/h
2178 14-08-2019 17:00:00 24.44167 C 9.98 g/m*3 24.44 C 13.43333 km/h
2179 14-08-2019 18:00:00 24 C 10.17 g/m*3 24 C 11.96667 km/h
2180 14-08-2019 19:00:00 22.31667 C 11.17 g/m*3 22.32 C 5.1 km/h
2181 14-08-2019 20:00:00 19.675 C 11.46 g/m*3 19.68 C 0 km/h
2182 14-08-2019 21:00:00 18.1 C 11.45 g/m*3 18.1 C 0 km/h
2183 14-08-2019 22:00:00 17.63333 C 11.45 g/m*3 17.63 C 0 km/h
2184 14-08-2019 23:00:00 17.4 C 11.34 g/m*3 17.4 C 0 km/h
2185 15-08-2019 00:00:00 17.35833 C 11.32 g/m*3 17.36 C 0.26667 km/h
2186 15-08-2019 01:00:00 17.38333 C 11.47 g/m*3 17.38 C 0.13333 km/h
2187 15-08-2019 02:00:00 16.2 C 12.19 g/m*3 16.2 C 0.66667 km/h
2188 15-08-2019 03:00:00 15.275 C 12.05 g/m*3 15.28 C 0 km/h
2189 15-08-2019 04:00:00 14.90833 C 11.94 g/m*3 14.91 C 0.13333 km/h
2190 15-08-2019 05:00:00 14.84167 C 11.96 g/m*3 14.84 C 0 km/h
2191 15-08-2019 06:00:00 14.96667 C 12.14 g/m*3 14.97 C 0.4 km/h
2192 15-08-2019 07:00:00 15.6 C 12.28 g/m*3 15.6 C 3.35833 km/h
2193 15-08-2019 08:00:00 17.59167 C 12.58 g/m*3 17.59 C 11.025 km/h
2194 15-08-2019 09:00:00 18.48333 C 12.88 g/m*3 18.48 C 11.025 km/h
2195 15-08-2019 10:00:00 19.14167 C 13.31 g/m*3 19.14 C 12.76667 km/h
2196 15-08-2019 11:00:00 19.28333 C 13.52 g/m*3 19.28 C 12.49167 km/h
2197 15-08-2019 12:00:00 19.90833 C 13.69 g/m*3 19.91 C 12.89167 km/h
2198 15-08-2019 13:00:00 18.94167 C 14.4 g/m*3 18.94 C 8.73333 km/h
2199 15-08-2019 14:00:00 19.73333 C 14.63 g/m*3 19.73 C 10.20833 km/h
2200 15-08-2019 15:00:00 20.79167 C 14.72 g/m*3 20.79 C 12.88333 km/h
Sensor: Nr:Datum:Temp:Abs-Feuchte:Windchill:Wind:
Aussen-T/F 2201 15-08-2019 16:00:00 19.325 C 14.88 g/m*3 19.33 C 11.95833 km/h
2202 15-08-2019 17:00:00 17.3 C 13.69 g/m*3 17.3 C 4.41667 km/h
2203 15-08-2019 18:00:00 16.975 C 13.61 g/m*3 16.98 C 2.66667 km/h
2204 15-08-2019 19:00:00 17.25 C 13.89 g/m*3 17.25 C 1.2 km/h
2205 15-08-2019 20:00:00 17.09167 C 13.76 g/m*3 17.09 C 1.33333 km/h
2206 15-08-2019 21:00:00 16.40833 C 13.23 g/m*3 16.41 C 2.54167 km/h
2207 15-08-2019 22:00:00 15.93333 C 12.83 g/m*3 15.93 C 1.46667 km/h
2208 15-08-2019 23:00:00 15.54167 C 12.59 g/m*3 15.54 C 1.06667 km/h
2209 16-08-2019 00:00:00 15.29167 C 12.41 g/m*3 15.29 C 0.53333 km/h
2210 16-08-2019 01:00:00 14.63333 C 11.94 g/m*3 14.63 C 0.13333 km/h
2211 16-08-2019 02:00:00 14.575 C 11.99 g/m*3 14.58 C 0.8 km/h
2212 16-08-2019 03:00:00 14.64167 C 12.04 g/m*3 14.64 C 0.4 km/h
2213 16-08-2019 04:00:00 14.08333 C 11.64 g/m*3 14.08 C 0 km/h
2214 16-08-2019 05:00:00 13.575 C 11.31 g/m*3 13.58 C 0.66667 km/h
2215 16-08-2019 06:00:00 13.69167 C 11.48 g/m*3 13.69 C 2.26667 km/h
2216 16-08-2019 07:00:00 14.18333 C 11.78 g/m*3 14.18 C 2.54167 km/h
2217 16-08-2019 08:00:00 14.45833 C 11.8 g/m*3 14.46 C 5.1 km/h
2218 16-08-2019 09:00:00 15.54167 C 11.89 g/m*3 15.54 C 9.29167 km/h
2219 16-08-2019 10:00:00 16.26667 C 11.87 g/m*3 16.27 C 12.36667 km/h
2220 16-08-2019 11:00:00 17.1 C 12 g/m*3 17.1 C 11.56667 km/h
2221 16-08-2019 12:00:00 18.43333 C 12.04 g/m*3 18.43 C 12.9 km/h
2222 16-08-2019 13:00:00 19.65 C 11.98 g/m*3 19.65 C 16.5 km/h
2223 16-08-2019 14:00:00 20.4 C 11.97 g/m*3 20.4 C 12.76667 km/h
2224 16-08-2019 15:00:00 21.90833 C 11.78 g/m*3 21.91 C 10.9 km/h
2225 16-08-2019 16:00:00 23.63333 C 11.61 g/m*3 23.63 C 11.03333 km/h
Sensor: Nr:Datum:Temp:Abs-Feuchte:Windchill:Wind:
Aussen-T/F 2226 16-08-2019 17:00:00 24.475 C 11.58 g/m*3 24.48 C 11.41667 km/h
2227 16-08-2019 18:00:00 24.43333 C 11.61 g/m*3 24.43 C 9.94167 km/h
2228 16-08-2019 19:00:00 23.41667 C 12.24 g/m*3 23.42 C 6.325 km/h
2229 16-08-2019 20:00:00 20.075 C 12.43 g/m*3 20.08 C 0.13333 km/h
2230 16-08-2019 21:00:00 17.75833 C 12.16 g/m*3 17.76 C 0 km/h
2231 16-08-2019 22:00:00 16.88333 C 12.19 g/m*3 16.88 C 0 km/h
2232 16-08-2019 23:00:00 16.23333 C 11.96 g/m*3 16.23 C 0 km/h
2233 17-08-2019 00:00:00 15.69167 C 11.75 g/m*3 15.69 C 0 km/h
2234 17-08-2019 01:00:00 15.86667 C 11.93 g/m*3 15.87 C 0 km/h
2235 17-08-2019 02:00:00 15.76667 C 11.91 g/m*3 15.77 C 0 km/h
2236 17-08-2019 03:00:00 15.76667 C 12.24 g/m*3 15.77 C 0 km/h
2237 17-08-2019 04:00:00 15.69167 C 12.47 g/m*3 15.69 C 0 km/h
2238 17-08-2019 05:00:00 15.63333 C 12.53 g/m*3 15.63 C 0 km/h
2239 17-08-2019 06:00:00 15.65833 C 12.55 g/m*3 15.66 C 0 km/h
2240 17-08-2019 07:00:00 16.13333 C 12.91 g/m*3 16.13 C 0.26667 km/h
2241 17-08-2019 08:00:00 16.95833 C 13.1 g/m*3 16.96 C 3.075 km/h
2242 17-08-2019 09:00:00 18.66667 C 12.81 g/m*3 18.67 C 7.76667 km/h
2243 17-08-2019 10:00:00 19.01667 C 13.23 g/m*3 19.02 C 2.13333 km/h
2244 17-08-2019 11:00:00 18.59167 C 13.81 g/m*3 18.59 C 1.60833 km/h
2245 17-08-2019 12:00:00 19.275 C 14.11 g/m*3 19.27 C 2.14167 km/h
2246 17-08-2019 13:00:00 20.68333 C 13.73 g/m*3 20.68 C 12.625 km/h
2247 17-08-2019 14:00:00 21 C 13.72 g/m*3 21 C 10.35 km/h
2248 17-08-2019 15:00:00 21.31667 C 13.96 g/m*3 21.32 C 8.34167 km/h
2249 17-08-2019 16:00:00 21 C 13.91 g/m*3 21 C 8.85833 km/h
2250 17-08-2019 17:00:00 20.44167 C 13.82 g/m*3 20.44 C 4.55833 km/h
Sensor: Nr:Datum:Temp:Abs-Feuchte:Windchill:Wind:
Aussen-T/F 2251 17-08-2019 18:00:00 19.975 C 14.34 g/m*3 19.98 C 0.93333 km/h
2252 17-08-2019 19:00:00 19.125 C 14.49 g/m*3 19.13 C 0.4 km/h
2253 17-08-2019 20:00:00 18.325 C 14.26 g/m*3 18.33 C 0.13333 km/h
2254 17-08-2019 21:00:00 17.84167 C 14.1 g/m*3 17.84 C 0.26667 km/h
2255 17-08-2019 22:00:00 17.74167 C 14.22 g/m*3 17.74 C 0.4 km/h
2256 17-08-2019 23:00:00 17.525 C 14.13 g/m*3 17.52 C 0.13333 km/h
2257 18-08-2019 00:00:00 17.4 C 14.08 g/m*3 17.4 C 0 km/h
2258 18-08-2019 01:00:00 17.38333 C 14.15 g/m*3 17.38 C 0 km/h
2259 18-08-2019 02:00:00 17.225 C 14.08 g/m*3 17.23 C 0 km/h
2260 18-08-2019 03:00:00 17.2 C 14.06 g/m*3 17.2 C 0 km/h
2261 18-08-2019 04:00:00 17.18333 C 14.04 g/m*3 17.18 C 0 km/h
2262 18-08-2019 05:00:00 17.3 C 14.25 g/m*3 17.3 C 0 km/h
2263 18-08-2019 06:00:00 17.26667 C 14.26 g/m*3 17.27 C 0 km/h
2264 18-08-2019 07:00:00 17.34167 C 14.33 g/m*3 17.34 C 0 km/h
2265 18-08-2019 08:00:00 17.93333 C 14.84 g/m*3 17.93 C 0 km/h
2266 18-08-2019 09:00:00 18.85833 C 15.72 g/m*3 18.86 C 0 km/h
2267 18-08-2019 10:00:00 19.93333 C 16.77 g/m*3 19.93 C 1.33333 km/h
2268 18-08-2019 11:00:00 22.19167 C 18.07 g/m*3 22.19 C 9.00833 km/h
2269 18-08-2019 12:00:00 24.075 C 16.99 g/m*3 24.08 C 17.03333 km/h
2270 18-08-2019 13:00:00 24.4 C 16.88 g/m*3 24.4 C 15.98333 km/h
2271 18-08-2019 14:00:00 24.725 C 16.96 g/m*3 24.73 C 17.84167 km/h
2272 18-08-2019 15:00:00 24.7 C 17.16 g/m*3 24.7 C 15.03333 km/h
2273 18-08-2019 16:00:00 24.99167 C 16.74 g/m*3 24.99 C 14.9 km/h
2274 18-08-2019 17:00:00 24.35 C 16.14 g/m*3 24.35 C 15.83333 km/h
2275 18-08-2019 18:00:00 20.49167 C 16.3 g/m*3 20.49 C 1.33333 km/h
Sensor: Nr:Datum:Temp:Abs-Feuchte:Windchill:Wind:
Aussen-T/F 2276 18-08-2019 19:00:00 20.00833 C 16.22 g/m*3 20.01 C 1.2 km/h
2277 18-08-2019 20:00:00 19.45833 C 15.85 g/m*3 19.46 C 1.86667 km/h
2278 18-08-2019 21:00:00 18.8 C 15.19 g/m*3 18.8 C 0.93333 km/h
2279 18-08-2019 22:00:00 17.65 C 14.22 g/m*3 17.65 C 0.8 km/h
2280 18-08-2019 23:00:00 16.59167 C 13.41 g/m*3 16.59 C 1.06667 km/h
2281 19-08-2019 00:00:00 16.14167 C 13.19 g/m*3 16.14 C 0.53333 km/h
2282 19-08-2019 01:00:00 16.10833 C 13.17 g/m*3 16.11 C 0.93333 km/h
2283 19-08-2019 02:00:00 15.81667 C 12.94 g/m*3 15.82 C 0.26667 km/h
2284 19-08-2019 03:00:00 15.38333 C 12.61 g/m*3 15.38 C 0 km/h
2285 19-08-2019 04:00:00 14.78333 C 12.17 g/m*3 14.78 C 0 km/h
2286 19-08-2019 05:00:00 15.125 C 12.53 g/m*3 15.13 C 0.13333 km/h
2287 19-08-2019 06:00:00 14.61667 C 12.13 g/m*3 14.62 C 0 km/h
2288 19-08-2019 07:00:00 15.025 C 12.48 g/m*3 15.03 C 2 km/h
2289 19-08-2019 08:00:00 15.65833 C 12.95 g/m*3 15.66 C 0.93333 km/h
2290 19-08-2019 09:00:00 15.89167 C 13.07 g/m*3 15.89 C 6.03333 km/h
2291 19-08-2019 10:00:00 16.63333 C 12.41 g/m*3 16.63 C 7.79167 km/h
2292 19-08-2019 11:00:00 18.55833 C 11.87 g/m*3 18.56 C 10.36667 km/h
2293 19-08-2019 12:00:00 20.275 C 11.33 g/m*3 20.27 C 11.95833 km/h
2294 19-08-2019 13:00:00 21.525 C 11.02 g/m*3 21.53 C 11.69167 km/h
2295 19-08-2019 14:00:00 22.79167 C 10.93 g/m*3 22.79 C 13.7 km/h
2296 19-08-2019 15:00:00 23.46667 C 10.69 g/m*3 23.47 C 13.55833 km/h
2297 19-08-2019 16:00:00 23.78333 C 10.89 g/m*3 23.78 C 11.425 km/h
2298 19-08-2019 17:00:00 24.025 C 10.55 g/m*3 24.03 C 11.68333 km/h
2299 19-08-2019 18:00:00 23.51667 C 10.69 g/m*3 23.52 C 7.65 km/h
2300 19-08-2019 19:00:00 22.95833 C 11.55 g/m*3 22.96 C 4.7 km/h
Sensor: Nr:Datum:Temp:Abs-Feuchte:Windchill:Wind:
Aussen-T/F 2301 19-08-2019 20:00:00 19.71667 C 11.84 g/m*3 19.72 C 0.8 km/h
2302 19-08-2019 21:00:00 17.30833 C 11.03 g/m*3 17.31 C 0 km/h
2303 19-08-2019 22:00:00 16.51667 C 11.29 g/m*3 16.52 C 0 km/h
2304 19-08-2019 23:00:00 15.21667 C 10.86 g/m*3 15.22 C 0.13333 km/h
2305 20-08-2019 00:00:00 13.975 C 10.43 g/m*3 13.98 C 0 km/h
2306 20-08-2019 01:00:00 13.21667 C 10.16 g/m*3 13.22 C 0.53333 km/h
2307 20-08-2019 02:00:00 12.825 C 10.09 g/m*3 12.83 C 2.13333 km/h
2308 20-08-2019 03:00:00 12.21667 C 9.79 g/m*3 12.22 C 0 km/h
2309 20-08-2019 04:00:00 11.34167 C 9.46 g/m*3 11.34 C 0.4 km/h
2310 20-08-2019 05:00:00 10.9 C 9.32 g/m*3 10.9 C 0.13333 km/h
2311 20-08-2019 06:00:00 10.425 C 9.12 g/m*3 10.43 C 0.26667 km/h
2312 20-08-2019 07:00:00 10.78333 C 9.41 g/m*3 10.78 C 0 km/h
2313 20-08-2019 08:00:00 11.425 C 9.83 g/m*3 11.43 C 0.93333 km/h
2314 20-08-2019 09:00:00 12.61667 C 10.53 g/m*3 12.62 C 1.06667 km/h
2315 20-08-2019 10:00:00 15.26667 C 11.21 g/m*3 15.27 C 0.66667 km/h
2316 20-08-2019 11:00:00 17.375 C 10.89 g/m*3 17.38 C 2.13333 km/h
2317 20-08-2019 12:00:00 18.625 C 10.65 g/m*3 18.63 C 1.46667 km/h
2318 20-08-2019 13:00:00 19.525 C 10.45 g/m*3 19.52 C 3.875 km/h
2319 20-08-2019 14:00:00 20.43333 C 10.16 g/m*3 20.43 C 4.54167 km/h
2320 20-08-2019 15:00:00 21.10833 C 10.37 g/m*3 21.11 C 5.08333 km/h
2321 20-08-2019 16:00:00 21.41667 C 11.04 g/m*3 21.42 C 2.13333 km/h
2322 20-08-2019 17:00:00 20.68333 C 11.59 g/m*3 20.68 C 2.40833 km/h
2323 20-08-2019 18:00:00 20.375 C 13.06 g/m*3 20.38 C 0.26667 km/h
2324 20-08-2019 19:00:00 18.88333 C 12.11 g/m*3 18.88 C 0.13333 km/h
2325 20-08-2019 20:00:00 17.58333 C 11.35 g/m*3 17.58 C 0.8 km/h
Sensor: Nr:Datum:Temp:Abs-Feuchte:Windchill:Wind:
Aussen-T/F 2326 20-08-2019 21:00:00 16.76667 C 11.4 g/m*3 16.77 C 0.26667 km/h
2327 20-08-2019 22:00:00 15.925 C 11.36 g/m*3 15.93 C 0.4 km/h
2328 20-08-2019 23:00:00 15.175 C 11.02 g/m*3 15.18 C 0.26667 km/h
2329 21-08-2019 00:00:00 14.11667 C 10.59 g/m*3 14.12 C 0 km/h
2330 21-08-2019 01:00:00 13.55833 C 10.42 g/m*3 13.56 C 0 km/h
2331 21-08-2019 02:00:00 12.65833 C 10.08 g/m*3 12.66 C 0.13333 km/h
2332 21-08-2019 03:00:00 11.99167 C 9.85 g/m*3 11.99 C 0.13333 km/h
2333 21-08-2019 04:00:00 11.30833 C 9.54 g/m*3 11.31 C 0.13333 km/h
2334 21-08-2019 05:00:00 10.73333 C 9.25 g/m*3 10.73 C 0 km/h
2335 21-08-2019 06:00:00 10.325 C 9.1 g/m*3 10.33 C 0 km/h
2336 21-08-2019 07:00:00 10.35833 C 9.16 g/m*3 10.36 C 0.26667 km/h
2337 21-08-2019 08:00:00 10.85833 C 9.52 g/m*3 10.86 C 0.13333 km/h
2338 21-08-2019 09:00:00 11.86667 C 10.15 g/m*3 11.87 C 0.66667 km/h
2339 21-08-2019 10:00:00 13.33333 C 11.14 g/m*3 13.33 C 0 km/h
2340 21-08-2019 11:00:00 15.80833 C 12.13 g/m*3 15.81 C 0.93333 km/h
2341 21-08-2019 12:00:00 18.54167 C 11.58 g/m*3 18.54 C 1.46667 km/h
2342 21-08-2019 13:00:00 20.375 C 10.25 g/m*3 20.38 C 5.38333 km/h
2343 21-08-2019 14:00:00 21.79167 C 10.04 g/m*3 21.79 C 6.575 km/h
2344 21-08-2019 15:00:00 22.95833 C 10.3 g/m*3 22.96 C 2.13333 km/h
2345 21-08-2019 16:00:00 24.475 C 9.39 g/m*3 24.48 C 7.23333 km/h
2346 21-08-2019 17:00:00 24.65 C 9.4 g/m*3 24.65 C 4.28333 km/h
2347 21-08-2019 18:00:00 24.64167 C 10 g/m*3 24.64 C 4.94167 km/h
2348 21-08-2019 19:00:00 23.46667 C 11.61 g/m*3 23.47 C 1.6 km/h
2349 21-08-2019 20:00:00 19.875 C 11.09 g/m*3 19.88 C 0 km/h
2350 21-08-2019 21:00:00 17.49167 C 9.97 g/m*3 17.49 C 0.4 km/h
Sensor: Nr:Datum:Temp:Abs-Feuchte:Windchill:Wind:
Aussen-T/F 2351 21-08-2019 22:00:00 16.29167 C 9.59 g/m*3 16.29 C 0 km/h
2352 21-08-2019 23:00:00 15.05833 C 9.99 g/m*3 15.06 C 0 km/h
2353 22-08-2019 00:00:00 13.475 C 9.75 g/m*3 13.48 C 0 km/h
2354 22-08-2019 01:00:00 12.41667 C 9.41 g/m*3 12.42 C 0 km/h
2355 22-08-2019 02:00:00 11.66667 C 9.25 g/m*3 11.67 C 0 km/h
2356 22-08-2019 03:00:00 11.125 C 9.12 g/m*3 11.13 C 0 km/h
2357 22-08-2019 04:00:00 10.55833 C 8.92 g/m*3 10.56 C 0 km/h
2358 22-08-2019 05:00:00 9.99167 C 8.7 g/m*3 9.99 C 0 km/h
2359 22-08-2019 06:00:00 9.71667 C 8.65 g/m*3 9.72 C 0 km/h
2360 22-08-2019 07:00:00 9.7 C 8.73 g/m*3 9.7 C 0 km/h
2361 22-08-2019 08:00:00 10.30833 C 9.13 g/m*3 10.31 C 0 km/h
2362 22-08-2019 09:00:00 11.525 C 9.93 g/m*3 11.53 C 0 km/h
2363 22-08-2019 10:00:00 13.51667 C 11.07 g/m*3 13.52 C 0 km/h
2364 22-08-2019 11:00:00 16.925 C 11.87 g/m*3 16.93 C 0 km/h
2365 22-08-2019 12:00:00 20.11667 C 11.46 g/m*3 20.12 C 3.46667 km/h
2366 22-08-2019 13:00:00 22.71667 C 10.89 g/m*3 22.72 C 5.09167 km/h
2367 22-08-2019 14:00:00 24.08333 C 10.49 g/m*3 24.08 C 6.71667 km/h
2368 22-08-2019 15:00:00 25.89167 C 9.9 g/m*3 25.89 C 6.84167 km/h
2369 22-08-2019 16:00:00 27.33333 C 9.76 g/m*3 27.33 C 6.16667 km/h
2370 22-08-2019 17:00:00 28.01667 C 9.41 g/m*3 28.02 C 6.16667 km/h
2371 22-08-2019 18:00:00 28.38333 C 9.67 g/m*3 28.38 C 3.46667 km/h
2372 22-08-2019 19:00:00 26.06667 C 11.97 g/m*3 26.07 C 0.26667 km/h
2373 22-08-2019 20:00:00 21.49167 C 11.04 g/m*3 21.49 C 0.26667 km/h
2374 22-08-2019 21:00:00 18.25 C 10.74 g/m*3 18.25 C 0 km/h
2375 22-08-2019 22:00:00 16.40833 C 10.6 g/m*3 16.41 C 0 km/h
Sensor: Nr:Datum:Temp:Abs-Feuchte:Windchill:Wind:
Aussen-T/F 2376 22-08-2019 23:00:00 14.90833 C 10.12 g/m*3 14.91 C 0 km/h
2377 23-08-2019 00:00:00 13.94167 C 9.97 g/m*3 13.94 C 0 km/h
2378 23-08-2019 01:00:00 13.26667 C 9.81 g/m*3 13.27 C 0 km/h
2379 23-08-2019 02:00:00 12.775 C 9.72 g/m*3 12.78 C 0 km/h
2380 23-08-2019 03:00:00 11.975 C 9.49 g/m*3 11.98 C 0 km/h
2381 23-08-2019 04:00:00 11.56667 C 9.45 g/m*3 11.57 C 0 km/h
2382 23-08-2019 05:00:00 11.06667 C 9.24 g/m*3 11.07 C 0 km/h
2383 23-08-2019 06:00:00 10.66667 C 9.14 g/m*3 10.67 C 0 km/h
2384 23-08-2019 07:00:00 10.7 C 9.25 g/m*3 10.7 C 0 km/h
2385 23-08-2019 08:00:00 11.3 C 9.68 g/m*3 11.3 C 0 km/h
2386 23-08-2019 09:00:00 12.35 C 10.35 g/m*3 12.35 C 0 km/h
2387 23-08-2019 10:00:00 14.34167 C 11.59 g/m*3 14.34 C 0 km/h
2388 23-08-2019 11:00:00 17.6 C 12.75 g/m*3 17.6 C 0 km/h
2389 23-08-2019 12:00:00 21.16667 C 12.76 g/m*3 21.17 C 1.46667 km/h
2390 23-08-2019 13:00:00 24.1 C 11.12 g/m*3 24.1 C 3.86667 km/h
2391 23-08-2019 14:00:00 26.13333 C 10.36 g/m*3 26.13 C 7.925 km/h
2392 23-08-2019 15:00:00 27.85833 C 10.32 g/m*3 27.86 C 6.84167 km/h
2393 23-08-2019 16:00:00 29.15 C 10.11 g/m*3 29.15 C 9.28333 km/h
2394 23-08-2019 17:00:00 29.375 C 9.97 g/m*3 29.38 C 12.5 km/h
2395 23-08-2019 18:00:00 28.94167 C 9.47 g/m*3 28.94 C 12.36667 km/h
2396 23-08-2019 19:00:00 27.20833 C 12.06 g/m*3 27.21 C 1.875 km/h
2397 23-08-2019 20:00:00 23.01667 C 11.42 g/m*3 23.02 C 0.66667 km/h
2398 23-08-2019 21:00:00 20.16667 C 11.34 g/m*3 20.17 C 0 km/h
2399 23-08-2019 22:00:00 17.85 C 11.09 g/m*3 17.85 C 0 km/h
2400 23-08-2019 23:00:00 16.23333 C 10.61 g/m*3 16.23 C 0 km/h
Sensor: Nr:Datum:Temp:Abs-Feuchte:Windchill:Wind:
Aussen-T/F 2401 24-08-2019 00:00:00 14.96667 C 10.33 g/m*3 14.97 C 0 km/h
2402 24-08-2019 01:00:00 14.05833 C 10.23 g/m*3 14.06 C 0 km/h
2403 24-08-2019 02:00:00 13.425 C 10.07 g/m*3 13.43 C 0 km/h
2404 24-08-2019 03:00:00 12.7 C 9.88 g/m*3 12.7 C 0 km/h
2405 24-08-2019 04:00:00 12.06667 C 9.67 g/m*3 12.07 C 0 km/h
2406 24-08-2019 05:00:00 11.66667 C 9.58 g/m*3 11.67 C 0 km/h
2407 24-08-2019 06:00:00 11.425 C 9.54 g/m*3 11.43 C 0 km/h
2408 24-08-2019 07:00:00 11.575 C 9.75 g/m*3 11.58 C 0 km/h
2409 24-08-2019 08:00:00 12.06667 C 10.08 g/m*3 12.07 C 0 km/h
2410 24-08-2019 09:00:00 13.23333 C 10.82 g/m*3 13.23 C 0 km/h
2411 24-08-2019 10:00:00 15.5 C 12.09 g/m*3 15.5 C 0.4 km/h
2412 24-08-2019 11:00:00 18.88333 C 12.89 g/m*3 18.88 C 0.66667 km/h
2413 24-08-2019 12:00:00 22.24167 C 13.01 g/m*3 22.24 C 2.66667 km/h
2414 24-08-2019 13:00:00 25.4 C 12.28 g/m*3 25.4 C 7.78333 km/h
2415 24-08-2019 14:00:00 27.05 C 11.27 g/m*3 27.05 C 8.58333 km/h
2416 24-08-2019 15:00:00 28.69167 C 10.64 g/m*3 28.69 C 8.875 km/h
2417 24-08-2019 16:00:00 29.81667 C 10.33 g/m*3 29.82 C 11.69167 km/h
2418 24-08-2019 17:00:00 30.29167 C 10.09 g/m*3 30.29 C 11.15833 km/h
2419 24-08-2019 18:00:00 30.66667 C 10.95 g/m*3 30.67 C 9.55 km/h
2420 24-08-2019 19:00:00 28.56667 C 13.72 g/m*3 28.57 C 1.6 km/h
2421 24-08-2019 20:00:00 24.29167 C 13.11 g/m*3 24.29 C 0.66667 km/h
2422 24-08-2019 21:00:00 22.01667 C 12.87 g/m*3 22.02 C 0.4 km/h
2423 24-08-2019 22:00:00 19.78333 C 12.64 g/m*3 19.78 C 0.13333 km/h
2424 24-08-2019 23:00:00 18.175 C 12.16 g/m*3 18.18 C 0 km/h
2425 25-08-2019 00:00:00 17.35833 C 12.09 g/m*3 17.36 C 0 km/h
Sensor: Nr:Datum:Temp:Abs-Feuchte:Windchill:Wind:
Aussen-T/F 2426 25-08-2019 01:00:00 16.96667 C 11.95 g/m*3 16.97 C 0.26667 km/h
2427 25-08-2019 02:00:00 16.15833 C 11.73 g/m*3 16.16 C 0 km/h
2428 25-08-2019 03:00:00 15.53333 C 11.66 g/m*3 15.53 C 0.26667 km/h
2429 25-08-2019 04:00:00 15.19167 C 11.47 g/m*3 15.19 C 0.13333 km/h
2430 25-08-2019 05:00:00 14.65833 C 11.28 g/m*3 14.66 C 0 km/h
2431 25-08-2019 06:00:00 14.41667 C 11.24 g/m*3 14.42 C 0 km/h
2432 25-08-2019 07:00:00 14.80833 C 11.59 g/m*3 14.81 C 0.26667 km/h
2433 25-08-2019 08:00:00 15.84167 C 12.21 g/m*3 15.84 C 0 km/h
2434 25-08-2019 09:00:00 17.2 C 12.94 g/m*3 17.2 C 0 km/h
2435 25-08-2019 10:00:00 18.78333 C 13.62 g/m*3 18.78 C 0 km/h
2436 25-08-2019 11:00:00 21.64167 C 14.72 g/m*3 21.64 C 1.46667 km/h
2437 25-08-2019 12:00:00 24.54167 C 15.7 g/m*3 24.54 C 3.33333 km/h
2438 25-08-2019 13:00:00 26.76667 C 15.98 g/m*3 26.77 C 3.33333 km/h
2439 25-08-2019 14:00:00 28.375 C 15.82 g/m*3 28.38 C 4.28333 km/h
2440 25-08-2019 15:00:00 30.28333 C 15.83 g/m*3 30.28 C 5.5 km/h
2441 25-08-2019 16:00:00 31.18333 C 16.05 g/m*3 31.18 C 6.05833 km/h
2442 25-08-2019 17:00:00 32.3 C 16.12 g/m*3 32.3 C 3.875 km/h
2443 25-08-2019 18:00:00 30.05 C 16.09 g/m*3 30.05 C 4.425 km/h
2444 25-08-2019 19:00:00 27.125 C 16.41 g/m*3 27.13 C 0.13333 km/h
2445 25-08-2019 20:00:00 24.31667 C 15.82 g/m*3 24.32 C 0.13333 km/h
2446 25-08-2019 21:00:00 22.98333 C 15.85 g/m*3 22.98 C 0 km/h
2447 25-08-2019 22:00:00 21.19167 C 15.27 g/m*3 21.19 C 0 km/h
2448 25-08-2019 23:00:00 20.10833 C 14.86 g/m*3 20.11 C 0 km/h
2449 26-08-2019 00:00:00 19.475 C 14.76 g/m*3 19.48 C 0 km/h
2450 26-08-2019 01:00:00 19.14167 C 14.65 g/m*3 19.14 C 0 km/h
Sensor: Nr:Datum:Temp:Abs-Feuchte:Windchill:Wind:
Aussen-T/F 2451 26-08-2019 02:00:00 18.53333 C 14.39 g/m*3 18.53 C 0.13333 km/h
2452 26-08-2019 03:00:00 18.025 C 14.1 g/m*3 18.02 C 0 km/h
2453 26-08-2019 04:00:00 17.41667 C 13.8 g/m*3 17.42 C 0 km/h
2454 26-08-2019 05:00:00 17.14167 C 13.74 g/m*3 17.14 C 0.13333 km/h
2455 26-08-2019 06:00:00 16.76667 C 13.46 g/m*3 16.77 C 0 km/h
2456 26-08-2019 07:00:00 16.71667 C 13.55 g/m*3 16.72 C 0 km/h
2457 26-08-2019 08:00:00 17.475 C 14.29 g/m*3 17.48 C 0 km/h
2458 26-08-2019 09:00:00 18.55 C 15.21 g/m*3 18.55 C 0 km/h
2459 26-08-2019 10:00:00 20.15833 C 16.12 g/m*3 20.16 C 0.13333 km/h
2460 26-08-2019 11:00:00 22.95 C 17.15 g/m*3 22.95 C 0.93333 km/h
2461 26-08-2019 12:00:00 25.70833 C 17.45 g/m*3 25.71 C 1.86667 km/h
2462 26-08-2019 13:00:00 28.3 C 16.68 g/m*3 28.3 C 5.075 km/h
2463 26-08-2019 14:00:00 30.01667 C 15.99 g/m*3 30.02 C 5.08333 km/h
2464 26-08-2019 15:00:00 30.85833 C 16.04 g/m*3 30.86 C 4.95 km/h
2465 26-08-2019 16:00:00 28.55 C 16.58 g/m*3 28.55 C 2 km/h
2466 26-08-2019 17:00:00 27.475 C 17.77 g/m*3 27.48 C 0 km/h
2467 26-08-2019 18:00:00 27.10833 C 18.14 g/m*3 27.11 C 0 km/h
2468 26-08-2019 19:00:00 28.06667 C 18.01 g/m*3 28.07 C 0 km/h
2469 26-08-2019 20:00:00 24.69167 C 16.65 g/m*3 24.69 C 0 km/h
2470 26-08-2019 21:00:00 22.45 C 16.03 g/m*3 22.45 C 0 km/h
2471 26-08-2019 22:00:00 21.09167 C 15.61 g/m*3 21.09 C 0 km/h
2472 26-08-2019 23:00:00 20.175 C 15.34 g/m*3 20.18 C 0.13333 km/h
2473 27-08-2019 00:00:00 19.40833 C 15.01 g/m*3 19.41 C 0 km/h
2474 27-08-2019 01:00:00 19.01667 C 15.01 g/m*3 19.02 C 0 km/h
2475 27-08-2019 02:00:00 18.39167 C 14.59 g/m*3 18.39 C 0 km/h
Sensor: Nr:Datum:Temp:Abs-Feuchte:Windchill:Wind:
Aussen-T/F 2476 27-08-2019 03:00:00 17.91667 C 14.38 g/m*3 17.92 C 0.13333 km/h
2477 27-08-2019 04:00:00 17.55833 C 14.1 g/m*3 17.56 C 0 km/h
2478 27-08-2019 05:00:00 17.15833 C 13.88 g/m*3 17.16 C 0 km/h
2479 27-08-2019 06:00:00 16.79167 C 13.62 g/m*3 16.79 C 0 km/h
2480 27-08-2019 07:00:00 16.85 C 13.77 g/m*3 16.85 C 0 km/h
2481 27-08-2019 08:00:00 17.325 C 14.24 g/m*3 17.33 C 0 km/h
2482 27-08-2019 09:00:00 18.4 C 15.26 g/m*3 18.4 C 0 km/h
2483 27-08-2019 10:00:00 19.78333 C 16.4 g/m*3 19.78 C 0 km/h
2484 27-08-2019 11:00:00 22.275 C 17.8 g/m*3 22.28 C 0 km/h
2485 27-08-2019 12:00:00 25.41667 C 17.97 g/m*3 25.42 C 0 km/h
2486 27-08-2019 13:00:00 28.99167 C 16.36 g/m*3 28.99 C 1.06667 km/h
2487 27-08-2019 14:00:00 30.54167 C 15.38 g/m*3 30.54 C 2 km/h
2488 27-08-2019 15:00:00 31.89167 C 14.46 g/m*3 31.89 C 4.95833 km/h
2489 27-08-2019 16:00:00 33.23333 C 15.02 g/m*3 33.23 C 4.28333 km/h
2490 27-08-2019 17:00:00 32.29167 C 16.29 g/m*3 32.29 C 1.46667 km/h
2491 27-08-2019 18:00:00 29.55833 C 16.9 g/m*3 29.56 C 1.2 km/h
2492 27-08-2019 19:00:00 27.7 C 17.08 g/m*3 27.7 C 5.23333 km/h
2493 27-08-2019 20:00:00 23.50833 C 17.31 g/m*3 23.51 C 0.53333 km/h
2494 27-08-2019 21:00:00 22.09167 C 16.5 g/m*3 22.09 C 0.4 km/h
2495 27-08-2019 22:00:00 21.14167 C 15.96 g/m*3 21.14 C 0 km/h
2496 27-08-2019 23:00:00 20.43333 C 15.63 g/m*3 20.43 C 0.13333 km/h
2497 28-08-2019 00:00:00 19.9 C 15.48 g/m*3 19.9 C 0.4 km/h
2498 28-08-2019 01:00:00 19.61667 C 15.5 g/m*3 19.62 C 0 km/h
2499 28-08-2019 02:00:00 19.24167 C 15.32 g/m*3 19.24 C 0 km/h
2500 28-08-2019 03:00:00 18.71667 C 14.98 g/m*3 18.72 C 0.4 km/h
Sensor: Nr:Datum:Temp:Abs-Feuchte:Windchill:Wind:
Aussen-T/F 2501 28-08-2019 04:00:00 18.33333 C 14.71 g/m*3 18.33 C 0 km/h
2502 28-08-2019 05:00:00 17.96667 C 14.47 g/m*3 17.97 C 0 km/h
2503 28-08-2019 06:00:00 18.01667 C 14.62 g/m*3 18.02 C 0 km/h
2504 28-08-2019 07:00:00 17.85833 C 14.51 g/m*3 17.86 C 0 km/h
2505 28-08-2019 08:00:00 18.64167 C 15.28 g/m*3 18.64 C 0.93333 km/h
2506 28-08-2019 09:00:00 19.75833 C 15.89 g/m*3 19.76 C 2.8 km/h
2507 28-08-2019 10:00:00 22.45 C 15.49 g/m*3 22.45 C 7.4 km/h
2508 28-08-2019 11:00:00 23.975 C 15.57 g/m*3 23.98 C 4.40833 km/h
2509 28-08-2019 12:00:00 24.49167 C 15.85 g/m*3 24.49 C 4.025 km/h
2510 28-08-2019 13:00:00 26.54167 C 14.76 g/m*3 26.54 C 7.66667 km/h
2511 28-08-2019 14:00:00 29.44167 C 14.81 g/m*3 29.44 C 9.29167 km/h
2512 28-08-2019 15:00:00 30.35833 C 13.68 g/m*3 30.36 C 11.43333 km/h
2513 28-08-2019 16:00:00 31.55833 C 13.63 g/m*3 31.56 C 11.29167 km/h
2514 28-08-2019 17:00:00 31.80833 C 14.03 g/m*3 31.81 C 7.39167 km/h
2515 28-08-2019 18:00:00 31.18333 C 14.79 g/m*3 31.18 C 4.96667 km/h
2516 28-08-2019 19:00:00 27.875 C 14.09 g/m*3 27.88 C 0.53333 km/h
2517 28-08-2019 20:00:00 25.59167 C 13.46 g/m*3 25.59 C 0.4 km/h
2518 28-08-2019 21:00:00 24.2 C 13.75 g/m*3 24.2 C 0.53333 km/h
2519 28-08-2019 22:00:00 22.43333 C 13.94 g/m*3 22.43 C 0 km/h
2520 28-08-2019 23:00:00 21.38333 C 13.92 g/m*3 21.38 C 0 km/h
2521 29-08-2019 00:00:00 20.775 C 13.89 g/m*3 20.78 C 0 km/h
2522 29-08-2019 01:00:00 20.10833 C 13.75 g/m*3 20.11 C 0 km/h
2523 29-08-2019 02:00:00 19.2 C 13.55 g/m*3 19.2 C 0 km/h
2524 29-08-2019 03:00:00 18.225 C 13.21 g/m*3 18.23 C 0 km/h
2525 29-08-2019 04:00:00 17.53333 C 13.15 g/m*3 17.53 C 0 km/h
Sensor: Nr:Datum:Temp:Abs-Feuchte:Windchill:Wind:
Aussen-T/F 2526 29-08-2019 05:00:00 17.78333 C 13.63 g/m*3 17.78 C 0 km/h
2527 29-08-2019 06:00:00 18.34167 C 14.08 g/m*3 18.34 C 0.53333 km/h
2528 29-08-2019 07:00:00 19.04167 C 14.58 g/m*3 19.04 C 2.4 km/h
2529 29-08-2019 08:00:00 19.89167 C 14.95 g/m*3 19.89 C 3.06667 km/h
2530 29-08-2019 09:00:00 20.7 C 15.27 g/m*3 20.7 C 2.4 km/h
2531 29-08-2019 10:00:00 21.175 C 16.01 g/m*3 21.18 C 0.4 km/h
2532 29-08-2019 11:00:00 22.13333 C 16.14 g/m*3 22.13 C 2.94167 km/h
2533 29-08-2019 12:00:00 23.29167 C 16.23 g/m*3 23.29 C 5.075 km/h
2534 29-08-2019 13:00:00 25.45 C 16.23 g/m*3 25.45 C 8.475 km/h
2535 29-08-2019 14:00:00 26.78333 C 16.49 g/m*3 26.78 C 7.925 km/h
2536 29-08-2019 15:00:00 27.53333 C 16.59 g/m*3 27.53 C 9.41667 km/h
2537 29-08-2019 16:00:00 27.875 C 16.18 g/m*3 27.88 C 9.40833 km/h
2538 29-08-2019 17:00:00 27.28333 C 15.75 g/m*3 27.28 C 8.74167 km/h
2539 29-08-2019 18:00:00 26.44167 C 15.18 g/m*3 26.44 C 8.325 km/h
2540 29-08-2019 19:00:00 24.73333 C 14.66 g/m*3 24.73 C 4.675 km/h
2541 29-08-2019 20:00:00 22.80833 C 14.37 g/m*3 22.81 C 1.2 km/h
2542 29-08-2019 21:00:00 20.89167 C 13.97 g/m*3 20.89 C 0.4 km/h
2543 29-08-2019 22:00:00 20.525 C 14.05 g/m*3 20.53 C 0.13333 km/h
2544 29-08-2019 23:00:00 20.48333 C 14.15 g/m*3 20.48 C 0.26667 km/h
2545 30-08-2019 00:00:00 20.30833 C 13.9 g/m*3 20.31 C 2.4 km/h
2546 30-08-2019 01:00:00 19.18333 C 13.66 g/m*3 19.18 C 0 km/h
2547 30-08-2019 02:00:00 18.2 C 13.38 g/m*3 18.2 C 0 km/h
2548 30-08-2019 03:00:00 17.48333 C 13.17 g/m*3 17.48 C 0 km/h
2549 30-08-2019 04:00:00 16.65833 C 12.77 g/m*3 16.66 C 0 km/h
2550 30-08-2019 05:00:00 15.975 C 12.62 g/m*3 15.98 C 0.13333 km/h
Sensor: Nr:Datum:Temp:Abs-Feuchte:Windchill:Wind:
Aussen-T/F 2551 30-08-2019 06:00:00 15.91667 C 12.64 g/m*3 15.92 C 0.13333 km/h
2552 30-08-2019 07:00:00 15.41667 C 12.32 g/m*3 15.42 C 0 km/h
2553 30-08-2019 08:00:00 16.09167 C 12.94 g/m*3 16.09 C 0.26667 km/h
2554 30-08-2019 09:00:00 17.96667 C 13.59 g/m*3 17.97 C 1.06667 km/h
2555 30-08-2019 10:00:00 19.41667 C 13.65 g/m*3 19.42 C 1.2 km/h
2556 30-08-2019 11:00:00 20.825 C 13.78 g/m*3 20.83 C 1.46667 km/h
2557 30-08-2019 12:00:00 22.16667 C 14.24 g/m*3 22.17 C 3.86667 km/h
2558 30-08-2019 13:00:00 23.59167 C 14.51 g/m*3 23.59 C 4.84167 km/h
2559 30-08-2019 14:00:00 25 C 14 g/m*3 25 C 6.01667 km/h
2560 30-08-2019 15:00:00 26.16667 C 12.59 g/m*3 26.17 C 5.75833 km/h
2561 30-08-2019 16:00:00 27.98333 C 12.41 g/m*3 27.98 C 5.49167 km/h
2562 30-08-2019 17:00:00 29.66667 C 11.27 g/m*3 29.67 C 3.73333 km/h
2563 30-08-2019 18:00:00 29.54167 C 11.12 g/m*3 29.54 C 6.29167 km/h
2564 30-08-2019 19:00:00 27.175 C 12.24 g/m*3 27.18 C 2.13333 km/h
2565 30-08-2019 20:00:00 23 C 11.42 g/m*3 23 C 0.26667 km/h
2566 30-08-2019 21:00:00 20.38333 C 11.5 g/m*3 20.38 C 0 km/h
2567 30-08-2019 22:00:00 18.64167 C 11.58 g/m*3 18.64 C 0 km/h
2568 30-08-2019 23:00:00 17.38333 C 11.44 g/m*3 17.38 C 0 km/h
2569 31-08-2019 00:00:00 16.65 C 11.48 g/m*3 16.65 C 0 km/h
2570 31-08-2019 01:00:00 15.825 C 11.35 g/m*3 15.83 C 0 km/h
2571 31-08-2019 02:00:00 15.21667 C 11.21 g/m*3 15.22 C 0 km/h
2572 31-08-2019 03:00:00 14.75 C 11.18 g/m*3 14.75 C 0 km/h
2573 31-08-2019 04:00:00 14.31667 C 11.09 g/m*3 14.32 C 0 km/h
2574 31-08-2019 05:00:00 14.15 C 11.15 g/m*3 14.15 C 0 km/h
2575 31-08-2019 06:00:00 14.1 C 11.17 g/m*3 14.1 C 0 km/h
Sensor: Nr:Datum:Temp:Abs-Feuchte:Windchill:Wind:
Aussen-T/F 2576 31-08-2019 07:00:00 14.10833 C 11.25 g/m*3 14.11 C 0 km/h
2577 31-08-2019 08:00:00 14.76667 C 11.71 g/m*3 14.77 C 0 km/h
2578 31-08-2019 09:00:00 15.89167 C 12.49 g/m*3 15.89 C 0 km/h
2579 31-08-2019 10:00:00 17.8 C 13.51 g/m*3 17.8 C 0 km/h
2580 31-08-2019 11:00:00 20.6 C 14.54 g/m*3 20.6 C 0 km/h
2581 31-08-2019 12:00:00 23.625 C 15.57 g/m*3 23.63 C 0.675 km/h
2582 31-08-2019 13:00:00 28.49167 C 15.25 g/m*3 28.49 C 7.24167 km/h
2583 31-08-2019 14:00:00 30.36667 C 14.64 g/m*3 30.37 C 6.83333 km/h
2584 31-08-2019 15:00:00 31.43333 C 14.19 g/m*3 31.43 C 8.2 km/h
2585 31-08-2019 16:00:00 32.48333 C 14.66 g/m*3 32.48 C 6.16667 km/h
2586 31-08-2019 17:00:00 33.89167 C 14.86 g/m*3 33.89 C 8.05 km/h
2587 31-08-2019 18:00:00 33.71667 C 14.79 g/m*3 33.72 C 6.43333 km/h
2588 31-08-2019 19:00:00 31.13333 C 15.74 g/m*3 31.13 C 0.8 km/h
2589 31-08-2019 20:00:00 25.89167 C 14.52 g/m*3 25.89 C 0.4 km/h
2590 31-08-2019 21:00:00 24.875 C 14.17 g/m*3 24.88 C 4.95833 km/h
2591 31-08-2019 22:00:00 24.58333 C 15.85 g/m*3 24.58 C 4.81667 km/h
2592 31-08-2019 23:00:00 20.69167 C 15.76 g/m*3 20.69 C 1.73333 km/h
2593 01-09-2019 00:00:00 19.66667 C 15.46 g/m*3 19.67 C 0.66667 km/h
2594 01-09-2019 01:00:00 19.34167 C 15.12 g/m*3 19.34 C 0.53333 km/h
2595 01-09-2019 02:00:00 19.10833 C 14.09 g/m*3 19.11 C 0 km/h
2596 01-09-2019 03:00:00 18.325 C 13.17 g/m*3 18.33 C 1.33333 km/h
2597 01-09-2019 04:00:00 17.88333 C 12.23 g/m*3 17.88 C 2.66667 km/h
2598 01-09-2019 05:00:00 17.84167 C 12.03 g/m*3 17.84 C 4.81667 km/h
2599 01-09-2019 06:00:00 17.30833 C 11.73 g/m*3 17.31 C 2.80833 km/h
2600 01-09-2019 07:00:00 16.1 C 11.74 g/m*3 16.1 C 0.53333 km/h
Sensor: Nr:Datum:Temp:Abs-Feuchte:Windchill:Wind:
Aussen-T/F 2601 01-09-2019 08:00:00 17.48333 C 12.3 g/m*3 17.48 C 4.28333 km/h
2602 01-09-2019 09:00:00 18.13333 C 12.46 g/m*3 18.13 C 5.75 km/h
2603 01-09-2019 10:00:00 19.10833 C 12.55 g/m*3 19.11 C 7.65 km/h
2604 01-09-2019 11:00:00 20.025 C 12.85 g/m*3 20.02 C 8.05833 km/h
2605 01-09-2019 12:00:00 20.05 C 12.97 g/m*3 20.05 C 10.08333 km/h
2606 01-09-2019 13:00:00 19.69167 C 13.22 g/m*3 19.69 C 11.29167 km/h
2607 01-09-2019 14:00:00 20.075 C 13.13 g/m*3 20.08 C 8.04167 km/h
2608 01-09-2019 15:00:00 20.61667 C 12.84 g/m*3 20.62 C 8.05 km/h
2609 01-09-2019 16:00:00 20.38333 C 12.02 g/m*3 20.38 C 11.01667 km/h
2610 01-09-2019 17:00:00 19.975 C 11.29 g/m*3 19.98 C 10.49167 km/h
2611 01-09-2019 18:00:00 20.75833 C 10.94 g/m*3 20.76 C 10.1 km/h
2612 01-09-2019 19:00:00 20.60833 C 10.37 g/m*3 20.61 C 6.725 km/h
2613 01-09-2019 20:00:00 18.38333 C 10.45 g/m*3 18.38 C 1.475 km/h
2614 01-09-2019 21:00:00 16.68333 C 10.27 g/m*3 16.68 C 0 km/h
2615 01-09-2019 22:00:00 16.39167 C 9.96 g/m*3 16.39 C 0 km/h
2616 01-09-2019 23:00:00 15.59167 C 9.97 g/m*3 15.59 C 0 km/h
2617 02-09-2019 00:00:00 14.44167 C 9.36 g/m*3 14.44 C 0 km/h
2618 02-09-2019 01:00:00 13.29167 C 8.99 g/m*3 13.29 C 0 km/h
2619 02-09-2019 02:00:00 13.3 C 9.27 g/m*3 13.3 C 0 km/h
2620 02-09-2019 03:00:00 13.025 C 9.37 g/m*3 13.03 C 0 km/h
2621 02-09-2019 04:00:00 12 C 8.94 g/m*3 12 C 0.4 km/h
2622 02-09-2019 05:00:00 11.21667 C 8.72 g/m*3 11.22 C 0 km/h
2623 02-09-2019 06:00:00 10.15 C 8.45 g/m*3 10.15 C 0 km/h
2624 02-09-2019 07:00:00 9.73333 C 8.47 g/m*3 9.73 C 0.53333 km/h
2625 02-09-2019 08:00:00 10.03333 C 8.75 g/m*3 10.03 C 0 km/h
Sensor: Nr:Datum:Temp:Abs-Feuchte:Windchill:Wind:
Aussen-T/F 2626 02-09-2019 09:00:00 10.83333 C 9.17 g/m*3 10.83 C 0 km/h
2627 02-09-2019 10:00:00 12.85833 C 9.9 g/m*3 12.86 C 0.8 km/h
2628 02-09-2019 11:00:00 16.2 C 9.16 g/m*3 16.2 C 7.93333 km/h
2629 02-09-2019 12:00:00 17.53333 C 8.44 g/m*3 17.53 C 8.74167 km/h
2630 02-09-2019 13:00:00 18.70833 C 7.96 g/m*3 18.71 C 9.95833 km/h
2631 02-09-2019 14:00:00 19.83333 C 7.92 g/m*3 19.83 C 9.28333 km/h
2632 02-09-2019 15:00:00 20.175 C 7.9 g/m*3 20.18 C 7.90833 km/h
2633 02-09-2019 16:00:00 21.80833 C 7.98 g/m*3 21.81 C 9.68333 km/h
2634 02-09-2019 17:00:00 23.09167 C 7.83 g/m*3 23.09 C 6.70833 km/h
2635 02-09-2019 18:00:00 22.99167 C 7.67 g/m*3 22.99 C 5.48333 km/h
2636 02-09-2019 19:00:00 20.575 C 8.35 g/m*3 20.58 C 1.2 km/h
2637 02-09-2019 20:00:00 16.9 C 8.1 g/m*3 16.9 C 0.93333 km/h
2638 02-09-2019 21:00:00 15.39167 C 7.97 g/m*3 15.39 C 0.26667 km/h
2639 02-09-2019 22:00:00 13.475 C 8.19 g/m*3 13.48 C 0 km/h
2640 02-09-2019 23:00:00 12.98333 C 8.24 g/m*3 12.98 C 0 km/h
2641 03-09-2019 00:00:00 12.39167 C 8.17 g/m*3 12.39 C 0 km/h
2642 03-09-2019 01:00:00 12.125 C 8.22 g/m*3 12.13 C 0 km/h
2643 03-09-2019 02:00:00 10.89167 C 7.86 g/m*3 10.89 C 0 km/h
2644 03-09-2019 03:00:00 10.175 C 7.75 g/m*3 10.18 C 0 km/h
2645 03-09-2019 04:00:00 10.08333 C 7.92 g/m*3 10.08 C 0 km/h
2646 03-09-2019 05:00:00 9.45 C 7.72 g/m*3 9.45 C 0 km/h
2647 03-09-2019 06:00:00 8.91667 C 7.64 g/m*3 8.92 C 0 km/h
2648 03-09-2019 07:00:00 8.65833 C 7.66 g/m*3 8.66 C 0.13333 km/h
2649 03-09-2019 08:00:00 9.08333 C 7.95 g/m*3 9.08 C 0 km/h
2650 03-09-2019 09:00:00 10.375 C 8.56 g/m*3 10.38 C 0.26667 km/h
Sensor: Nr:Datum:Temp:Abs-Feuchte:Windchill:Wind:
Aussen-T/F 2651 03-09-2019 10:00:00 13.225 C 9.38 g/m*3 13.23 C 1.46667 km/h
2652 03-09-2019 11:00:00 17.34167 C 9.34 g/m*3 17.34 C 5.90833 km/h
2653 03-09-2019 12:00:00 19.95833 C 9.22 g/m*3 19.96 C 8.18333 km/h
2654 03-09-2019 13:00:00 21.25 C 9.23 g/m*3 21.25 C 11.55833 km/h
2655 03-09-2019 14:00:00 22.64167 C 9.16 g/m*3 22.64 C 10.35 km/h
2656 03-09-2019 15:00:00 23.75 C 9.83 g/m*3 23.75 C 10.20833 km/h
2657 03-09-2019 16:00:00 23.58333 C 10.59 g/m*3 23.58 C 10.75 km/h
2658 03-09-2019 17:00:00 23.65 C 10.86 g/m*3 23.65 C 11.7 km/h
2659 03-09-2019 18:00:00 23.225 C 10.95 g/m*3 23.23 C 10.63333 km/h
2660 03-09-2019 19:00:00 21.11667 C 10.84 g/m*3 21.12 C 7.91667 km/h
2661 03-09-2019 20:00:00 18.86667 C 10.66 g/m*3 18.87 C 2.40833 km/h
2662 03-09-2019 21:00:00 16.325 C 10.42 g/m*3 16.33 C 0 km/h
2663 03-09-2019 22:00:00 15.33333 C 10.37 g/m*3 15.33 C 0.13333 km/h
2664 03-09-2019 23:00:00 14.05 C 10.08 g/m*3 14.05 C 0 km/h
2665 04-09-2019 00:00:00 13.05 C 9.9 g/m*3 13.05 C 0 km/h
2666 04-09-2019 01:00:00 12.35 C 9.74 g/m*3 12.35 C 0 km/h
2667 04-09-2019 02:00:00 11.85833 C 9.58 g/m*3 11.86 C 0 km/h
2668 04-09-2019 03:00:00 11.325 C 9.39 g/m*3 11.33 C 0 km/h
2669 04-09-2019 04:00:00 10.74167 C 9.12 g/m*3 10.74 C 0 km/h
2670 04-09-2019 05:00:00 10.36667 C 9 g/m*3 10.37 C 0 km/h
2671 04-09-2019 06:00:00 10.15833 C 8.95 g/m*3 10.16 C 0 km/h
2672 04-09-2019 07:00:00 10.09167 C 8.96 g/m*3 10.09 C 0 km/h
2673 04-09-2019 08:00:00 10.675 C 9.35 g/m*3 10.68 C 0.4 km/h
2674 04-09-2019 09:00:00 13.11667 C 10.54 g/m*3 13.12 C 4.26667 km/h
2675 04-09-2019 10:00:00 14.875 C 10.87 g/m*3 14.88 C 3.73333 km/h
Sensor: Nr:Datum:Temp:Abs-Feuchte:Windchill:Wind:
Aussen-T/F 2676 04-09-2019 11:00:00 18.09167 C 11.22 g/m*3 18.09 C 11.68333 km/h
2677 04-09-2019 12:00:00 19.78333 C 11.25 g/m*3 19.78 C 12.1 km/h
2678 04-09-2019 13:00:00 21.16667 C 11.47 g/m*3 21.17 C 12.63333 km/h
2679 04-09-2019 14:00:00 22.59167 C 11.56 g/m*3 22.59 C 14.63333 km/h
2680 04-09-2019 15:00:00 23.85 C 11.54 g/m*3 23.85 C 11.01667 km/h
2681 04-09-2019 16:00:00 25.11667 C 11.74 g/m*3 25.12 C 11.825 km/h
2682 04-09-2019 17:00:00 26.875 C 11.46 g/m*3 26.88 C 10.35 km/h
2683 04-09-2019 18:00:00 25.04167 C 10.84 g/m*3 25.04 C 14.49167 km/h
2684 04-09-2019 19:00:00 23.58333 C 11.1 g/m*3 23.58 C 9.65833 km/h
2685 04-09-2019 20:00:00 19.81667 C 11.87 g/m*3 19.82 C 9.50833 km/h
2686 04-09-2019 21:00:00 17.625 C 12.77 g/m*3 17.63 C 0.53333 km/h
2687 04-09-2019 22:00:00 16.28333 C 12.52 g/m*3 16.28 C 0.53333 km/h
2688 04-09-2019 23:00:00 15.64167 C 12.12 g/m*3 15.64 C 0.4 km/h
2689 05-09-2019 00:00:00 15.6 C 12.1 g/m*3 15.6 C 0 km/h
2690 05-09-2019 01:00:00 15.41667 C 11.73 g/m*3 15.42 C 1.33333 km/h
2691 05-09-2019 02:00:00 14.29167 C 10.66 g/m*3 14.29 C 1.06667 km/h
2692 05-09-2019 03:00:00 13.975 C 10.44 g/m*3 13.98 C 1.6 km/h
2693 05-09-2019 04:00:00 14.075 C 10.3 g/m*3 14.08 C 3.06667 km/h
2694 05-09-2019 05:00:00 13.48333 C 9.83 g/m*3 13.48 C 3.875 km/h
2695 05-09-2019 06:00:00 12.56667 C 9.49 g/m*3 12.57 C 4.13333 km/h
2696 05-09-2019 07:00:00 12.20833 C 9.38 g/m*3 12.21 C 5.49167 km/h
2697 05-09-2019 08:00:00 12.58333 C 9.44 g/m*3 12.58 C 8.75833 km/h
2698 05-09-2019 09:00:00 13.59167 C 9.67 g/m*3 13.59 C 7.65833 km/h
2699 05-09-2019 10:00:00 15.475 C 10.21 g/m*3 15.48 C 9.95 km/h
2700 05-09-2019 11:00:00 16.775 C 10.05 g/m*3 16.77 C 14.24167 km/h
Sensor: Nr:Datum:Temp:Abs-Feuchte:Windchill:Wind:
Aussen-T/F 2701 05-09-2019 12:00:00 17.09167 C 9.8 g/m*3 17.09 C 10.48333 km/h
2702 05-09-2019 13:00:00 18.1 C 9.41 g/m*3 18.1 C 10.225 km/h
2703 05-09-2019 14:00:00 18.09167 C 9.72 g/m*3 18.09 C 13.03333 km/h
2704 05-09-2019 15:00:00 18.5 C 9.11 g/m*3 18.5 C 11.15833 km/h
2705 05-09-2019 16:00:00 18.91667 C 9.07 g/m*3 18.92 C 13.16667 km/h
2706 05-09-2019 17:00:00 17.225 C 9.36 g/m*3 17.23 C 15.43333 km/h
2707 05-09-2019 18:00:00 16.4 C 9.44 g/m*3 16.4 C 8.59167 km/h
2708 05-09-2019 19:00:00 16.46667 C 9.02 g/m*3 16.47 C 6.325 km/h
2709 05-09-2019 20:00:00 15.70833 C 9.25 g/m*3 15.71 C 6.71667 km/h
2710 05-09-2019 21:00:00 14.93333 C 8.97 g/m*3 14.93 C 5.35833 km/h
2711 05-09-2019 22:00:00 14.49167 C 9.01 g/m*3 14.49 C 2.53333 km/h
2712 05-09-2019 23:00:00 13.94167 C 8.89 g/m*3 13.94 C 1.875 km/h
2713 06-09-2019 00:00:00 12.025 C 8.52 g/m*3 12.03 C 0.4 km/h
2714 06-09-2019 01:00:00 11.23333 C 8.41 g/m*3 11.23 C 1.73333 km/h
2715 06-09-2019 02:00:00 10.40833 C 8.34 g/m*3 10.41 C 0 km/h
2716 06-09-2019 03:00:00 9.875 C 8.21 g/m*3 9.88 C 0.13333 km/h
2717 06-09-2019 04:00:00 9.00833 C 7.89 g/m*3 9.01 C 0 km/h
2718 06-09-2019 05:00:00 8.075 C 7.6 g/m*3 8.07 C 0 km/h
2719 06-09-2019 06:00:00 7.56667 C 7.46 g/m*3 7.57 C 0 km/h
2720 06-09-2019 07:00:00 7.31667 C 7.41 g/m*3 7.32 C 0 km/h
2721 06-09-2019 08:00:00 7.85 C 7.77 g/m*3 7.85 C 0 km/h
2722 06-09-2019 09:00:00 8.75 C 8.25 g/m*3 8.75 C 0 km/h
2723 06-09-2019 10:00:00 10.175 C 9.03 g/m*3 10.18 C 0.13333 km/h
2724 06-09-2019 11:00:00 12.55833 C 9.18 g/m*3 12.56 C 1.73333 km/h
2725 06-09-2019 12:00:00 15.03333 C 8.28 g/m*3 15.03 C 4.00833 km/h
Sensor: Nr:Datum:Temp:Abs-Feuchte:Windchill:Wind:
Aussen-T/F 2726 06-09-2019 13:00:00 16.51667 C 8.14 g/m*3 16.52 C 4.4 km/h
2727 06-09-2019 14:00:00 18.3 C 7.75 g/m*3 18.3 C 8.325 km/h
2728 06-09-2019 15:00:00 19.475 C 7.53 g/m*3 19.48 C 9.26667 km/h
2729 06-09-2019 16:00:00 20.7 C 7.17 g/m*3 20.7 C 7.24167 km/h
2730 06-09-2019 17:00:00 22.36667 C 7.38 g/m*3 22.37 C 7.79167 km/h
2731 06-09-2019 18:00:00 22.25 C 7.74 g/m*3 22.25 C 6.975 km/h
2732 06-09-2019 19:00:00 19.41667 C 8.07 g/m*3 19.42 C 0.8 km/h
2733 06-09-2019 20:00:00 16.04167 C 7.71 g/m*3 16.04 C 0 km/h
2734 06-09-2019 21:00:00 14.65 C 7.6 g/m*3 14.65 C 0 km/h
2735 06-09-2019 22:00:00 12.74167 C 7.65 g/m*3 12.74 C 0.26667 km/h
2736 06-09-2019 23:00:00 12.69167 C 7.95 g/m*3 12.69 C 2 km/h
2737 07-09-2019 00:00:00 12.25833 C 7.99 g/m*3 12.26 C 0.93333 km/h
2738 07-09-2019 01:00:00 12.41667 C 8.06 g/m*3 12.42 C 1.73333 km/h
2739 07-09-2019 02:00:00 12.19167 C 8.09 g/m*3 12.19 C 1.73333 km/h
2740 07-09-2019 03:00:00 12.375 C 8.15 g/m*3 12.38 C 3.33333 km/h
2741 07-09-2019 04:00:00 12.69167 C 8.26 g/m*3 12.69 C 3.89167 km/h
2742 07-09-2019 05:00:00 12.64167 C 8.27 g/m*3 12.64 C 1.075 km/h
2743 07-09-2019 06:00:00 12.29167 C 8.35 g/m*3 12.29 C 0 km/h
2744 07-09-2019 07:00:00 11.96667 C 9.01 g/m*3 11.97 C 0.13333 km/h
2745 07-09-2019 08:00:00 11.78333 C 9.52 g/m*3 11.78 C 0.13333 km/h
2746 07-09-2019 09:00:00 11.80833 C 9.78 g/m*3 11.81 C 0 km/h
2747 07-09-2019 10:00:00 12.225 C 10.16 g/m*3 12.23 C 0 km/h
2748 07-09-2019 11:00:00 12.80833 C 10.52 g/m*3 12.81 C 0.4 km/h
2749 07-09-2019 12:00:00 13.475 C 10.93 g/m*3 13.48 C 1.06667 km/h
2750 07-09-2019 13:00:00 14.19167 C 11.31 g/m*3 14.19 C 1.06667 km/h
Sensor: Nr:Datum:Temp:Abs-Feuchte:Windchill:Wind:
Aussen-T/F 2751 07-09-2019 14:00:00 14.46667 C 11.38 g/m*3 14.47 C 1.73333 km/h
2752 07-09-2019 15:00:00 14.93333 C 11.53 g/m*3 14.93 C 3.73333 km/h
2753 07-09-2019 16:00:00 15.25 C 11.63 g/m*3 15.25 C 0.93333 km/h
2754 07-09-2019 17:00:00 15.30833 C 11.66 g/m*3 15.31 C 3.21667 km/h
2755 07-09-2019 18:00:00 14.29167 C 11.14 g/m*3 14.29 C 0.93333 km/h
2756 07-09-2019 19:00:00 13.34167 C 10.59 g/m*3 13.34 C 0.66667 km/h
2757 07-09-2019 20:00:00 12.64167 C 10.32 g/m*3 12.64 C 0.13333 km/h
2758 07-09-2019 21:00:00 12.00833 C 9.95 g/m*3 12.01 C 0 km/h
2759 07-09-2019 22:00:00 11.8 C 9.94 g/m*3 11.8 C 0 km/h
2760 07-09-2019 23:00:00 11.725 C 9.95 g/m*3 11.73 C 0 km/h
2761 08-09-2019 00:00:00 11.7 C 9.94 g/m*3 11.7 C 0 km/h
2762 08-09-2019 01:00:00 11.75833 C 10.04 g/m*3 11.76 C 0 km/h
2763 08-09-2019 02:00:00 11.29167 C 9.74 g/m*3 11.29 C 0 km/h
2764 08-09-2019 03:00:00 11.3 C 9.79 g/m*3 11.3 C 0 km/h
2765 08-09-2019 04:00:00 11.7 C 10.08 g/m*3 11.7 C 0 km/h
2766 08-09-2019 05:00:00 11.90833 C 10.17 g/m*3 11.91 C 0 km/h
2767 08-09-2019 06:00:00 12.075 C 10.36 g/m*3 12.08 C 0.13333 km/h
2768 08-09-2019 07:00:00 12.20833 C 10.41 g/m*3 12.21 C 0.4 km/h
2769 08-09-2019 08:00:00 12.31667 C 10.43 g/m*3 12.32 C 1.46667 km/h
2770 08-09-2019 09:00:00 12.325 C 10.38 g/m*3 12.33 C 4.13333 km/h
2771 08-09-2019 10:00:00 12.575 C 10.57 g/m*3 12.58 C 0 km/h
2772 08-09-2019 11:00:00 12.625 C 10.64 g/m*3 12.63 C 0.4 km/h
2773 08-09-2019 12:00:00 12.81667 C 10.75 g/m*3 12.82 C 2.53333 km/h
2774 08-09-2019 13:00:00 13.94167 C 11.24 g/m*3 13.94 C 1.6 km/h
2775 08-09-2019 14:00:00 14.875 C 11.24 g/m*3 14.88 C 3.6 km/h
Sensor: Nr:Datum:Temp:Abs-Feuchte:Windchill:Wind:
Aussen-T/F 2776 08-09-2019 15:00:00 15.73333 C 11.27 g/m*3 15.73 C 1.6 km/h
2777 08-09-2019 16:00:00 15.65833 C 11.32 g/m*3 15.66 C 1.46667 km/h
2778 08-09-2019 17:00:00 13.49167 C 10.83 g/m*3 13.49 C 2.53333 km/h
2779 08-09-2019 18:00:00 12.8 C 10.56 g/m*3 12.8 C 0.8 km/h
2780 08-09-2019 19:00:00 12.96667 C 10.8 g/m*3 12.97 C 0 km/h
2781 08-09-2019 20:00:00 12.56667 C 10.5 g/m*3 12.57 C 3.35 km/h
2782 08-09-2019 21:00:00 12.1 C 10.23 g/m*3 12.1 C 0.53333 km/h
2783 08-09-2019 22:00:00 11.81667 C 10.11 g/m*3 11.82 C 0 km/h
2784 08-09-2019 23:00:00 11.71667 C 10.05 g/m*3 11.72 C 0 km/h
2785 09-09-2019 00:00:00 11.45 C 9.88 g/m*3 11.45 C 0 km/h
2786 09-09-2019 01:00:00 11.26667 C 9.78 g/m*3 11.27 C 0.26667 km/h
2787 09-09-2019 02:00:00 11.29167 C 9.87 g/m*3 11.29 C 0 km/h
2788 09-09-2019 03:00:00 11.36667 C 9.94 g/m*3 11.37 C 0 km/h
2789 09-09-2019 04:00:00 11.36667 C 9.94 g/m*3 11.37 C 0 km/h
2790 09-09-2019 05:00:00 11.29167 C 9.89 g/m*3 11.29 C 0 km/h
2791 09-09-2019 06:00:00 11.3 C 9.89 g/m*3 11.3 C 0 km/h
2792 09-09-2019 07:00:00 11.275 C 9.88 g/m*3 11.28 C 0 km/h
2793 09-09-2019 08:00:00 11.39167 C 9.95 g/m*3 11.39 C 0 km/h
2794 09-09-2019 09:00:00 12.01667 C 10.35 g/m*3 12.02 C 0.26667 km/h
2795 09-09-2019 10:00:00 12.23333 C 10.49 g/m*3 12.23 C 0.13333 km/h
2796 09-09-2019 11:00:00 12.55833 C 10.62 g/m*3 12.56 C 2.66667 km/h
2797 09-09-2019 12:00:00 13.15 C 10.48 g/m*3 13.15 C 1.73333 km/h
2798 09-09-2019 13:00:00 14.2 C 10.57 g/m*3 14.2 C 2.4 km/h
2799 09-09-2019 14:00:00 14.81667 C 10.11 g/m*3 14.82 C 1.73333 km/h
2800 09-09-2019 15:00:00 15.175 C 10.39 g/m*3 15.18 C 0.8 km/h
Sensor: Nr:Datum:Temp:Abs-Feuchte:Windchill:Wind:
Aussen-T/F 2801 09-09-2019 16:00:00 15.475 C 10.21 g/m*3 15.48 C 1.06667 km/h
2802 09-09-2019 17:00:00 15.74167 C 9.89 g/m*3 15.74 C 1.33333 km/h
2803 09-09-2019 18:00:00 16.33333 C 10.25 g/m*3 16.33 C 1.46667 km/h
2804 09-09-2019 19:00:00 14.35 C 10.11 g/m*3 14.35 C 0.53333 km/h
2805 09-09-2019 20:00:00 12.00833 C 9.36 g/m*3 12.01 C 0.4 km/h
2806 09-09-2019 21:00:00 10.79167 C 8.96 g/m*3 10.79 C 0.13333 km/h
2807 09-09-2019 22:00:00 10.05 C 8.74 g/m*3 10.05 C 0 km/h
2808 09-09-2019 23:00:00 9.30833 C 8.44 g/m*3 9.31 C 0 km/h
2809 10-09-2019 00:00:00 8.75833 C 8.22 g/m*3 8.76 C 0 km/h
2810 10-09-2019 01:00:00 8.44167 C 8.09 g/m*3 8.44 C 0 km/h
2811 10-09-2019 02:00:00 8.3 C 8.07 g/m*3 8.3 C 0 km/h
2812 10-09-2019 03:00:00 8.625 C 8.26 g/m*3 8.63 C 0.53333 km/h
2813 10-09-2019 04:00:00 8.65 C 8.28 g/m*3 8.65 C 0.66667 km/h
2814 10-09-2019 05:00:00 8.55833 C 8.24 g/m*3 8.56 C 0.26667 km/h
2815 10-09-2019 06:00:00 8.2 C 8.1 g/m*3 8.2 C 0.8 km/h
2816 10-09-2019 07:00:00 8.225 C 8.14 g/m*3 8.23 C 0.13333 km/h
2817 10-09-2019 08:00:00 8.21667 C 8.13 g/m*3 8.22 C 2.26667 km/h
2818 10-09-2019 09:00:00 8.45833 C 8.26 g/m*3 8.46 C 2.13333 km/h
2819 10-09-2019 10:00:00 9.05 C 8.58 g/m*3 9.05 C 1.33333 km/h
2820 10-09-2019 11:00:00 9.94167 C 9.08 g/m*3 9.94 C 2.26667 km/h
2821 10-09-2019 12:00:00 11.78333 C 9.92 g/m*3 11.78 C 0.4 km/h
2822 10-09-2019 13:00:00 14.85833 C 9.92 g/m*3 14.86 C 1.6 km/h
2823 10-09-2019 14:00:00 17.25 C 9.44 g/m*3 17.25 C 3.60833 km/h
2824 10-09-2019 15:00:00 18.43333 C 9.19 g/m*3 18.43 C 5.36667 km/h
2825 10-09-2019 16:00:00 19.65 C 8.8 g/m*3 19.65 C 8.20833 km/h
Sensor: Nr:Datum:Temp:Abs-Feuchte:Windchill:Wind:
Aussen-T/F 2826 10-09-2019 17:00:00 18.38333 C 10.55 g/m*3 18.38 C 0.8 km/h
2827 10-09-2019 18:00:00 18.33333 C 10.97 g/m*3 18.33 C 0 km/h
2828 10-09-2019 19:00:00 16.4 C 10.1 g/m*3 16.4 C 0.13333 km/h
2829 10-09-2019 20:00:00 13.775 C 8.93 g/m*3 13.78 C 0 km/h
2830 10-09-2019 21:00:00 12.03333 C 8.86 g/m*3 12.03 C 0 km/h
2831 10-09-2019 22:00:00 10.66667 C 8.52 g/m*3 10.67 C 0 km/h
2832 10-09-2019 23:00:00 9.78333 C 8.23 g/m*3 9.78 C 0 km/h
2833 11-09-2019 00:00:00 9.2 C 8.04 g/m*3 9.2 C 0 km/h
2834 11-09-2019 01:00:00 8.61667 C 7.86 g/m*3 8.62 C 0 km/h
2835 11-09-2019 02:00:00 8.04167 C 7.69 g/m*3 8.04 C 0.13333 km/h
2836 11-09-2019 03:00:00 7.64167 C 7.55 g/m*3 7.64 C 0 km/h
2837 11-09-2019 04:00:00 7.26667 C 7.41 g/m*3 7.27 C 0 km/h
2838 11-09-2019 05:00:00 6.90833 C 7.3 g/m*3 6.91 C 0 km/h
2839 11-09-2019 06:00:00 6.65833 C 7.2 g/m*3 6.66 C 0 km/h
2840 11-09-2019 07:00:00 6.55 C 7.2 g/m*3 6.55 C 0.675 km/h
2841 11-09-2019 08:00:00 7.99167 C 7.97 g/m*3 7.99 C 1.60833 km/h
2842 11-09-2019 09:00:00 9.51667 C 8.59 g/m*3 9.52 C 2.8 km/h
2843 11-09-2019 10:00:00 10.85 C 9.29 g/m*3 10.85 C 0 km/h
2844 11-09-2019 11:00:00 13.10833 C 10.13 g/m*3 13.11 C 1.6 km/h
2845 11-09-2019 12:00:00 17.29167 C 9.85 g/m*3 17.29 C 9.41667 km/h
2846 11-09-2019 13:00:00 19.9 C 9.95 g/m*3 19.9 C 12.75833 km/h
2847 11-09-2019 14:00:00 20.58333 C 9.88 g/m*3 20.58 C 16.5 km/h
2848 11-09-2019 15:00:00 20.53333 C 10.07 g/m*3 20.53 C 10.225 km/h
2849 11-09-2019 16:00:00 20.03333 C 11.17 g/m*3 20.03 C 4.825 km/h
2850 11-09-2019 17:00:00 19.16667 C 10.86 g/m*3 19.17 C 8.45833 km/h
Sensor: Nr:Datum:Temp:Abs-Feuchte:Windchill:Wind:
Aussen-T/F 2851 11-09-2019 18:00:00 18.35833 C 10.7 g/m*3 18.36 C 3.75833 km/h
2852 11-09-2019 19:00:00 17.26667 C 10.41 g/m*3 17.27 C 3.20833 km/h
2853 11-09-2019 20:00:00 16.50833 C 10.64 g/m*3 16.51 C 0.93333 km/h
2854 11-09-2019 21:00:00 16.275 C 10.82 g/m*3 16.27 C 0.93333 km/h
2855 11-09-2019 22:00:00 16.41667 C 11.06 g/m*3 16.42 C 0.93333 km/h
2856 11-09-2019 23:00:00 15.7 C 11.15 g/m*3 15.7 C 0.93333 km/h
2857 12-09-2019 00:00:00 15.51667 C 10.97 g/m*3 15.52 C 1.86667 km/h
2858 12-09-2019 01:00:00 16.14167 C 11.09 g/m*3 16.14 C 1.74167 km/h
2859 12-09-2019 02:00:00 17.23333 C 10.81 g/m*3 17.23 C 6.975 km/h
2860 12-09-2019 03:00:00 17.24167 C 11 g/m*3 17.24 C 6.70833 km/h
2861 12-09-2019 04:00:00 17.05 C 11.08 g/m*3 17.05 C 2.93333 km/h
2862 12-09-2019 05:00:00 16.975 C 11.25 g/m*3 16.98 C 8.31667 km/h
2863 12-09-2019 06:00:00 16.9 C 11.4 g/m*3 16.9 C 5.75833 km/h
2864 12-09-2019 07:00:00 16.24167 C 11.53 g/m*3 16.24 C 0.8 km/h
2865 12-09-2019 08:00:00 16.83333 C 12.06 g/m*3 16.83 C 5.76667 km/h
2866 12-09-2019 09:00:00 17.40833 C 12.53 g/m*3 17.41 C 9.025 km/h
2867 12-09-2019 10:00:00 18.21667 C 13.08 g/m*3 18.22 C 11.15833 km/h
2868 12-09-2019 11:00:00 19.21667 C 13.52 g/m*3 19.22 C 9.01667 km/h
2869 12-09-2019 12:00:00 20.25833 C 13.93 g/m*3 20.26 C 10.34167 km/h
2870 12-09-2019 13:00:00 20.9 C 14.27 g/m*3 20.9 C 7.79167 km/h
2871 12-09-2019 14:00:00 21.38333 C 14.69 g/m*3 21.38 C 1.6 km/h
2872 12-09-2019 15:00:00 22.25833 C 14.77 g/m*3 22.26 C 4.025 km/h
2873 12-09-2019 16:00:00 22.95 C 14.67 g/m*3 22.95 C 7.91667 km/h
2874 12-09-2019 17:00:00 24.44167 C 14.46 g/m*3 24.44 C 11.83333 km/h
2875 12-09-2019 18:00:00 24.95833 C 14.66 g/m*3 24.96 C 6.56667 km/h
Sensor: Nr:Datum:Temp:Abs-Feuchte:Windchill:Wind:
Aussen-T/F 2876 12-09-2019 19:00:00 22.86667 C 14.23 g/m*3 22.87 C 0.53333 km/h
2877 12-09-2019 20:00:00 19.11667 C 13.29 g/m*3 19.12 C 0.4 km/h
2878 12-09-2019 21:00:00 18.225 C 13.19 g/m*3 18.23 C 0.26667 km/h
2879 12-09-2019 22:00:00 18.35 C 13.17 g/m*3 18.35 C 0.4 km/h
2880 12-09-2019 23:00:00 17.06667 C 12.6 g/m*3 17.07 C 0 km/h
2881 13-09-2019 00:00:00 15.98333 C 12.26 g/m*3 15.98 C 0.93333 km/h
2882 13-09-2019 01:00:00 15.55 C 12.18 g/m*3 15.55 C 3.6 km/h
2883 13-09-2019 02:00:00 15.25 C 12.05 g/m*3 15.25 C 1.46667 km/h
2884 13-09-2019 03:00:00 15.1 C 12.07 g/m*3 15.1 C 1.06667 km/h
2885 13-09-2019 04:00:00 15.575 C 12.4 g/m*3 15.58 C 2.93333 km/h
2886 13-09-2019 05:00:00 16.19167 C 12.55 g/m*3 16.19 C 6.84167 km/h
2887 13-09-2019 06:00:00 16.25833 C 12.58 g/m*3 16.26 C 4.3 km/h
2888 13-09-2019 07:00:00 16.64167 C 12.75 g/m*3 16.64 C 2.94167 km/h
2889 13-09-2019 08:00:00 16.85833 C 13.01 g/m*3 16.86 C 0.8 km/h
2890 13-09-2019 09:00:00 17.49167 C 13.31 g/m*3 17.49 C 2 km/h
2891 13-09-2019 10:00:00 18.51667 C 13.63 g/m*3 18.52 C 0.8 km/h
2892 13-09-2019 11:00:00 19.6 C 13.91 g/m*3 19.6 C 2.8 km/h
2893 13-09-2019 12:00:00 20.35 C 14.02 g/m*3 20.35 C 1.2 km/h
2894 13-09-2019 13:00:00 20.60833 C 13.82 g/m*3 20.61 C 4.675 km/h
2895 13-09-2019 14:00:00 21.16667 C 14.03 g/m*3 21.17 C 6.15833 km/h
2896 13-09-2019 15:00:00 20.85833 C 14.13 g/m*3 20.86 C 12.76667 km/h
2897 13-09-2019 16:00:00 19.325 C 14.49 g/m*3 19.33 C 5.90833 km/h
2898 13-09-2019 17:00:00 19.20833 C 14.74 g/m*3 19.21 C 0 km/h
2899 13-09-2019 18:00:00 20 C 15.42 g/m*3 20 C 0 km/h
2900 13-09-2019 19:00:00 19.48333 C 14.46 g/m*3 19.48 C 0 km/h
Sensor: Nr:Datum:Temp:Abs-Feuchte:Windchill:Wind:
Aussen-T/F 2901 13-09-2019 20:00:00 17.60833 C 13.73 g/m*3 17.61 C 0.26667 km/h
2902 13-09-2019 21:00:00 16.95 C 13.39 g/m*3 16.95 C 0 km/h
2903 13-09-2019 22:00:00 16.25833 C 12.87 g/m*3 16.26 C 0 km/h
2904 13-09-2019 23:00:00 15.48333 C 12.38 g/m*3 15.48 C 0 km/h
2905 14-09-2019 00:00:00 15.39167 C 12.41 g/m*3 15.39 C 0 km/h
2906 14-09-2019 01:00:00 14.63333 C 11.86 g/m*3 14.63 C 0 km/h
2907 14-09-2019 02:00:00 13.525 C 11.07 g/m*3 13.53 C 0 km/h
2908 14-09-2019 03:00:00 12.70833 C 10.58 g/m*3 12.71 C 0 km/h
2909 14-09-2019 04:00:00 12.00833 C 10.18 g/m*3 12.01 C 0 km/h
2910 14-09-2019 05:00:00 11.31667 C 9.79 g/m*3 11.32 C 0 km/h
2911 14-09-2019 06:00:00 10.78333 C 9.48 g/m*3 10.78 C 0 km/h
2912 14-09-2019 07:00:00 10.4 C 9.25 g/m*3 10.4 C 0 km/h
2913 14-09-2019 08:00:00 10.40833 C 9.26 g/m*3 10.41 C 0 km/h
2914 14-09-2019 09:00:00 11.00833 C 9.71 g/m*3 11.01 C 0.13333 km/h
2915 14-09-2019 10:00:00 12.25833 C 10.51 g/m*3 12.26 C 0.26667 km/h
2916 14-09-2019 11:00:00 13.69167 C 11.26 g/m*3 13.69 C 0.26667 km/h
2917 14-09-2019 12:00:00 16.14167 C 11.54 g/m*3 16.14 C 0.8 km/h
2918 14-09-2019 13:00:00 18.675 C 11.2 g/m*3 18.68 C 3.74167 km/h
2919 14-09-2019 14:00:00 20.43333 C 11.02 g/m*3 20.43 C 4.95 km/h
2920 14-09-2019 15:00:00 21.74167 C 10.66 g/m*3 21.74 C 5.35833 km/h
2921 14-09-2019 16:00:00 22.44167 C 10.43 g/m*3 22.44 C 4.3 km/h
2922 14-09-2019 17:00:00 24.14167 C 10.29 g/m*3 24.14 C 4.81667 km/h
2923 14-09-2019 18:00:00 23.6 C 11.63 g/m*3 23.6 C 0 km/h
2924 14-09-2019 19:00:00 19.45833 C 10.87 g/m*3 19.46 C 0.13333 km/h
2925 14-09-2019 20:00:00 16.95833 C 10.12 g/m*3 16.96 C 0 km/h
Sensor: Nr:Datum:Temp:Abs-Feuchte:Windchill:Wind:
Aussen-T/F 2926 14-09-2019 21:00:00 15.96667 C 10.01 g/m*3 15.97 C 0 km/h
2927 14-09-2019 22:00:00 13.8 C 9.68 g/m*3 13.8 C 0 km/h
2928 14-09-2019 23:00:00 12.48333 C 9.38 g/m*3 12.48 C 0 km/h
2929 15-09-2019 00:00:00 11.65 C 9.12 g/m*3 11.65 C 0 km/h
2930 15-09-2019 01:00:00 10.825 C 8.89 g/m*3 10.83 C 0 km/h
2931 15-09-2019 02:00:00 10.375 C 8.83 g/m*3 10.38 C 0 km/h
2932 15-09-2019 03:00:00 10.16667 C 8.79 g/m*3 10.17 C 0.13333 km/h
2933 15-09-2019 04:00:00 9.75833 C 8.61 g/m*3 9.76 C 0.13333 km/h
2934 15-09-2019 05:00:00 9.31667 C 8.46 g/m*3 9.32 C 0 km/h
2935 15-09-2019 06:00:00 8.76667 C 8.17 g/m*3 8.77 C 0 km/h
2936 15-09-2019 07:00:00 8.775 C 8.26 g/m*3 8.78 C 0.53333 km/h
2937 15-09-2019 08:00:00 9.29167 C 8.62 g/m*3 9.29 C 0.53333 km/h
2938 15-09-2019 09:00:00 10.03333 C 9.04 g/m*3 10.03 C 0 km/h
2939 15-09-2019 10:00:00 11.35833 C 9.83 g/m*3 11.36 C 0 km/h
2940 15-09-2019 11:00:00 13.71667 C 11.23 g/m*3 13.72 C 0 km/h
2941 15-09-2019 12:00:00 16.96667 C 12.32 g/m*3 16.97 C 0 km/h
2942 15-09-2019 13:00:00 20.45833 C 12.4 g/m*3 20.46 C 0 km/h
2943 15-09-2019 14:00:00 22.79167 C 12.41 g/m*3 22.79 C 0.53333 km/h
2944 15-09-2019 15:00:00 24.05 C 12.35 g/m*3 24.05 C 0.53333 km/h
2945 15-09-2019 16:00:00 24.65833 C 11.93 g/m*3 24.66 C 2.66667 km/h
2946 15-09-2019 17:00:00 25.84167 C 11.52 g/m*3 25.84 C 1.6 km/h
2947 15-09-2019 18:00:00 26.43333 C 11.47 g/m*3 26.43 C 0.4 km/h
2948 15-09-2019 19:00:00 21.96667 C 11.11 g/m*3 21.97 C 0 km/h
2949 15-09-2019 20:00:00 18.225 C 9.86 g/m*3 18.23 C 0 km/h
2950 15-09-2019 21:00:00 16.76667 C 9.56 g/m*3 16.77 C 0 km/h
Sensor: Nr:Datum:Temp:Abs-Feuchte:Windchill:Wind:
Aussen-T/F 2951 15-09-2019 22:00:00 14.475 C 9.48 g/m*3 14.48 C 0 km/h
2952 15-09-2019 23:00:00 12.99167 C 9.21 g/m*3 12.99 C 0 km/h
2953 16-09-2019 00:00:00 12.55 C 9.24 g/m*3 12.55 C 0 km/h
2954 16-09-2019 01:00:00 12.25833 C 9.26 g/m*3 12.26 C 0.53333 km/h
2955 16-09-2019 02:00:00 11.41667 C 9.02 g/m*3 11.42 C 0.26667 km/h
2956 16-09-2019 03:00:00 11.11667 C 9.09 g/m*3 11.12 C 0.4 km/h
2957 16-09-2019 04:00:00 11.45833 C 9.31 g/m*3 11.46 C 0.66667 km/h
2958 16-09-2019 05:00:00 11.51667 C 9.27 g/m*3 11.52 C 0.4 km/h
2959 16-09-2019 06:00:00 11.23333 C 9.22 g/m*3 11.23 C 0 km/h
2960 16-09-2019 07:00:00 11.31667 C 9.35 g/m*3 11.32 C 0.13333 km/h
2961 16-09-2019 08:00:00 12.075 C 9.65 g/m*3 12.08 C 1.2 km/h
2962 16-09-2019 09:00:00 13.4 C 10.02 g/m*3 13.4 C 1.06667 km/h
2963 16-09-2019 10:00:00 14.99167 C 10.52 g/m*3 14.99 C 0.93333 km/h
2964 16-09-2019 11:00:00 17.41667 C 11.29 g/m*3 17.42 C 1.33333 km/h
2965 16-09-2019 12:00:00 19.64167 C 11.69 g/m*3 19.64 C 4.40833 km/h
2966 16-09-2019 13:00:00 21.18333 C 11.4 g/m*3 21.18 C 5.9 km/h
2967 16-09-2019 14:00:00 22.05 C 11.19 g/m*3 22.05 C 4.26667 km/h
2968 16-09-2019 15:00:00 22.075 C 11.53 g/m*3 22.08 C 4.275 km/h
2969 16-09-2019 16:00:00 22.10833 C 10.87 g/m*3 22.11 C 7.65 km/h
2970 16-09-2019 17:00:00 21.8 C 11.67 g/m*3 21.8 C 7.525 km/h
2971 16-09-2019 18:00:00 20.725 C 11.4 g/m*3 20.73 C 4.95 km/h
2972 16-09-2019 19:00:00 19.71667 C 11.57 g/m*3 19.72 C 8.46667 km/h
2973 16-09-2019 20:00:00 17.64167 C 12.45 g/m*3 17.64 C 2.275 km/h
2974 16-09-2019 21:00:00 16.74167 C 12.53 g/m*3 16.74 C 1.46667 km/h
2975 16-09-2019 22:00:00 16.43333 C 12.39 g/m*3 16.43 C 4.825 km/h
Sensor: Nr:Datum:Temp:Abs-Feuchte:Windchill:Wind:
Aussen-T/F 2976 16-09-2019 23:00:00 15.4 C 12.03 g/m*3 15.4 C 4.14167 km/h
2977 17-09-2019 00:00:00 15.05833 C 11.74 g/m*3 15.06 C 1.73333 km/h
2978 17-09-2019 01:00:00 14.81667 C 11.42 g/m*3 14.82 C 4 km/h
2979 17-09-2019 02:00:00 14.66667 C 11.26 g/m*3 14.67 C 3.475 km/h
2980 17-09-2019 03:00:00 14.54167 C 11.1 g/m*3 14.54 C 1.46667 km/h
2981 17-09-2019 04:00:00 14.30833 C 11.03 g/m*3 14.31 C 0.4 km/h
2982 17-09-2019 05:00:00 14.16667 C 11 g/m*3 14.17 C 0.53333 km/h
2983 17-09-2019 06:00:00 14.1 C 10.95 g/m*3 14.1 C 3.74167 km/h
2984 17-09-2019 07:00:00 14.01667 C 10.81 g/m*3 14.02 C 1.86667 km/h
2985 17-09-2019 08:00:00 14 C 10.57 g/m*3 14 C 4.00833 km/h
2986 17-09-2019 09:00:00 14.04167 C 10.08 g/m*3 14.04 C 8.33333 km/h
2987 17-09-2019 10:00:00 14.925 C 9.51 g/m*3 14.93 C 11.29167 km/h
2988 17-09-2019 11:00:00 15.73333 C 9.52 g/m*3 15.73 C 11.56667 km/h
2989 17-09-2019 12:00:00 16.125 C 9.35 g/m*3 16.13 C 13.83333 km/h
2990 17-09-2019 13:00:00 16.625 C 9.11 g/m*3 16.63 C 13.43333 km/h
2991 17-09-2019 14:00:00 17.44167 C 9.01 g/m*3 17.44 C 13.43333 km/h
2992 17-09-2019 15:00:00 17.66667 C 8.72 g/m*3 17.67 C 12.1 km/h
2993 17-09-2019 16:00:00 18.05833 C 8.61 g/m*3 18.06 C 12.76667 km/h
2994 17-09-2019 17:00:00 18.125 C 8.63 g/m*3 18.13 C 11.41667 km/h
2995 17-09-2019 18:00:00 18.45 C 8.52 g/m*3 18.45 C 13.43333 km/h
2996 17-09-2019 19:00:00 17.3 C 8.79 g/m*3 17.3 C 5.775 km/h
2997 17-09-2019 20:00:00 16.71667 C 8.94 g/m*3 16.72 C 6.03333 km/h
2998 17-09-2019 21:00:00 16.00833 C 8.74 g/m*3 16.01 C 12.36667 km/h
2999 17-09-2019 22:00:00 14.55833 C 7.86 g/m*3 14.56 C 11.7 km/h
3000 17-09-2019 23:00:00 13.40833 C 7.65 g/m*3 13.41 C 6.45 km/h
Sensor: Nr:Datum:Temp:Abs-Feuchte:Windchill:Wind:
Aussen-T/F 3001 18-09-2019 00:00:00 11.80833 C 7.43 g/m*3 11.81 C 3.86667 km/h
3002 18-09-2019 01:00:00 10.83333 C 7.47 g/m*3 10.83 C 2.8 km/h
3003 18-09-2019 02:00:00 9.26667 C 7.32 g/m*3 9.27 C 0 km/h
3004 18-09-2019 03:00:00 8.25 C 7.19 g/m*3 8.25 C 0 km/h
3005 18-09-2019 04:00:00 7.425 C 7.05 g/m*3 7.43 C 0 km/h
3006 18-09-2019 05:00:00 6.76667 C 6.89 g/m*3 6.77 C 0 km/h
3007 18-09-2019 06:00:00 6.08333 C 6.7 g/m*3 6.08 C 0 km/h
3008 18-09-2019 07:00:00 5.8 C 6.67 g/m*3 5.8 C 0 km/h
3009 18-09-2019 08:00:00 6.10833 C 6.87 g/m*3 6.11 C 0 km/h
3010 18-09-2019 09:00:00 7.01667 C 7.37 g/m*3 7.02 C 0 km/h
3011 18-09-2019 10:00:00 8.375 C 8.05 g/m*3 8.38 C 0 km/h
3012 18-09-2019 11:00:00 10.625 C 8.65 g/m*3 10.63 C 1.33333 km/h
3013 18-09-2019 12:00:00 13.6 C 8.4 g/m*3 13.6 C 5.61667 km/h
3014 18-09-2019 13:00:00 15.1 C 7.76 g/m*3 15.1 C 9 km/h
3015 18-09-2019 14:00:00 16.25 C 7.43 g/m*3 16.25 C 9.54167 km/h
3016 18-09-2019 15:00:00 17.00833 C 7.27 g/m*3 17.01 C 8.86667 km/h
3017 18-09-2019 16:00:00 17.225 C 7.48 g/m*3 17.23 C 9.95 km/h
3018 18-09-2019 17:00:00 18.14167 C 7.1 g/m*3 18.14 C 11.56667 km/h
3019 18-09-2019 18:00:00 18.08333 C 6.92 g/m*3 18.08 C 8.58333 km/h
3020 18-09-2019 19:00:00 15.75 C 7.28 g/m*3 15.75 C 1.06667 km/h
3021 18-09-2019 20:00:00 12.30833 C 7.28 g/m*3 12.31 C 0 km/h
3022 18-09-2019 21:00:00 11.525 C 7.45 g/m*3 11.53 C 0 km/h
3023 18-09-2019 22:00:00 10.68333 C 7.43 g/m*3 10.68 C 0 km/h
3024 18-09-2019 23:00:00 9.85833 C 7.44 g/m*3 9.86 C 0 km/h
3025 19-09-2019 00:00:00 9.16667 C 7.4 g/m*3 9.17 C 0 km/h
Sensor: Nr:Datum:Temp:Abs-Feuchte:Windchill:Wind:
Aussen-T/F 3026 19-09-2019 01:00:00 8.5 C 7.23 g/m*3 8.5 C 0 km/h
3027 19-09-2019 02:00:00 7.20833 C 6.97 g/m*3 7.21 C 0 km/h
3028 19-09-2019 03:00:00 6.58333 C 6.86 g/m*3 6.58 C 0 km/h
3029 19-09-2019 04:00:00 6.08333 C 6.73 g/m*3 6.08 C 0 km/h
3030 19-09-2019 05:00:00 5.65833 C 6.6 g/m*3 5.66 C 0 km/h
3031 19-09-2019 06:00:00 5.26667 C 6.48 g/m*3 5.27 C 0 km/h
3032 19-09-2019 07:00:00 5.14167 C 6.45 g/m*3 5.14 C 0 km/h
3033 19-09-2019 08:00:00 5.33333 C 6.59 g/m*3 5.33 C 0 km/h
3034 19-09-2019 09:00:00 6.31667 C 7.08 g/m*3 6.32 C 0 km/h
3035 19-09-2019 10:00:00 7.725 C 7.8 g/m*3 7.73 C 0 km/h
3036 19-09-2019 11:00:00 9.70833 C 8.42 g/m*3 9.71 C 0.4 km/h
3037 19-09-2019 12:00:00 13.33333 C 7.53 g/m*3 13.33 C 10.35833 km/h
3038 19-09-2019 13:00:00 14.46667 C 7.05 g/m*3 14.47 C 6.3 km/h
3039 19-09-2019 14:00:00 15.7 C 6.76 g/m*3 15.7 C 7.38333 km/h
3040 19-09-2019 15:00:00 16.48333 C 6.7 g/m*3 16.48 C 9.54167 km/h
3041 19-09-2019 16:00:00 17.08333 C 6.67 g/m*3 17.08 C 9.28333 km/h
3042 19-09-2019 17:00:00 18.04167 C 6.51 g/m*3 18.04 C 8.59167 km/h
3043 19-09-2019 18:00:00 18.01667 C 6.64 g/m*3 18.02 C 4.96667 km/h
3044 19-09-2019 19:00:00 15.00833 C 7.05 g/m*3 15.01 C 0 km/h
3045 19-09-2019 20:00:00 11.975 C 6.78 g/m*3 11.98 C 0 km/h
3046 19-09-2019 21:00:00 10.525 C 6.78 g/m*3 10.53 C 0 km/h
3047 19-09-2019 22:00:00 9.59167 C 6.78 g/m*3 9.59 C 0 km/h
3048 19-09-2019 23:00:00 8.45 C 6.65 g/m*3 8.45 C 0 km/h
3049 20-09-2019 00:00:00 7.625 C 6.46 g/m*3 7.63 C 0 km/h
3050 20-09-2019 01:00:00 7.05 C 6.42 g/m*3 7.05 C 0 km/h
Sensor: Nr:Datum:Temp:Abs-Feuchte:Windchill:Wind:
Aussen-T/F 3051 20-09-2019 02:00:00 6.21667 C 6.27 g/m*3 6.22 C 0 km/h
3052 20-09-2019 03:00:00 5.75 C 6.19 g/m*3 5.75 C 0 km/h
3053 20-09-2019 04:00:00 5.15 C 6.09 g/m*3 5.15 C 0 km/h
3054 20-09-2019 05:00:00 4.69167 C 6.03 g/m*3 4.69 C 0 km/h
3055 20-09-2019 06:00:00 4.325 C 5.97 g/m*3 4.33 C 0 km/h
3056 20-09-2019 07:00:00 4.125 C 5.96 g/m*3 4.13 C 0 km/h
3057 20-09-2019 08:00:00 4.65 C 6.24 g/m*3 4.65 C 0 km/h
3058 20-09-2019 09:00:00 5.625 C 6.69 g/m*3 5.63 C 0 km/h
3059 20-09-2019 10:00:00 7.39167 C 7.47 g/m*3 7.39 C 0 km/h
3060 20-09-2019 11:00:00 10 C 8.1 g/m*3 10 C 0 km/h
3061 20-09-2019 12:00:00 13.41667 C 7.68 g/m*3 13.42 C 4.95833 km/h
3062 20-09-2019 13:00:00 15.83333 C 7.25 g/m*3 15.83 C 5.21667 km/h
3063 20-09-2019 14:00:00 17.63333 C 7.14 g/m*3 17.63 C 7.11667 km/h
3064 20-09-2019 15:00:00 18.525 C 6.89 g/m*3 18.52 C 7.925 km/h
3065 20-09-2019 16:00:00 19.26667 C 7.01 g/m*3 19.27 C 9.28333 km/h
3066 20-09-2019 17:00:00 20.33333 C 7.02 g/m*3 20.33 C 8.59167 km/h
3067 20-09-2019 18:00:00 20.525 C 7.17 g/m*3 20.53 C 4.55 km/h
3068 20-09-2019 19:00:00 15.85 C 7.09 g/m*3 15.85 C 0.8 km/h
3069 20-09-2019 20:00:00 13.7 C 6.96 g/m*3 13.7 C 1.33333 km/h
3070 20-09-2019 21:00:00 11.68333 C 7.14 g/m*3 11.68 C 0 km/h
3071 20-09-2019 22:00:00 9.525 C 6.97 g/m*3 9.53 C 0 km/h
3072 20-09-2019 23:00:00 8.425 C 6.87 g/m*3 8.43 C 0 km/h
3073 21-09-2019 00:00:00 7.44167 C 6.69 g/m*3 7.44 C 0 km/h
3074 21-09-2019 01:00:00 6.85 C 6.55 g/m*3 6.85 C 0 km/h
3075 21-09-2019 02:00:00 6.34167 C 6.4 g/m*3 6.34 C 0 km/h
Sensor: Nr:Datum:Temp:Abs-Feuchte:Windchill:Wind:
Aussen-T/F 3076 21-09-2019 03:00:00 5.80833 C 6.27 g/m*3 5.81 C 0 km/h
3077 21-09-2019 04:00:00 5.45833 C 6.24 g/m*3 5.46 C 0 km/h
3078 21-09-2019 05:00:00 5.275 C 6.25 g/m*3 5.28 C 0 km/h
3079 21-09-2019 06:00:00 4.80833 C 6.1 g/m*3 4.81 C 0 km/h
3080 21-09-2019 07:00:00 4.60833 C 6.09 g/m*3 4.61 C 0 km/h
3081 21-09-2019 08:00:00 4.725 C 6.21 g/m*3 4.72 C 0 km/h
3082 21-09-2019 09:00:00 5.79167 C 6.72 g/m*3 5.79 C 0 km/h
3083 21-09-2019 10:00:00 8.225 C 7.58 g/m*3 8.23 C 0 km/h
3084 21-09-2019 11:00:00 11.40833 C 8.4 g/m*3 11.41 C 0 km/h
3085 21-09-2019 12:00:00 14.95 C 8.6 g/m*3 14.95 C 0.66667 km/h
3086 21-09-2019 13:00:00 18.2 C 7.78 g/m*3 18.2 C 4 km/h
3087 21-09-2019 14:00:00 21.43333 C 6.23 g/m*3 21.43 C 7.24167 km/h
3088 21-09-2019 15:00:00 22.63333 C 6.11 g/m*3 22.63 C 7.925 km/h
3089 21-09-2019 16:00:00 23.23333 C 6.53 g/m*3 23.23 C 7.375 km/h
3090 21-09-2019 17:00:00 24.65833 C 7.13 g/m*3 24.66 C 5.09167 km/h
3091 21-09-2019 18:00:00 22.74167 C 7.97 g/m*3 22.74 C 0.66667 km/h
3092 21-09-2019 19:00:00 18.49167 C 7.54 g/m*3 18.49 C 1.6 km/h
3093 21-09-2019 20:00:00 16.16667 C 7.62 g/m*3 16.17 C 0.66667 km/h
3094 21-09-2019 21:00:00 13.66667 C 7.8 g/m*3 13.67 C 0 km/h
3095 21-09-2019 22:00:00 11.99167 C 7.62 g/m*3 11.99 C 0 km/h
3096 21-09-2019 23:00:00 10.88333 C 7.52 g/m*3 10.88 C 0 km/h
3097 22-09-2019 00:00:00 9.825 C 7.43 g/m*3 9.82 C 0 km/h
3098 22-09-2019 01:00:00 9.08333 C 7.39 g/m*3 9.08 C 0 km/h
3099 22-09-2019 02:00:00 8.425 C 7.24 g/m*3 8.43 C 0 km/h
3100 22-09-2019 03:00:00 7.96667 C 7.23 g/m*3 7.97 C 0 km/h
Sensor: Nr:Datum:Temp:Abs-Feuchte:Windchill:Wind:
Aussen-T/F 3101 22-09-2019 04:00:00 7.39167 C 7.07 g/m*3 7.39 C 0 km/h
3102 22-09-2019 05:00:00 7.06667 C 7.06 g/m*3 7.07 C 0 km/h
3103 22-09-2019 06:00:00 6.99167 C 7.12 g/m*3 6.99 C 0 km/h
3104 22-09-2019 07:00:00 6.93333 C 7.14 g/m*3 6.93 C 0 km/h
3105 22-09-2019 08:00:00 7.55833 C 7.47 g/m*3 7.56 C 0 km/h
3106 22-09-2019 09:00:00 8.63333 C 8.02 g/m*3 8.63 C 0 km/h
3107 22-09-2019 10:00:00 11.05 C 9.19 g/m*3 11.05 C 0 km/h
3108 22-09-2019 11:00:00 14.83333 C 10.13 g/m*3 14.83 C 0 km/h
3109 22-09-2019 12:00:00 17.68333 C 10.99 g/m*3 17.68 C 0 km/h
3110 22-09-2019 13:00:00 20.70833 C 11.63 g/m*3 20.71 C 0.26667 km/h
3111 22-09-2019 14:00:00 24.05 C 11.64 g/m*3 24.05 C 2.93333 km/h
3112 22-09-2019 15:00:00 24.85 C 11.36 g/m*3 24.85 C 3.86667 km/h
3113 22-09-2019 16:00:00 24.73333 C 12.25 g/m*3 24.73 C 0.8 km/h
3114 22-09-2019 17:00:00 23.48333 C 12.59 g/m*3 23.48 C 0 km/h
3115 22-09-2019 18:00:00 21.74167 C 12.24 g/m*3 21.74 C 0 km/h
3116 22-09-2019 19:00:00 20.33333 C 11.45 g/m*3 20.33 C 0 km/h
3117 22-09-2019 20:00:00 19.075 C 10.9 g/m*3 19.08 C 2 km/h
3118 22-09-2019 21:00:00 18.175 C 10.66 g/m*3 18.18 C 1.46667 km/h
3119 22-09-2019 22:00:00 18.3 C 10.92 g/m*3 18.3 C 0.13333 km/h
3120 22-09-2019 23:00:00 17.80833 C 11.4 g/m*3 17.81 C 0 km/h
3121 23-09-2019 00:00:00 17.55833 C 12.04 g/m*3 17.56 C 2.80833 km/h
3122 23-09-2019 01:00:00 18.375 C 12.81 g/m*3 18.38 C 3.33333 km/h
3123 23-09-2019 02:00:00 18.10833 C 12.21 g/m*3 18.11 C 9.26667 km/h
3124 23-09-2019 03:00:00 17.2 C 12.06 g/m*3 17.2 C 4.95 km/h
3125 23-09-2019 04:00:00 16.05833 C 11.82 g/m*3 16.06 C 0.93333 km/h
Sensor: Nr:Datum:Temp:Abs-Feuchte:Windchill:Wind:
Aussen-T/F 3126 23-09-2019 05:00:00 15.14167 C 11.8 g/m*3 15.14 C 1.86667 km/h
3127 23-09-2019 06:00:00 14.43333 C 11.53 g/m*3 14.43 C 0.26667 km/h
3128 23-09-2019 07:00:00 14.23333 C 11.52 g/m*3 14.23 C 0 km/h
3129 23-09-2019 08:00:00 14.25 C 11.64 g/m*3 14.25 C 0 km/h
3130 23-09-2019 09:00:00 14.74167 C 12.1 g/m*3 14.74 C 0 km/h
3131 23-09-2019 10:00:00 15.425 C 12.63 g/m*3 15.43 C 0.4 km/h
3132 23-09-2019 11:00:00 16.26667 C 13.08 g/m*3 16.27 C 2.8 km/h
3133 23-09-2019 12:00:00 17.06667 C 13.18 g/m*3 17.07 C 8.06667 km/h
3134 23-09-2019 13:00:00 18.2 C 12.67 g/m*3 18.2 C 10.49167 km/h
3135 23-09-2019 14:00:00 19.425 C 11.89 g/m*3 19.43 C 13.3 km/h